<?xml version="1.0" encoding="UTF-8" standalone="no" ?>
<gpx xmlns="http://www.topografix.com/GPX/1/1" xmlns:xsi="http://www.w3.org/2001/XMLSchema-instance" xsi:schemaLocation="http://www.topografix.com/GPX/1/1 http://www.topografix.com/GPX/1/1/gpx.xsd" version="1.1" creator="VisuGPX - https://www.visugpx.com">
  <metadata>
    <name>91M20/22 Boucle 12 km DM Yerres Mandres par Jean Luc IBP 34</name>
    <desc><![CDATA[[img]https://1.bp.blogspot.com/-sLyghmwJxsw/XX5Yo_hbmeI/AAAAAAABnyI/QZg-RxlCf6s3dFnT9w-YORgDcuU3Wb-UACNcBGAsYHQ/s1600/logo-dtour3-ConvertImage.ico[/img]   [b]Rando Club Yerrois[/b]


[img]https://1.bp.blogspot.com/-sLyghmwJxsw/XX5Yo_hbmeI/AAAAAAABnyI/QZg-RxlCf6s3dFnT9w-YORgDcuU3Wb-UACNcBGAsYHQ/s1600/logo-dtour3-ConvertImage.icoo[/img]   [b]Rando Club Yerrois[/b]

[b]Date[/b] :  Mercredi 26 Octobre 2022
[b]Animateurs[/b] : Jean Luc
[b]Groupe[/b] : 12 km DJ
[b]Effectif[/b] : >30


[b]Remarque particulière[/b] : Parcours sans difficultés notable à signaler. 

[b]Avertissement[/b] Toutes les randonnées répertoriées dans la randothèque du [b]R[/b]ando [b]C[/b]lub [b]Y[/b]errois ont été tracées par l'un de nos animateurs, puis reconnues et enfin effectuées avec un groupe. Pour votre sécurité, regardez toujours la date à laquelle la sortie a été effectuée - Nous tachons de mentionner des conditions météos particulières ou les difficultés éventuelles. N'oubliez jamais les consignes supplémentaires de sécurité.

]]></desc>
  </metadata>
  <trk>
    <name><![CDATA[SityTrail - Yerres.26102022]]></name>
    <trkseg>
      <trkpt lat="48.70712" lon="2.49731">
        <ele>38</ele>
        <time>2022-10-26T07:15:15.981Z</time>
      </trkpt>
      <trkpt lat="48.70712" lon="2.49731">
        <ele>38</ele>
        <time>2022-10-26T07:15:15.981Z</time>
      </trkpt>
      <trkpt lat="48.70705" lon="2.49699">
        <ele>38</ele>
        <time>2022-10-26T07:15:17.983Z</time>
      </trkpt>
      <trkpt lat="48.70709" lon="2.49728">
        <ele>38</ele>
        <time>2022-10-26T07:15:22.989Z</time>
      </trkpt>
      <trkpt lat="48.70712" lon="2.49737">
        <ele>37</ele>
        <time>2022-10-26T07:15:27.987Z</time>
      </trkpt>
      <trkpt lat="48.70714" lon="2.49745">
        <ele>37</ele>
        <time>2022-10-26T07:15:32.989Z</time>
      </trkpt>
      <trkpt lat="48.70717" lon="2.49752">
        <ele>37</ele>
        <time>2022-10-26T07:15:36.985Z</time>
      </trkpt>
      <trkpt lat="48.70718" lon="2.49759">
        <ele>37</ele>
        <time>2022-10-26T07:15:41.983Z</time>
      </trkpt>
      <trkpt lat="48.70721" lon="2.49766">
        <ele>37</ele>
        <time>2022-10-26T07:15:46.993Z</time>
      </trkpt>
      <trkpt lat="48.70723" lon="2.49774">
        <ele>37</ele>
        <time>2022-10-26T07:15:51.981Z</time>
      </trkpt>
      <trkpt lat="48.70725" lon="2.49781">
        <ele>37</ele>
        <time>2022-10-26T07:15:55.982Z</time>
      </trkpt>
      <trkpt lat="48.70729" lon="2.49788">
        <ele>37</ele>
        <time>2022-10-26T07:16:01Z</time>
      </trkpt>
      <trkpt lat="48.70733" lon="2.49795">
        <ele>37</ele>
        <time>2022-10-26T07:16:05.990Z</time>
      </trkpt>
      <trkpt lat="48.70737" lon="2.498">
        <ele>37</ele>
        <time>2022-10-26T07:16:11.006Z</time>
      </trkpt>
      <trkpt lat="48.70741" lon="2.49805">
        <ele>37</ele>
        <time>2022-10-26T07:16:15.993Z</time>
      </trkpt>
      <trkpt lat="48.70746" lon="2.49809">
        <ele>37</ele>
        <time>2022-10-26T07:16:19.976Z</time>
      </trkpt>
      <trkpt lat="48.70752" lon="2.49815">
        <ele>37</ele>
        <time>2022-10-26T07:16:24.992Z</time>
      </trkpt>
      <trkpt lat="48.70757" lon="2.4982">
        <ele>37</ele>
        <time>2022-10-26T07:16:29.981Z</time>
      </trkpt>
      <trkpt lat="48.7076" lon="2.49822">
        <ele>37</ele>
        <time>2022-10-26T07:16:34.993Z</time>
      </trkpt>
      <trkpt lat="48.70762" lon="2.49823">
        <ele>37</ele>
        <time>2022-10-26T07:16:39.996Z</time>
      </trkpt>
      <trkpt lat="48.70762" lon="2.49823">
        <ele>37</ele>
        <time>2022-10-26T07:16:45.012Z</time>
      </trkpt>
      <trkpt lat="48.70762" lon="2.49832">
        <ele>37</ele>
        <time>2022-10-26T07:16:49.981Z</time>
      </trkpt>
      <trkpt lat="48.70765" lon="2.49841">
        <ele>38</ele>
        <time>2022-10-26T07:16:54.997Z</time>
      </trkpt>
      <trkpt lat="48.70771" lon="2.49844">
        <ele>38</ele>
        <time>2022-10-26T07:16:59.992Z</time>
      </trkpt>
      <trkpt lat="48.70775" lon="2.49852">
        <ele>39</ele>
        <time>2022-10-26T07:17:04.986Z</time>
      </trkpt>
      <trkpt lat="48.70776" lon="2.49858">
        <ele>39</ele>
        <time>2022-10-26T07:17:08.996Z</time>
      </trkpt>
      <trkpt lat="48.70775" lon="2.4987">
        <ele>39</ele>
        <time>2022-10-26T07:17:13.980Z</time>
      </trkpt>
      <trkpt lat="48.70774" lon="2.49881">
        <ele>40</ele>
        <time>2022-10-26T07:17:18.995Z</time>
      </trkpt>
      <trkpt lat="48.70771" lon="2.49888">
        <ele>40</ele>
        <time>2022-10-26T07:17:22.997Z</time>
      </trkpt>
      <trkpt lat="48.70768" lon="2.49897">
        <ele>40</ele>
        <time>2022-10-26T07:17:27.981Z</time>
      </trkpt>
      <trkpt lat="48.70767" lon="2.49906">
        <ele>41</ele>
        <time>2022-10-26T07:17:31.992Z</time>
      </trkpt>
      <trkpt lat="48.70765" lon="2.49915">
        <ele>41</ele>
        <time>2022-10-26T07:17:36.997Z</time>
      </trkpt>
      <trkpt lat="48.70761" lon="2.49924">
        <ele>39</ele>
        <time>2022-10-26T07:17:41.983Z</time>
      </trkpt>
      <trkpt lat="48.7076" lon="2.49932">
        <ele>39</ele>
        <time>2022-10-26T07:17:46.987Z</time>
      </trkpt>
      <trkpt lat="48.70759" lon="2.4994">
        <ele>39</ele>
        <time>2022-10-26T07:17:51.993Z</time>
      </trkpt>
      <trkpt lat="48.70755" lon="2.49945">
        <ele>39</ele>
        <time>2022-10-26T07:17:56.984Z</time>
      </trkpt>
      <trkpt lat="48.70755" lon="2.49955">
        <ele>39</ele>
        <time>2022-10-26T07:18:01.976Z</time>
      </trkpt>
      <trkpt lat="48.70755" lon="2.49963">
        <ele>40</ele>
        <time>2022-10-26T07:18:06.981Z</time>
      </trkpt>
      <trkpt lat="48.70755" lon="2.4997">
        <ele>40</ele>
        <time>2022-10-26T07:18:11.979Z</time>
      </trkpt>
      <trkpt lat="48.70755" lon="2.49979">
        <ele>40</ele>
        <time>2022-10-26T07:18:16.998Z</time>
      </trkpt>
      <trkpt lat="48.70753" lon="2.49991">
        <ele>40</ele>
        <time>2022-10-26T07:18:21.990Z</time>
      </trkpt>
      <trkpt lat="48.70751" lon="2.50001">
        <ele>40</ele>
        <time>2022-10-26T07:18:26.983Z</time>
      </trkpt>
      <trkpt lat="48.70749" lon="2.50011">
        <ele>40</ele>
        <time>2022-10-26T07:18:31.979Z</time>
      </trkpt>
      <trkpt lat="48.70744" lon="2.50021">
        <ele>41</ele>
        <time>2022-10-26T07:18:36.985Z</time>
      </trkpt>
      <trkpt lat="48.70741" lon="2.50027">
        <ele>41</ele>
        <time>2022-10-26T07:18:42.008Z</time>
      </trkpt>
      <trkpt lat="48.70738" lon="2.50038">
        <ele>41</ele>
        <time>2022-10-26T07:18:46.993Z</time>
      </trkpt>
      <trkpt lat="48.7074" lon="2.50046">
        <ele>42</ele>
        <time>2022-10-26T07:18:51.985Z</time>
      </trkpt>
      <trkpt lat="48.70742" lon="2.50057">
        <ele>42</ele>
        <time>2022-10-26T07:18:56.998Z</time>
      </trkpt>
      <trkpt lat="48.70742" lon="2.50066">
        <ele>42</ele>
        <time>2022-10-26T07:19:01.993Z</time>
      </trkpt>
      <trkpt lat="48.7074" lon="2.50074">
        <ele>44</ele>
        <time>2022-10-26T07:19:06.991Z</time>
      </trkpt>
      <trkpt lat="48.7074" lon="2.50078">
        <ele>44</ele>
        <time>2022-10-26T07:19:10.990Z</time>
      </trkpt>
      <trkpt lat="48.70739" lon="2.50083">
        <ele>44</ele>
        <time>2022-10-26T07:19:14.988Z</time>
      </trkpt>
      <trkpt lat="48.70738" lon="2.5009">
        <ele>44</ele>
        <time>2022-10-26T07:19:19.978Z</time>
      </trkpt>
      <trkpt lat="48.70733" lon="2.50096">
        <ele>47</ele>
        <time>2022-10-26T07:19:24.982Z</time>
      </trkpt>
      <trkpt lat="48.70732" lon="2.50105">
        <ele>49</ele>
        <time>2022-10-26T07:19:29.981Z</time>
      </trkpt>
      <trkpt lat="48.70732" lon="2.50113">
        <ele>49</ele>
        <time>2022-10-26T07:19:34.983Z</time>
      </trkpt>
      <trkpt lat="48.70732" lon="2.50122">
        <ele>49</ele>
        <time>2022-10-26T07:19:39.974Z</time>
      </trkpt>
      <trkpt lat="48.70732" lon="2.50133">
        <ele>50</ele>
        <time>2022-10-26T07:19:44.991Z</time>
      </trkpt>
      <trkpt lat="48.70731" lon="2.50141">
        <ele>50</ele>
        <time>2022-10-26T07:19:49.002Z</time>
      </trkpt>
      <trkpt lat="48.70729" lon="2.50151">
        <ele>50</ele>
        <time>2022-10-26T07:19:53.983Z</time>
      </trkpt>
      <trkpt lat="48.70729" lon="2.50159">
        <ele>50</ele>
        <time>2022-10-26T07:19:58.997Z</time>
      </trkpt>
      <trkpt lat="48.70727" lon="2.50168">
        <ele>50</ele>
        <time>2022-10-26T07:20:03.987Z</time>
      </trkpt>
      <trkpt lat="48.70728" lon="2.50177">
        <ele>50</ele>
        <time>2022-10-26T07:20:08.989Z</time>
      </trkpt>
      <trkpt lat="48.70724" lon="2.50184">
        <ele>50</ele>
        <time>2022-10-26T07:20:13.981Z</time>
      </trkpt>
      <trkpt lat="48.70723" lon="2.50195">
        <ele>50</ele>
        <time>2022-10-26T07:20:18.996Z</time>
      </trkpt>
      <trkpt lat="48.70722" lon="2.502">
        <ele>50</ele>
        <time>2022-10-26T07:20:23.979Z</time>
      </trkpt>
      <trkpt lat="48.70717" lon="2.50203">
        <ele>50</ele>
        <time>2022-10-26T07:20:29.006Z</time>
      </trkpt>
      <trkpt lat="48.70716" lon="2.50214">
        <ele>51</ele>
        <time>2022-10-26T07:20:33.987Z</time>
      </trkpt>
      <trkpt lat="48.70714" lon="2.50221">
        <ele>51</ele>
        <time>2022-10-26T07:20:38.989Z</time>
      </trkpt>
      <trkpt lat="48.70713" lon="2.50231">
        <ele>51</ele>
        <time>2022-10-26T07:20:43.982Z</time>
      </trkpt>
      <trkpt lat="48.7071" lon="2.50236">
        <ele>53</ele>
        <time>2022-10-26T07:20:48.985Z</time>
      </trkpt>
      <trkpt lat="48.70704" lon="2.50236">
        <ele>55</ele>
        <time>2022-10-26T07:20:53.996Z</time>
      </trkpt>
      <trkpt lat="48.70698" lon="2.50236">
        <ele>54</ele>
        <time>2022-10-26T07:20:58.990Z</time>
      </trkpt>
      <trkpt lat="48.70692" lon="2.50234">
        <ele>54</ele>
        <time>2022-10-26T07:21:03.985Z</time>
      </trkpt>
      <trkpt lat="48.70688" lon="2.50235">
        <ele>54</ele>
        <time>2022-10-26T07:21:08.993Z</time>
      </trkpt>
      <trkpt lat="48.70683" lon="2.50234">
        <ele>54</ele>
        <time>2022-10-26T07:21:13.996Z</time>
      </trkpt>
      <trkpt lat="48.70679" lon="2.50233">
        <ele>55</ele>
        <time>2022-10-26T07:21:18.993Z</time>
      </trkpt>
      <trkpt lat="48.70675" lon="2.50233">
        <ele>55</ele>
        <time>2022-10-26T07:21:23.984Z</time>
      </trkpt>
      <trkpt lat="48.7067" lon="2.50233">
        <ele>55</ele>
        <time>2022-10-26T07:21:28.994Z</time>
      </trkpt>
      <trkpt lat="48.70664" lon="2.50232">
        <ele>55</ele>
        <time>2022-10-26T07:21:33.983Z</time>
      </trkpt>
      <trkpt lat="48.70658" lon="2.50235">
        <ele>55</ele>
        <time>2022-10-26T07:21:38.987Z</time>
      </trkpt>
      <trkpt lat="48.70654" lon="2.50236">
        <ele>57</ele>
        <time>2022-10-26T07:21:43.981Z</time>
      </trkpt>
      <trkpt lat="48.70649" lon="2.50234">
        <ele>57</ele>
        <time>2022-10-26T07:21:47.992Z</time>
      </trkpt>
      <trkpt lat="48.70644" lon="2.50233">
        <ele>57</ele>
        <time>2022-10-26T07:21:52.984Z</time>
      </trkpt>
      <trkpt lat="48.70639" lon="2.50232">
        <ele>57</ele>
        <time>2022-10-26T07:21:57.977Z</time>
      </trkpt>
      <trkpt lat="48.7063" lon="2.50234">
        <ele>57</ele>
        <time>2022-10-26T07:22:02.982Z</time>
      </trkpt>
      <trkpt lat="48.70625" lon="2.50234">
        <ele>57</ele>
        <time>2022-10-26T07:22:06.988Z</time>
      </trkpt>
      <trkpt lat="48.70618" lon="2.50235">
        <ele>57</ele>
        <time>2022-10-26T07:22:11.980Z</time>
      </trkpt>
      <trkpt lat="48.70612" lon="2.50236">
        <ele>57</ele>
        <time>2022-10-26T07:22:16.985Z</time>
      </trkpt>
      <trkpt lat="48.70609" lon="2.50237">
        <ele>58</ele>
        <time>2022-10-26T07:22:21.002Z</time>
      </trkpt>
      <trkpt lat="48.70603" lon="2.50239">
        <ele>58</ele>
        <time>2022-10-26T07:22:25.980Z</time>
      </trkpt>
      <trkpt lat="48.706" lon="2.50239">
        <ele>58</ele>
        <time>2022-10-26T07:22:29.974Z</time>
      </trkpt>
      <trkpt lat="48.70592" lon="2.5024">
        <ele>59</ele>
        <time>2022-10-26T07:22:34.995Z</time>
      </trkpt>
      <trkpt lat="48.70588" lon="2.50247">
        <ele>59</ele>
        <time>2022-10-26T07:22:39.988Z</time>
      </trkpt>
      <trkpt lat="48.70585" lon="2.50252">
        <ele>59</ele>
        <time>2022-10-26T07:22:45Z</time>
      </trkpt>
      <trkpt lat="48.7058" lon="2.50255">
        <ele>59</ele>
        <time>2022-10-26T07:22:48.992Z</time>
      </trkpt>
      <trkpt lat="48.70573" lon="2.50257">
        <ele>59</ele>
        <time>2022-10-26T07:22:53.980Z</time>
      </trkpt>
      <trkpt lat="48.70568" lon="2.5026">
        <ele>60</ele>
        <time>2022-10-26T07:22:59.002Z</time>
      </trkpt>
      <trkpt lat="48.70564" lon="2.50264">
        <ele>60</ele>
        <time>2022-10-26T07:23:03.988Z</time>
      </trkpt>
      <trkpt lat="48.70559" lon="2.50263">
        <ele>60</ele>
        <time>2022-10-26T07:23:07.979Z</time>
      </trkpt>
      <trkpt lat="48.70553" lon="2.50267">
        <ele>61</ele>
        <time>2022-10-26T07:23:12.987Z</time>
      </trkpt>
      <trkpt lat="48.70547" lon="2.50273">
        <ele>61</ele>
        <time>2022-10-26T07:23:18.004Z</time>
      </trkpt>
      <trkpt lat="48.70542" lon="2.50276">
        <ele>61</ele>
        <time>2022-10-26T07:23:22.988Z</time>
      </trkpt>
      <trkpt lat="48.70536" lon="2.5028">
        <ele>62</ele>
        <time>2022-10-26T07:23:27.982Z</time>
      </trkpt>
      <trkpt lat="48.70531" lon="2.50277">
        <ele>62</ele>
        <time>2022-10-26T07:23:32.981Z</time>
      </trkpt>
      <trkpt lat="48.70524" lon="2.50272">
        <ele>62</ele>
        <time>2022-10-26T07:23:37.981Z</time>
      </trkpt>
      <trkpt lat="48.7052" lon="2.50266">
        <ele>62</ele>
        <time>2022-10-26T07:23:41.982Z</time>
      </trkpt>
      <trkpt lat="48.70517" lon="2.5026">
        <ele>61</ele>
        <time>2022-10-26T07:23:46.976Z</time>
      </trkpt>
      <trkpt lat="48.70514" lon="2.50251">
        <ele>63</ele>
        <time>2022-10-26T07:23:50.986Z</time>
      </trkpt>
      <trkpt lat="48.7051" lon="2.50247">
        <ele>63</ele>
        <time>2022-10-26T07:23:55.985Z</time>
      </trkpt>
      <trkpt lat="48.70504" lon="2.50246">
        <ele>63</ele>
        <time>2022-10-26T07:23:59.993Z</time>
      </trkpt>
      <trkpt lat="48.70498" lon="2.50249">
        <ele>63</ele>
        <time>2022-10-26T07:24:04.985Z</time>
      </trkpt>
      <trkpt lat="48.70493" lon="2.50255">
        <ele>63</ele>
        <time>2022-10-26T07:24:09.989Z</time>
      </trkpt>
      <trkpt lat="48.70489" lon="2.50259">
        <ele>63</ele>
        <time>2022-10-26T07:24:14.977Z</time>
      </trkpt>
      <trkpt lat="48.70484" lon="2.50263">
        <ele>64</ele>
        <time>2022-10-26T07:24:19.982Z</time>
      </trkpt>
      <trkpt lat="48.70481" lon="2.50265">
        <ele>64</ele>
        <time>2022-10-26T07:24:24.983Z</time>
      </trkpt>
      <trkpt lat="48.70479" lon="2.50264">
        <ele>64</ele>
        <time>2022-10-26T07:24:29.978Z</time>
      </trkpt>
      <trkpt lat="48.70474" lon="2.50264">
        <ele>64</ele>
        <time>2022-10-26T07:24:33.980Z</time>
      </trkpt>
      <trkpt lat="48.70471" lon="2.50264">
        <ele>64</ele>
        <time>2022-10-26T07:24:38.985Z</time>
      </trkpt>
      <trkpt lat="48.70468" lon="2.50264">
        <ele>64</ele>
        <time>2022-10-26T07:24:43.987Z</time>
      </trkpt>
      <trkpt lat="48.70463" lon="2.50269">
        <ele>64</ele>
        <time>2022-10-26T07:24:48.998Z</time>
      </trkpt>
      <trkpt lat="48.70457" lon="2.50271">
        <ele>63</ele>
        <time>2022-10-26T07:24:53.991Z</time>
      </trkpt>
      <trkpt lat="48.70451" lon="2.50274">
        <ele>63</ele>
        <time>2022-10-26T07:24:58.990Z</time>
      </trkpt>
      <trkpt lat="48.70447" lon="2.50279">
        <ele>63</ele>
        <time>2022-10-26T07:25:03.985Z</time>
      </trkpt>
      <trkpt lat="48.70443" lon="2.50282">
        <ele>63</ele>
        <time>2022-10-26T07:25:07.989Z</time>
      </trkpt>
      <trkpt lat="48.70439" lon="2.50281">
        <ele>63</ele>
        <time>2022-10-26T07:25:11.993Z</time>
      </trkpt>
      <trkpt lat="48.70434" lon="2.50285">
        <ele>63</ele>
        <time>2022-10-26T07:25:16.993Z</time>
      </trkpt>
      <trkpt lat="48.7043" lon="2.5029">
        <ele>62</ele>
        <time>2022-10-26T07:25:21.988Z</time>
      </trkpt>
      <trkpt lat="48.70426" lon="2.50291">
        <ele>62</ele>
        <time>2022-10-26T07:25:25.978Z</time>
      </trkpt>
      <trkpt lat="48.70419" lon="2.50294">
        <ele>64</ele>
        <time>2022-10-26T07:25:30.990Z</time>
      </trkpt>
      <trkpt lat="48.70415" lon="2.50298">
        <ele>64</ele>
        <time>2022-10-26T07:25:35.985Z</time>
      </trkpt>
      <trkpt lat="48.70412" lon="2.50304">
        <ele>64</ele>
        <time>2022-10-26T07:25:40.991Z</time>
      </trkpt>
      <trkpt lat="48.70412" lon="2.50304">
        <ele>64</ele>
        <time>2022-10-26T07:25:45.977Z</time>
      </trkpt>
      <trkpt lat="48.7041" lon="2.50302">
        <ele>64</ele>
        <time>2022-10-26T07:25:49.980Z</time>
      </trkpt>
      <trkpt lat="48.70407" lon="2.50304">
        <ele>64</ele>
        <time>2022-10-26T07:25:54.991Z</time>
      </trkpt>
      <trkpt lat="48.70402" lon="2.50311">
        <ele>65</ele>
        <time>2022-10-26T07:25:59.990Z</time>
      </trkpt>
      <trkpt lat="48.70395" lon="2.50317">
        <ele>65</ele>
        <time>2022-10-26T07:26:04.988Z</time>
      </trkpt>
      <trkpt lat="48.70394" lon="2.50318">
        <ele>65</ele>
        <time>2022-10-26T07:26:09.997Z</time>
      </trkpt>
      <trkpt lat="48.70389" lon="2.50321">
        <ele>66</ele>
        <time>2022-10-26T07:26:13.984Z</time>
      </trkpt>
      <trkpt lat="48.70385" lon="2.50323">
        <ele>66</ele>
        <time>2022-10-26T07:26:17.977Z</time>
      </trkpt>
      <trkpt lat="48.70379" lon="2.5033">
        <ele>66</ele>
        <time>2022-10-26T07:26:22.991Z</time>
      </trkpt>
      <trkpt lat="48.70372" lon="2.50335">
        <ele>67</ele>
        <time>2022-10-26T07:26:27.984Z</time>
      </trkpt>
      <trkpt lat="48.70362" lon="2.50342">
        <ele>67</ele>
        <time>2022-10-26T07:26:32.995Z</time>
      </trkpt>
      <trkpt lat="48.70352" lon="2.5035">
        <ele>68</ele>
        <time>2022-10-26T07:26:36.977Z</time>
      </trkpt>
      <trkpt lat="48.70344" lon="2.50361">
        <ele>68</ele>
        <time>2022-10-26T07:26:41.982Z</time>
      </trkpt>
      <trkpt lat="48.70337" lon="2.5037">
        <ele>68</ele>
        <time>2022-10-26T07:26:46.984Z</time>
      </trkpt>
      <trkpt lat="48.7033" lon="2.50377">
        <ele>69</ele>
        <time>2022-10-26T07:26:52.003Z</time>
      </trkpt>
      <trkpt lat="48.70327" lon="2.50378">
        <ele>69</ele>
        <time>2022-10-26T07:26:57.001Z</time>
      </trkpt>
      <trkpt lat="48.70322" lon="2.50382">
        <ele>69</ele>
        <time>2022-10-26T07:27:00.997Z</time>
      </trkpt>
      <trkpt lat="48.70316" lon="2.50388">
        <ele>68</ele>
        <time>2022-10-26T07:27:05.982Z</time>
      </trkpt>
      <trkpt lat="48.70312" lon="2.50389">
        <ele>68</ele>
        <time>2022-10-26T07:27:09.985Z</time>
      </trkpt>
      <trkpt lat="48.70308" lon="2.50392">
        <ele>68</ele>
        <time>2022-10-26T07:27:14.993Z</time>
      </trkpt>
      <trkpt lat="48.70302" lon="2.50397">
        <ele>68</ele>
        <time>2022-10-26T07:27:19.981Z</time>
      </trkpt>
      <trkpt lat="48.70296" lon="2.50401">
        <ele>68</ele>
        <time>2022-10-26T07:27:23.978Z</time>
      </trkpt>
      <trkpt lat="48.70286" lon="2.50405">
        <ele>66</ele>
        <time>2022-10-26T07:27:28.989Z</time>
      </trkpt>
      <trkpt lat="48.7028" lon="2.50414">
        <ele>66</ele>
        <time>2022-10-26T07:27:33.979Z</time>
      </trkpt>
      <trkpt lat="48.70278" lon="2.50415">
        <ele>66</ele>
        <time>2022-10-26T07:27:38.990Z</time>
      </trkpt>
      <trkpt lat="48.70275" lon="2.50414">
        <ele>66</ele>
        <time>2022-10-26T07:27:43.981Z</time>
      </trkpt>
      <trkpt lat="48.70272" lon="2.50416">
        <ele>66</ele>
        <time>2022-10-26T07:27:48.978Z</time>
      </trkpt>
      <trkpt lat="48.70267" lon="2.50421">
        <ele>66</ele>
        <time>2022-10-26T07:27:53.980Z</time>
      </trkpt>
      <trkpt lat="48.70262" lon="2.50428">
        <ele>65</ele>
        <time>2022-10-26T07:27:58.983Z</time>
      </trkpt>
      <trkpt lat="48.70258" lon="2.50435">
        <ele>67</ele>
        <time>2022-10-26T07:28:03.991Z</time>
      </trkpt>
      <trkpt lat="48.70256" lon="2.5044">
        <ele>67</ele>
        <time>2022-10-26T07:28:07.988Z</time>
      </trkpt>
      <trkpt lat="48.70256" lon="2.50445">
        <ele>67</ele>
        <time>2022-10-26T07:28:12.980Z</time>
      </trkpt>
      <trkpt lat="48.70253" lon="2.50452">
        <ele>67</ele>
        <time>2022-10-26T07:28:59.981Z</time>
      </trkpt>
      <trkpt lat="48.70254" lon="2.50455">
        <ele>67</ele>
        <time>2022-10-26T07:29:04.984Z</time>
      </trkpt>
      <trkpt lat="48.70256" lon="2.50459">
        <ele>68</ele>
        <time>2022-10-26T07:29:09.007Z</time>
      </trkpt>
      <trkpt lat="48.70258" lon="2.50462">
        <ele>68</ele>
        <time>2022-10-26T07:29:13.996Z</time>
      </trkpt>
      <trkpt lat="48.70262" lon="2.50469">
        <ele>68</ele>
        <time>2022-10-26T07:29:18.977Z</time>
      </trkpt>
      <trkpt lat="48.70269" lon="2.50477">
        <ele>69</ele>
        <time>2022-10-26T07:29:23.980Z</time>
      </trkpt>
      <trkpt lat="48.70274" lon="2.50485">
        <ele>69</ele>
        <time>2022-10-26T07:29:28.983Z</time>
      </trkpt>
      <trkpt lat="48.70281" lon="2.50495">
        <ele>70</ele>
        <time>2022-10-26T07:29:33.985Z</time>
      </trkpt>
      <trkpt lat="48.70288" lon="2.50502">
        <ele>70</ele>
        <time>2022-10-26T07:29:38.983Z</time>
      </trkpt>
      <trkpt lat="48.70292" lon="2.50507">
        <ele>70</ele>
        <time>2022-10-26T07:29:42.996Z</time>
      </trkpt>
      <trkpt lat="48.70295" lon="2.50512">
        <ele>70</ele>
        <time>2022-10-26T07:29:47.996Z</time>
      </trkpt>
      <trkpt lat="48.70299" lon="2.50516">
        <ele>71</ele>
        <time>2022-10-26T07:29:52.985Z</time>
      </trkpt>
      <trkpt lat="48.70303" lon="2.50524">
        <ele>71</ele>
        <time>2022-10-26T07:29:57.979Z</time>
      </trkpt>
      <trkpt lat="48.70308" lon="2.50534">
        <ele>71</ele>
        <time>2022-10-26T07:30:02.983Z</time>
      </trkpt>
      <trkpt lat="48.70313" lon="2.50541">
        <ele>71</ele>
        <time>2022-10-26T07:30:06.996Z</time>
      </trkpt>
      <trkpt lat="48.70318" lon="2.5055">
        <ele>71</ele>
        <time>2022-10-26T07:30:11.991Z</time>
      </trkpt>
      <trkpt lat="48.70322" lon="2.5056">
        <ele>72</ele>
        <time>2022-10-26T07:30:15.987Z</time>
      </trkpt>
      <trkpt lat="48.70328" lon="2.50566">
        <ele>72</ele>
        <time>2022-10-26T07:30:19.998Z</time>
      </trkpt>
      <trkpt lat="48.70336" lon="2.50575">
        <ele>73</ele>
        <time>2022-10-26T07:30:24.980Z</time>
      </trkpt>
      <trkpt lat="48.70342" lon="2.50581">
        <ele>73</ele>
        <time>2022-10-26T07:30:29.005Z</time>
      </trkpt>
      <trkpt lat="48.70345" lon="2.50589">
        <ele>73</ele>
        <time>2022-10-26T07:30:34.005Z</time>
      </trkpt>
      <trkpt lat="48.70349" lon="2.50594">
        <ele>74</ele>
        <time>2022-10-26T07:30:38.001Z</time>
      </trkpt>
      <trkpt lat="48.70354" lon="2.50599">
        <ele>75</ele>
        <time>2022-10-26T07:30:42.998Z</time>
      </trkpt>
      <trkpt lat="48.70357" lon="2.50605">
        <ele>75</ele>
        <time>2022-10-26T07:30:47.012Z</time>
      </trkpt>
      <trkpt lat="48.70363" lon="2.50613">
        <ele>75</ele>
        <time>2022-10-26T07:30:51.982Z</time>
      </trkpt>
      <trkpt lat="48.70368" lon="2.5062">
        <ele>75</ele>
        <time>2022-10-26T07:30:57.002Z</time>
      </trkpt>
      <trkpt lat="48.7037" lon="2.50628">
        <ele>76</ele>
        <time>2022-10-26T07:31:01.996Z</time>
      </trkpt>
      <trkpt lat="48.70374" lon="2.50634">
        <ele>76</ele>
        <time>2022-10-26T07:31:06.996Z</time>
      </trkpt>
      <trkpt lat="48.70379" lon="2.50641">
        <ele>76</ele>
        <time>2022-10-26T07:31:11.986Z</time>
      </trkpt>
      <trkpt lat="48.70381" lon="2.50647">
        <ele>76</ele>
        <time>2022-10-26T07:31:18.098Z</time>
      </trkpt>
      <trkpt lat="48.70382" lon="2.50649">
        <ele>76</ele>
        <time>2022-10-26T07:31:24.977Z</time>
      </trkpt>
      <trkpt lat="48.70381" lon="2.50654">
        <ele>76</ele>
        <time>2022-10-26T07:31:29.994Z</time>
      </trkpt>
      <trkpt lat="48.70385" lon="2.50656">
        <ele>76</ele>
        <time>2022-10-26T07:31:34.989Z</time>
      </trkpt>
      <trkpt lat="48.70391" lon="2.50663">
        <ele>76</ele>
        <time>2022-10-26T07:31:39.991Z</time>
      </trkpt>
      <trkpt lat="48.70393" lon="2.50668">
        <ele>76</ele>
        <time>2022-10-26T07:31:44.002Z</time>
      </trkpt>
      <trkpt lat="48.70396" lon="2.50674">
        <ele>76</ele>
        <time>2022-10-26T07:31:48.982Z</time>
      </trkpt>
      <trkpt lat="48.70398" lon="2.50681">
        <ele>77</ele>
        <time>2022-10-26T07:31:54.003Z</time>
      </trkpt>
      <trkpt lat="48.70403" lon="2.5069">
        <ele>77</ele>
        <time>2022-10-26T07:31:58.988Z</time>
      </trkpt>
      <trkpt lat="48.70409" lon="2.50696">
        <ele>77</ele>
        <time>2022-10-26T07:32:03.009Z</time>
      </trkpt>
      <trkpt lat="48.70415" lon="2.50706">
        <ele>77</ele>
        <time>2022-10-26T07:32:07.992Z</time>
      </trkpt>
      <trkpt lat="48.70423" lon="2.50714">
        <ele>77</ele>
        <time>2022-10-26T07:32:13.005Z</time>
      </trkpt>
      <trkpt lat="48.70426" lon="2.50725">
        <ele>77</ele>
        <time>2022-10-26T07:32:17.986Z</time>
      </trkpt>
      <trkpt lat="48.70434" lon="2.50742">
        <ele>78</ele>
        <time>2022-10-26T07:33:12.010Z</time>
      </trkpt>
      <trkpt lat="48.70435" lon="2.50745">
        <ele>78</ele>
        <time>2022-10-26T07:33:17.008Z</time>
      </trkpt>
      <trkpt lat="48.70433" lon="2.5075">
        <ele>78</ele>
        <time>2022-10-26T07:33:21.991Z</time>
      </trkpt>
      <trkpt lat="48.70429" lon="2.50756">
        <ele>78</ele>
        <time>2022-10-26T07:33:26.997Z</time>
      </trkpt>
      <trkpt lat="48.70425" lon="2.50759">
        <ele>78</ele>
        <time>2022-10-26T07:33:30.996Z</time>
      </trkpt>
      <trkpt lat="48.70422" lon="2.50766">
        <ele>79</ele>
        <time>2022-10-26T07:33:36.002Z</time>
      </trkpt>
      <trkpt lat="48.70419" lon="2.5077">
        <ele>79</ele>
        <time>2022-10-26T07:33:40.991Z</time>
      </trkpt>
      <trkpt lat="48.70415" lon="2.50775">
        <ele>79</ele>
        <time>2022-10-26T07:33:45.015Z</time>
      </trkpt>
      <trkpt lat="48.70411" lon="2.50782">
        <ele>79</ele>
        <time>2022-10-26T07:33:50.022Z</time>
      </trkpt>
      <trkpt lat="48.70406" lon="2.50789">
        <ele>79</ele>
        <time>2022-10-26T07:33:54.998Z</time>
      </trkpt>
      <trkpt lat="48.70403" lon="2.50795">
        <ele>80</ele>
        <time>2022-10-26T07:34:00.002Z</time>
      </trkpt>
      <trkpt lat="48.70399" lon="2.50801">
        <ele>80</ele>
        <time>2022-10-26T07:34:04.996Z</time>
      </trkpt>
      <trkpt lat="48.70394" lon="2.50809">
        <ele>80</ele>
        <time>2022-10-26T07:34:08.997Z</time>
      </trkpt>
      <trkpt lat="48.70384" lon="2.50823">
        <ele>81</ele>
        <time>2022-10-26T07:34:13.995Z</time>
      </trkpt>
      <trkpt lat="48.70376" lon="2.50833">
        <ele>81</ele>
        <time>2022-10-26T07:34:18.978Z</time>
      </trkpt>
      <trkpt lat="48.70371" lon="2.50838">
        <ele>80</ele>
        <time>2022-10-26T07:34:23.002Z</time>
      </trkpt>
      <trkpt lat="48.70367" lon="2.50841">
        <ele>80</ele>
        <time>2022-10-26T07:34:28.010Z</time>
      </trkpt>
      <trkpt lat="48.70361" lon="2.50842">
        <ele>80</ele>
        <time>2022-10-26T07:34:32.980Z</time>
      </trkpt>
      <trkpt lat="48.70358" lon="2.50845">
        <ele>80</ele>
        <time>2022-10-26T07:34:38.008Z</time>
      </trkpt>
      <trkpt lat="48.70355" lon="2.50857">
        <ele>81</ele>
        <time>2022-10-26T07:34:41.984Z</time>
      </trkpt>
      <trkpt lat="48.70353" lon="2.50866">
        <ele>81</ele>
        <time>2022-10-26T07:34:46.999Z</time>
      </trkpt>
      <trkpt lat="48.70349" lon="2.5087">
        <ele>81</ele>
        <time>2022-10-26T07:34:51.998Z</time>
      </trkpt>
      <trkpt lat="48.70347" lon="2.50873">
        <ele>80</ele>
        <time>2022-10-26T07:34:56.001Z</time>
      </trkpt>
      <trkpt lat="48.7034" lon="2.50878">
        <ele>80</ele>
        <time>2022-10-26T07:35:01.004Z</time>
      </trkpt>
      <trkpt lat="48.70335" lon="2.50884">
        <ele>80</ele>
        <time>2022-10-26T07:35:06.008Z</time>
      </trkpt>
      <trkpt lat="48.70329" lon="2.50892">
        <ele>80</ele>
        <time>2022-10-26T07:35:11.007Z</time>
      </trkpt>
      <trkpt lat="48.70325" lon="2.509">
        <ele>80</ele>
        <time>2022-10-26T07:35:14.980Z</time>
      </trkpt>
      <trkpt lat="48.70322" lon="2.50905">
        <ele>80</ele>
        <time>2022-10-26T07:35:19.981Z</time>
      </trkpt>
      <trkpt lat="48.70319" lon="2.5091">
        <ele>80</ele>
        <time>2022-10-26T07:35:24.992Z</time>
      </trkpt>
      <trkpt lat="48.70316" lon="2.50917">
        <ele>80</ele>
        <time>2022-10-26T07:35:29.989Z</time>
      </trkpt>
      <trkpt lat="48.7031" lon="2.50921">
        <ele>80</ele>
        <time>2022-10-26T07:35:34.984Z</time>
      </trkpt>
      <trkpt lat="48.70305" lon="2.50928">
        <ele>80</ele>
        <time>2022-10-26T07:35:39.993Z</time>
      </trkpt>
      <trkpt lat="48.703" lon="2.50934">
        <ele>80</ele>
        <time>2022-10-26T07:35:44.994Z</time>
      </trkpt>
      <trkpt lat="48.70294" lon="2.50941">
        <ele>80</ele>
        <time>2022-10-26T07:35:48.991Z</time>
      </trkpt>
      <trkpt lat="48.7029" lon="2.50948">
        <ele>81</ele>
        <time>2022-10-26T07:35:53.988Z</time>
      </trkpt>
      <trkpt lat="48.70285" lon="2.50955">
        <ele>81</ele>
        <time>2022-10-26T07:35:58.979Z</time>
      </trkpt>
      <trkpt lat="48.7028" lon="2.50961">
        <ele>81</ele>
        <time>2022-10-26T07:36:03.980Z</time>
      </trkpt>
      <trkpt lat="48.70277" lon="2.50969">
        <ele>81</ele>
        <time>2022-10-26T07:36:07.979Z</time>
      </trkpt>
      <trkpt lat="48.70271" lon="2.50977">
        <ele>81</ele>
        <time>2022-10-26T07:36:13.012Z</time>
      </trkpt>
      <trkpt lat="48.70266" lon="2.50985">
        <ele>81</ele>
        <time>2022-10-26T07:36:17.987Z</time>
      </trkpt>
      <trkpt lat="48.70262" lon="2.50987">
        <ele>79</ele>
        <time>2022-10-26T07:36:21.998Z</time>
      </trkpt>
      <trkpt lat="48.70257" lon="2.50996">
        <ele>79</ele>
        <time>2022-10-26T07:36:26.987Z</time>
      </trkpt>
      <trkpt lat="48.70253" lon="2.51">
        <ele>79</ele>
        <time>2022-10-26T07:36:30.996Z</time>
      </trkpt>
      <trkpt lat="48.7025" lon="2.51004">
        <ele>79</ele>
        <time>2022-10-26T07:36:33.992Z</time>
      </trkpt>
      <trkpt lat="48.70246" lon="2.51011">
        <ele>79</ele>
        <time>2022-10-26T07:36:39.987Z</time>
      </trkpt>
      <trkpt lat="48.70241" lon="2.51017">
        <ele>78</ele>
        <time>2022-10-26T07:36:44.979Z</time>
      </trkpt>
      <trkpt lat="48.70241" lon="2.51023">
        <ele>78</ele>
        <time>2022-10-26T07:36:49.978Z</time>
      </trkpt>
      <trkpt lat="48.70236" lon="2.51034">
        <ele>78</ele>
        <time>2022-10-26T07:36:54.974Z</time>
      </trkpt>
      <trkpt lat="48.70232" lon="2.5104">
        <ele>77</ele>
        <time>2022-10-26T07:36:59.978Z</time>
      </trkpt>
      <trkpt lat="48.70227" lon="2.51046">
        <ele>76</ele>
        <time>2022-10-26T07:37:04.989Z</time>
      </trkpt>
      <trkpt lat="48.70221" lon="2.51053">
        <ele>76</ele>
        <time>2022-10-26T07:37:08.984Z</time>
      </trkpt>
      <trkpt lat="48.70219" lon="2.51061">
        <ele>76</ele>
        <time>2022-10-26T07:37:13.984Z</time>
      </trkpt>
      <trkpt lat="48.70221" lon="2.5107">
        <ele>77</ele>
        <time>2022-10-26T07:37:18.988Z</time>
      </trkpt>
      <trkpt lat="48.70222" lon="2.51082">
        <ele>77</ele>
        <time>2022-10-26T07:37:38.995Z</time>
      </trkpt>
      <trkpt lat="48.70222" lon="2.51086">
        <ele>77</ele>
        <time>2022-10-26T07:37:53.992Z</time>
      </trkpt>
      <trkpt lat="48.70227" lon="2.51088">
        <ele>77</ele>
        <time>2022-10-26T07:37:58.978Z</time>
      </trkpt>
      <trkpt lat="48.70232" lon="2.51097">
        <ele>77</ele>
        <time>2022-10-26T07:38:03.979Z</time>
      </trkpt>
      <trkpt lat="48.70238" lon="2.51107">
        <ele>77</ele>
        <time>2022-10-26T07:38:08.985Z</time>
      </trkpt>
      <trkpt lat="48.70243" lon="2.51114">
        <ele>77</ele>
        <time>2022-10-26T07:38:13.979Z</time>
      </trkpt>
      <trkpt lat="48.70249" lon="2.51122">
        <ele>77</ele>
        <time>2022-10-26T07:38:17.998Z</time>
      </trkpt>
      <trkpt lat="48.70256" lon="2.51133">
        <ele>78</ele>
        <time>2022-10-26T07:38:22.974Z</time>
      </trkpt>
      <trkpt lat="48.70261" lon="2.51141">
        <ele>78</ele>
        <time>2022-10-26T07:38:27.985Z</time>
      </trkpt>
      <trkpt lat="48.70265" lon="2.51147">
        <ele>80</ele>
        <time>2022-10-26T07:38:33Z</time>
      </trkpt>
      <trkpt lat="48.70268" lon="2.51159">
        <ele>80</ele>
        <time>2022-10-26T07:38:37.977Z</time>
      </trkpt>
      <trkpt lat="48.70271" lon="2.51172">
        <ele>80</ele>
        <time>2022-10-26T07:38:42.985Z</time>
      </trkpt>
      <trkpt lat="48.70273" lon="2.51183">
        <ele>80</ele>
        <time>2022-10-26T07:38:47.982Z</time>
      </trkpt>
      <trkpt lat="48.70275" lon="2.51192">
        <ele>80</ele>
        <time>2022-10-26T07:38:52.982Z</time>
      </trkpt>
      <trkpt lat="48.70279" lon="2.51203">
        <ele>80</ele>
        <time>2022-10-26T07:38:57.981Z</time>
      </trkpt>
      <trkpt lat="48.70281" lon="2.51212">
        <ele>79</ele>
        <time>2022-10-26T07:39:03Z</time>
      </trkpt>
      <trkpt lat="48.70283" lon="2.5122">
        <ele>79</ele>
        <time>2022-10-26T07:39:07.988Z</time>
      </trkpt>
      <trkpt lat="48.70286" lon="2.51227">
        <ele>79</ele>
        <time>2022-10-26T07:39:11.988Z</time>
      </trkpt>
      <trkpt lat="48.70287" lon="2.51236">
        <ele>79</ele>
        <time>2022-10-26T07:39:16.985Z</time>
      </trkpt>
      <trkpt lat="48.70289" lon="2.51246">
        <ele>78</ele>
        <time>2022-10-26T07:39:21.981Z</time>
      </trkpt>
      <trkpt lat="48.70291" lon="2.51254">
        <ele>78</ele>
        <time>2022-10-26T07:39:25.998Z</time>
      </trkpt>
      <trkpt lat="48.70292" lon="2.5126">
        <ele>79</ele>
        <time>2022-10-26T07:39:29.975Z</time>
      </trkpt>
      <trkpt lat="48.70295" lon="2.51269">
        <ele>79</ele>
        <time>2022-10-26T07:39:34.995Z</time>
      </trkpt>
      <trkpt lat="48.70297" lon="2.51278">
        <ele>79</ele>
        <time>2022-10-26T07:39:39.987Z</time>
      </trkpt>
      <trkpt lat="48.70299" lon="2.51285">
        <ele>79</ele>
        <time>2022-10-26T07:39:43.993Z</time>
      </trkpt>
      <trkpt lat="48.70301" lon="2.51294">
        <ele>78</ele>
        <time>2022-10-26T07:39:48.996Z</time>
      </trkpt>
      <trkpt lat="48.70304" lon="2.51303">
        <ele>78</ele>
        <time>2022-10-26T07:39:53.983Z</time>
      </trkpt>
      <trkpt lat="48.70305" lon="2.5131">
        <ele>78</ele>
        <time>2022-10-26T07:39:58.984Z</time>
      </trkpt>
      <trkpt lat="48.70307" lon="2.51318">
        <ele>78</ele>
        <time>2022-10-26T07:40:03.979Z</time>
      </trkpt>
      <trkpt lat="48.70311" lon="2.51328">
        <ele>77</ele>
        <time>2022-10-26T07:40:08.988Z</time>
      </trkpt>
      <trkpt lat="48.70313" lon="2.51336">
        <ele>77</ele>
        <time>2022-10-26T07:40:13.990Z</time>
      </trkpt>
      <trkpt lat="48.70315" lon="2.51343">
        <ele>77</ele>
        <time>2022-10-26T07:40:17.992Z</time>
      </trkpt>
      <trkpt lat="48.70317" lon="2.51352">
        <ele>76</ele>
        <time>2022-10-26T07:40:22.982Z</time>
      </trkpt>
      <trkpt lat="48.70319" lon="2.51362">
        <ele>76</ele>
        <time>2022-10-26T07:40:27.995Z</time>
      </trkpt>
      <trkpt lat="48.7032" lon="2.5137">
        <ele>79</ele>
        <time>2022-10-26T07:40:32.990Z</time>
      </trkpt>
      <trkpt lat="48.70322" lon="2.51379">
        <ele>78</ele>
        <time>2022-10-26T07:40:38.003Z</time>
      </trkpt>
      <trkpt lat="48.70325" lon="2.51389">
        <ele>78</ele>
        <time>2022-10-26T07:40:42.978Z</time>
      </trkpt>
      <trkpt lat="48.70326" lon="2.51397">
        <ele>78</ele>
        <time>2022-10-26T07:40:46.981Z</time>
      </trkpt>
      <trkpt lat="48.70328" lon="2.51403">
        <ele>77</ele>
        <time>2022-10-26T07:40:51.976Z</time>
      </trkpt>
      <trkpt lat="48.70329" lon="2.51407">
        <ele>77</ele>
        <time>2022-10-26T07:40:55.998Z</time>
      </trkpt>
      <trkpt lat="48.70333" lon="2.51417">
        <ele>77</ele>
        <time>2022-10-26T07:41:00.982Z</time>
      </trkpt>
      <trkpt lat="48.70334" lon="2.51429">
        <ele>77</ele>
        <time>2022-10-26T07:41:06.007Z</time>
      </trkpt>
      <trkpt lat="48.70335" lon="2.51437">
        <ele>76</ele>
        <time>2022-10-26T07:41:10.994Z</time>
      </trkpt>
      <trkpt lat="48.70337" lon="2.51443">
        <ele>76</ele>
        <time>2022-10-26T07:41:15.007Z</time>
      </trkpt>
      <trkpt lat="48.70335" lon="2.51452">
        <ele>76</ele>
        <time>2022-10-26T07:41:20.018Z</time>
      </trkpt>
      <trkpt lat="48.70334" lon="2.51457">
        <ele>76</ele>
        <time>2022-10-26T07:41:24.993Z</time>
      </trkpt>
      <trkpt lat="48.70328" lon="2.51461">
        <ele>76</ele>
        <time>2022-10-26T07:41:30.004Z</time>
      </trkpt>
      <trkpt lat="48.70324" lon="2.51463">
        <ele>76</ele>
        <time>2022-10-26T07:41:34.996Z</time>
      </trkpt>
      <trkpt lat="48.7032" lon="2.51467">
        <ele>76</ele>
        <time>2022-10-26T07:41:40.002Z</time>
      </trkpt>
      <trkpt lat="48.70315" lon="2.51468">
        <ele>74</ele>
        <time>2022-10-26T07:41:43.998Z</time>
      </trkpt>
      <trkpt lat="48.70308" lon="2.51473">
        <ele>74</ele>
        <time>2022-10-26T07:41:49Z</time>
      </trkpt>
      <trkpt lat="48.70302" lon="2.51477">
        <ele>74</ele>
        <time>2022-10-26T07:41:53.979Z</time>
      </trkpt>
      <trkpt lat="48.70297" lon="2.51479">
        <ele>74</ele>
        <time>2022-10-26T07:41:58.009Z</time>
      </trkpt>
      <trkpt lat="48.70292" lon="2.51483">
        <ele>74</ele>
        <time>2022-10-26T07:42:03.011Z</time>
      </trkpt>
      <trkpt lat="48.70285" lon="2.51487">
        <ele>72</ele>
        <time>2022-10-26T07:42:08Z</time>
      </trkpt>
      <trkpt lat="48.70279" lon="2.5149">
        <ele>72</ele>
        <time>2022-10-26T07:42:13.004Z</time>
      </trkpt>
      <trkpt lat="48.70275" lon="2.51493">
        <ele>72</ele>
        <time>2022-10-26T07:42:18.007Z</time>
      </trkpt>
      <trkpt lat="48.7027" lon="2.51494">
        <ele>72</ele>
        <time>2022-10-26T07:42:23.002Z</time>
      </trkpt>
      <trkpt lat="48.70265" lon="2.51497">
        <ele>72</ele>
        <time>2022-10-26T07:42:27.989Z</time>
      </trkpt>
      <trkpt lat="48.70259" lon="2.51501">
        <ele>68</ele>
        <time>2022-10-26T07:42:32.999Z</time>
      </trkpt>
      <trkpt lat="48.70253" lon="2.51505">
        <ele>68</ele>
        <time>2022-10-26T07:42:37.991Z</time>
      </trkpt>
      <trkpt lat="48.70247" lon="2.51507">
        <ele>68</ele>
        <time>2022-10-26T07:42:42.005Z</time>
      </trkpt>
      <trkpt lat="48.70243" lon="2.51513">
        <ele>68</ele>
        <time>2022-10-26T07:42:46.066Z</time>
      </trkpt>
      <trkpt lat="48.70235" lon="2.51518">
        <ele>66</ele>
        <time>2022-10-26T07:42:51.989Z</time>
      </trkpt>
      <trkpt lat="48.70225" lon="2.51527">
        <ele>66</ele>
        <time>2022-10-26T07:42:56.988Z</time>
      </trkpt>
      <trkpt lat="48.70215" lon="2.51538">
        <ele>66</ele>
        <time>2022-10-26T07:43:01.984Z</time>
      </trkpt>
      <trkpt lat="48.70209" lon="2.51543">
        <ele>66</ele>
        <time>2022-10-26T07:43:06.004Z</time>
      </trkpt>
      <trkpt lat="48.70206" lon="2.51549">
        <ele>64</ele>
        <time>2022-10-26T07:43:10.977Z</time>
      </trkpt>
      <trkpt lat="48.70202" lon="2.51555">
        <ele>64</ele>
        <time>2022-10-26T07:43:15.977Z</time>
      </trkpt>
      <trkpt lat="48.70196" lon="2.51557">
        <ele>64</ele>
        <time>2022-10-26T07:43:19.978Z</time>
      </trkpt>
      <trkpt lat="48.70191" lon="2.51561">
        <ele>64</ele>
        <time>2022-10-26T07:43:25Z</time>
      </trkpt>
      <trkpt lat="48.70187" lon="2.51567">
        <ele>64</ele>
        <time>2022-10-26T07:43:29.993Z</time>
      </trkpt>
      <trkpt lat="48.7018" lon="2.51569">
        <ele>62</ele>
        <time>2022-10-26T07:43:34.981Z</time>
      </trkpt>
      <trkpt lat="48.70177" lon="2.51575">
        <ele>61</ele>
        <time>2022-10-26T07:43:39.981Z</time>
      </trkpt>
      <trkpt lat="48.70173" lon="2.51579">
        <ele>61</ele>
        <time>2022-10-26T07:43:44.984Z</time>
      </trkpt>
      <trkpt lat="48.70168" lon="2.51584">
        <ele>61</ele>
        <time>2022-10-26T07:43:48.982Z</time>
      </trkpt>
      <trkpt lat="48.70164" lon="2.51587">
        <ele>61</ele>
        <time>2022-10-26T07:43:53.992Z</time>
      </trkpt>
      <trkpt lat="48.70157" lon="2.51592">
        <ele>61</ele>
        <time>2022-10-26T07:43:58.982Z</time>
      </trkpt>
      <trkpt lat="48.7015" lon="2.51596">
        <ele>60</ele>
        <time>2022-10-26T07:44:03.992Z</time>
      </trkpt>
      <trkpt lat="48.70144" lon="2.516">
        <ele>59</ele>
        <time>2022-10-26T07:44:08.993Z</time>
      </trkpt>
      <trkpt lat="48.70139" lon="2.51606">
        <ele>59</ele>
        <time>2022-10-26T07:44:14.007Z</time>
      </trkpt>
      <trkpt lat="48.70134" lon="2.51609">
        <ele>59</ele>
        <time>2022-10-26T07:44:18.986Z</time>
      </trkpt>
      <trkpt lat="48.70129" lon="2.51612">
        <ele>59</ele>
        <time>2022-10-26T07:44:23.990Z</time>
      </trkpt>
      <trkpt lat="48.70124" lon="2.51617">
        <ele>58</ele>
        <time>2022-10-26T07:44:28.991Z</time>
      </trkpt>
      <trkpt lat="48.70118" lon="2.5162">
        <ele>58</ele>
        <time>2022-10-26T07:44:33.978Z</time>
      </trkpt>
      <trkpt lat="48.70111" lon="2.51623">
        <ele>58</ele>
        <time>2022-10-26T07:44:38.978Z</time>
      </trkpt>
      <trkpt lat="48.70108" lon="2.51626">
        <ele>58</ele>
        <time>2022-10-26T07:44:43.990Z</time>
      </trkpt>
      <trkpt lat="48.70102" lon="2.51628">
        <ele>58</ele>
        <time>2022-10-26T07:44:48.012Z</time>
      </trkpt>
      <trkpt lat="48.70096" lon="2.51631">
        <ele>56</ele>
        <time>2022-10-26T07:44:52.985Z</time>
      </trkpt>
      <trkpt lat="48.70092" lon="2.51636">
        <ele>56</ele>
        <time>2022-10-26T07:44:57.012Z</time>
      </trkpt>
      <trkpt lat="48.70085" lon="2.5164">
        <ele>56</ele>
        <time>2022-10-26T07:45:01.992Z</time>
      </trkpt>
      <trkpt lat="48.70077" lon="2.51644">
        <ele>56</ele>
        <time>2022-10-26T07:45:06.993Z</time>
      </trkpt>
      <trkpt lat="48.70072" lon="2.5165">
        <ele>56</ele>
        <time>2022-10-26T07:45:11.985Z</time>
      </trkpt>
      <trkpt lat="48.70066" lon="2.51664">
        <ele>51</ele>
        <time>2022-10-26T07:45:21.988Z</time>
      </trkpt>
      <trkpt lat="48.70066" lon="2.51667">
        <ele>51</ele>
        <time>2022-10-26T07:45:25.992Z</time>
      </trkpt>
      <trkpt lat="48.70067" lon="2.51669">
        <ele>51</ele>
        <time>2022-10-26T07:45:29.990Z</time>
      </trkpt>
      <trkpt lat="48.70067" lon="2.5167">
        <ele>51</ele>
        <time>2022-10-26T07:45:34.989Z</time>
      </trkpt>
      <trkpt lat="48.70067" lon="2.51674">
        <ele>51</ele>
        <time>2022-10-26T07:45:38.984Z</time>
      </trkpt>
      <trkpt lat="48.7007" lon="2.51679">
        <ele>55</ele>
        <time>2022-10-26T07:45:43.999Z</time>
      </trkpt>
      <trkpt lat="48.70072" lon="2.51686">
        <ele>53</ele>
        <time>2022-10-26T07:45:48.989Z</time>
      </trkpt>
      <trkpt lat="48.70075" lon="2.51692">
        <ele>53</ele>
        <time>2022-10-26T07:45:54.006Z</time>
      </trkpt>
      <trkpt lat="48.70076" lon="2.51698">
        <ele>53</ele>
        <time>2022-10-26T07:45:58.982Z</time>
      </trkpt>
      <trkpt lat="48.70079" lon="2.51706">
        <ele>53</ele>
        <time>2022-10-26T07:46:03.989Z</time>
      </trkpt>
      <trkpt lat="48.70082" lon="2.5171">
        <ele>50</ele>
        <time>2022-10-26T07:46:08.988Z</time>
      </trkpt>
      <trkpt lat="48.70085" lon="2.51719">
        <ele>50</ele>
        <time>2022-10-26T07:46:13.981Z</time>
      </trkpt>
      <trkpt lat="48.70087" lon="2.51727">
        <ele>50</ele>
        <time>2022-10-26T07:46:19Z</time>
      </trkpt>
      <trkpt lat="48.7009" lon="2.51736">
        <ele>48</ele>
        <time>2022-10-26T07:46:23.985Z</time>
      </trkpt>
      <trkpt lat="48.70092" lon="2.51743">
        <ele>48</ele>
        <time>2022-10-26T07:46:28.989Z</time>
      </trkpt>
      <trkpt lat="48.70092" lon="2.51744">
        <ele>48</ele>
        <time>2022-10-26T07:46:32.985Z</time>
      </trkpt>
      <trkpt lat="48.70093" lon="2.51747">
        <ele>48</ele>
        <time>2022-10-26T07:46:37.986Z</time>
      </trkpt>
      <trkpt lat="48.70096" lon="2.5175">
        <ele>48</ele>
        <time>2022-10-26T07:46:42.990Z</time>
      </trkpt>
      <trkpt lat="48.70099" lon="2.51759">
        <ele>49</ele>
        <time>2022-10-26T07:46:47.989Z</time>
      </trkpt>
      <trkpt lat="48.70102" lon="2.51763">
        <ele>49</ele>
        <time>2022-10-26T07:46:52.005Z</time>
      </trkpt>
      <trkpt lat="48.70105" lon="2.5177">
        <ele>48</ele>
        <time>2022-10-26T07:46:56.989Z</time>
      </trkpt>
      <trkpt lat="48.70109" lon="2.51776">
        <ele>48</ele>
        <time>2022-10-26T07:47:01.980Z</time>
      </trkpt>
      <trkpt lat="48.70112" lon="2.51783">
        <ele>48</ele>
        <time>2022-10-26T07:47:06.994Z</time>
      </trkpt>
      <trkpt lat="48.70116" lon="2.5179">
        <ele>48</ele>
        <time>2022-10-26T07:47:11.997Z</time>
      </trkpt>
      <trkpt lat="48.7012" lon="2.51796">
        <ele>48</ele>
        <time>2022-10-26T07:47:15.992Z</time>
      </trkpt>
      <trkpt lat="48.70121" lon="2.51803">
        <ele>48</ele>
        <time>2022-10-26T07:47:19.992Z</time>
      </trkpt>
      <trkpt lat="48.70124" lon="2.51812">
        <ele>48</ele>
        <time>2022-10-26T07:47:24.981Z</time>
      </trkpt>
      <trkpt lat="48.70128" lon="2.51814">
        <ele>49</ele>
        <time>2022-10-26T07:47:29.979Z</time>
      </trkpt>
      <trkpt lat="48.70132" lon="2.51815">
        <ele>49</ele>
        <time>2022-10-26T07:47:34.983Z</time>
      </trkpt>
      <trkpt lat="48.70137" lon="2.51826">
        <ele>49</ele>
        <time>2022-10-26T07:47:39.986Z</time>
      </trkpt>
      <trkpt lat="48.7014" lon="2.51834">
        <ele>49</ele>
        <time>2022-10-26T07:47:45.006Z</time>
      </trkpt>
      <trkpt lat="48.70144" lon="2.51844">
        <ele>49</ele>
        <time>2022-10-26T07:47:49.998Z</time>
      </trkpt>
      <trkpt lat="48.70147" lon="2.5185">
        <ele>48</ele>
        <time>2022-10-26T07:47:54.003Z</time>
      </trkpt>
      <trkpt lat="48.70151" lon="2.51854">
        <ele>48</ele>
        <time>2022-10-26T07:47:59.001Z</time>
      </trkpt>
      <trkpt lat="48.70155" lon="2.51861">
        <ele>49</ele>
        <time>2022-10-26T07:48:03.997Z</time>
      </trkpt>
      <trkpt lat="48.7016" lon="2.51869">
        <ele>49</ele>
        <time>2022-10-26T07:48:08.996Z</time>
      </trkpt>
      <trkpt lat="48.70164" lon="2.51876">
        <ele>47</ele>
        <time>2022-10-26T07:48:13.006Z</time>
      </trkpt>
      <trkpt lat="48.70169" lon="2.51884">
        <ele>47</ele>
        <time>2022-10-26T07:48:17.998Z</time>
      </trkpt>
      <trkpt lat="48.70172" lon="2.51891">
        <ele>47</ele>
        <time>2022-10-26T07:48:23.006Z</time>
      </trkpt>
      <trkpt lat="48.70177" lon="2.51898">
        <ele>47</ele>
        <time>2022-10-26T07:48:27.995Z</time>
      </trkpt>
      <trkpt lat="48.70181" lon="2.51907">
        <ele>48</ele>
        <time>2022-10-26T07:48:33.019Z</time>
      </trkpt>
      <trkpt lat="48.70186" lon="2.5191">
        <ele>48</ele>
        <time>2022-10-26T07:48:37.997Z</time>
      </trkpt>
      <trkpt lat="48.7019" lon="2.51917">
        <ele>48</ele>
        <time>2022-10-26T07:48:43.006Z</time>
      </trkpt>
      <trkpt lat="48.70194" lon="2.51925">
        <ele>48</ele>
        <time>2022-10-26T07:48:48.003Z</time>
      </trkpt>
      <trkpt lat="48.70197" lon="2.51933">
        <ele>48</ele>
        <time>2022-10-26T07:48:52.991Z</time>
      </trkpt>
      <trkpt lat="48.70201" lon="2.51941">
        <ele>48</ele>
        <time>2022-10-26T07:48:58Z</time>
      </trkpt>
      <trkpt lat="48.70205" lon="2.51949">
        <ele>48</ele>
        <time>2022-10-26T07:49:03.008Z</time>
      </trkpt>
      <trkpt lat="48.7021" lon="2.51955">
        <ele>51</ele>
        <time>2022-10-26T07:49:07.981Z</time>
      </trkpt>
      <trkpt lat="48.70212" lon="2.51962">
        <ele>50</ele>
        <time>2022-10-26T07:49:12.997Z</time>
      </trkpt>
      <trkpt lat="48.70217" lon="2.5197">
        <ele>50</ele>
        <time>2022-10-26T07:49:17.999Z</time>
      </trkpt>
      <trkpt lat="48.70221" lon="2.51977">
        <ele>50</ele>
        <time>2022-10-26T07:49:22.997Z</time>
      </trkpt>
      <trkpt lat="48.70225" lon="2.51981">
        <ele>50</ele>
        <time>2022-10-26T07:49:27.003Z</time>
      </trkpt>
      <trkpt lat="48.70228" lon="2.51985">
        <ele>50</ele>
        <time>2022-10-26T07:49:31Z</time>
      </trkpt>
      <trkpt lat="48.70233" lon="2.51991">
        <ele>50</ele>
        <time>2022-10-26T07:49:35.981Z</time>
      </trkpt>
      <trkpt lat="48.70237" lon="2.51996">
        <ele>52</ele>
        <time>2022-10-26T07:49:39.980Z</time>
      </trkpt>
      <trkpt lat="48.70241" lon="2.52003">
        <ele>52</ele>
        <time>2022-10-26T07:49:44.989Z</time>
      </trkpt>
      <trkpt lat="48.70244" lon="2.52013">
        <ele>52</ele>
        <time>2022-10-26T07:49:49.988Z</time>
      </trkpt>
      <trkpt lat="48.70249" lon="2.5202">
        <ele>51</ele>
        <time>2022-10-26T07:49:54.985Z</time>
      </trkpt>
      <trkpt lat="48.70254" lon="2.52027">
        <ele>51</ele>
        <time>2022-10-26T07:49:59.987Z</time>
      </trkpt>
      <trkpt lat="48.70257" lon="2.52033">
        <ele>51</ele>
        <time>2022-10-26T07:50:03.994Z</time>
      </trkpt>
      <trkpt lat="48.70262" lon="2.52041">
        <ele>51</ele>
        <time>2022-10-26T07:50:08.989Z</time>
      </trkpt>
      <trkpt lat="48.70265" lon="2.52046">
        <ele>51</ele>
        <time>2022-10-26T07:50:12.997Z</time>
      </trkpt>
      <trkpt lat="48.7027" lon="2.52051">
        <ele>51</ele>
        <time>2022-10-26T07:50:17.996Z</time>
      </trkpt>
      <trkpt lat="48.70274" lon="2.52059">
        <ele>51</ele>
        <time>2022-10-26T07:50:22.994Z</time>
      </trkpt>
      <trkpt lat="48.70278" lon="2.52066">
        <ele>51</ele>
        <time>2022-10-26T07:50:27.989Z</time>
      </trkpt>
      <trkpt lat="48.70283" lon="2.52075">
        <ele>49</ele>
        <time>2022-10-26T07:50:32.992Z</time>
      </trkpt>
      <trkpt lat="48.70292" lon="2.52083">
        <ele>51</ele>
        <time>2022-10-26T07:50:51.992Z</time>
      </trkpt>
      <trkpt lat="48.70293" lon="2.52082">
        <ele>51</ele>
        <time>2022-10-26T07:50:55.987Z</time>
      </trkpt>
      <trkpt lat="48.70295" lon="2.52081">
        <ele>51</ele>
        <time>2022-10-26T07:50:59.979Z</time>
      </trkpt>
      <trkpt lat="48.70297" lon="2.52078">
        <ele>51</ele>
        <time>2022-10-26T07:51:04.998Z</time>
      </trkpt>
      <trkpt lat="48.703" lon="2.52072">
        <ele>51</ele>
        <time>2022-10-26T07:51:09.983Z</time>
      </trkpt>
      <trkpt lat="48.70304" lon="2.52067">
        <ele>51</ele>
        <time>2022-10-26T07:51:14.978Z</time>
      </trkpt>
      <trkpt lat="48.70308" lon="2.5206">
        <ele>51</ele>
        <time>2022-10-26T07:51:19.990Z</time>
      </trkpt>
      <trkpt lat="48.7031" lon="2.52054">
        <ele>51</ele>
        <time>2022-10-26T07:51:24.985Z</time>
      </trkpt>
      <trkpt lat="48.70314" lon="2.52047">
        <ele>51</ele>
        <time>2022-10-26T07:51:29.988Z</time>
      </trkpt>
      <trkpt lat="48.70318" lon="2.52044">
        <ele>51</ele>
        <time>2022-10-26T07:51:34.992Z</time>
      </trkpt>
      <trkpt lat="48.70322" lon="2.52046">
        <ele>54</ele>
        <time>2022-10-26T07:51:39.987Z</time>
      </trkpt>
      <trkpt lat="48.70329" lon="2.52051">
        <ele>54</ele>
        <time>2022-10-26T07:51:44.996Z</time>
      </trkpt>
      <trkpt lat="48.70332" lon="2.52055">
        <ele>54</ele>
        <time>2022-10-26T07:51:48.999Z</time>
      </trkpt>
      <trkpt lat="48.7034" lon="2.52058">
        <ele>54</ele>
        <time>2022-10-26T07:51:53.996Z</time>
      </trkpt>
      <trkpt lat="48.70345" lon="2.52061">
        <ele>54</ele>
        <time>2022-10-26T07:51:58.978Z</time>
      </trkpt>
      <trkpt lat="48.70352" lon="2.52065">
        <ele>56</ele>
        <time>2022-10-26T07:52:03.977Z</time>
      </trkpt>
      <trkpt lat="48.70357" lon="2.52071">
        <ele>54</ele>
        <time>2022-10-26T07:52:08.986Z</time>
      </trkpt>
      <trkpt lat="48.70362" lon="2.52073">
        <ele>54</ele>
        <time>2022-10-26T07:52:13.977Z</time>
      </trkpt>
      <trkpt lat="48.70364" lon="2.52076">
        <ele>54</ele>
        <time>2022-10-26T07:52:17.998Z</time>
      </trkpt>
      <trkpt lat="48.70368" lon="2.52085">
        <ele>54</ele>
        <time>2022-10-26T07:52:22.977Z</time>
      </trkpt>
      <trkpt lat="48.70373" lon="2.52091">
        <ele>54</ele>
        <time>2022-10-26T07:52:27.983Z</time>
      </trkpt>
      <trkpt lat="48.70378" lon="2.52094">
        <ele>57</ele>
        <time>2022-10-26T07:52:32.987Z</time>
      </trkpt>
      <trkpt lat="48.70382" lon="2.52095">
        <ele>57</ele>
        <time>2022-10-26T07:52:36.996Z</time>
      </trkpt>
      <trkpt lat="48.70387" lon="2.52099">
        <ele>54</ele>
        <time>2022-10-26T07:52:41.991Z</time>
      </trkpt>
      <trkpt lat="48.70391" lon="2.52104">
        <ele>54</ele>
        <time>2022-10-26T07:52:46.005Z</time>
      </trkpt>
      <trkpt lat="48.70396" lon="2.52105">
        <ele>54</ele>
        <time>2022-10-26T07:52:49.986Z</time>
      </trkpt>
      <trkpt lat="48.70402" lon="2.52109">
        <ele>54</ele>
        <time>2022-10-26T07:52:55Z</time>
      </trkpt>
      <trkpt lat="48.70408" lon="2.52109">
        <ele>56</ele>
        <time>2022-10-26T07:52:59.984Z</time>
      </trkpt>
      <trkpt lat="48.70414" lon="2.52113">
        <ele>56</ele>
        <time>2022-10-26T07:53:05.001Z</time>
      </trkpt>
      <trkpt lat="48.70418" lon="2.52117">
        <ele>56</ele>
        <time>2022-10-26T07:53:10Z</time>
      </trkpt>
      <trkpt lat="48.70421" lon="2.52117">
        <ele>56</ele>
        <time>2022-10-26T07:53:14.980Z</time>
      </trkpt>
      <trkpt lat="48.70427" lon="2.52117">
        <ele>56</ele>
        <time>2022-10-26T07:53:19.982Z</time>
      </trkpt>
      <trkpt lat="48.70433" lon="2.52119">
        <ele>60</ele>
        <time>2022-10-26T07:53:24.982Z</time>
      </trkpt>
      <trkpt lat="48.70439" lon="2.52119">
        <ele>60</ele>
        <time>2022-10-26T07:53:29.985Z</time>
      </trkpt>
      <trkpt lat="48.70445" lon="2.52119">
        <ele>60</ele>
        <time>2022-10-26T07:53:34.978Z</time>
      </trkpt>
      <trkpt lat="48.70448" lon="2.52119">
        <ele>60</ele>
        <time>2022-10-26T07:53:38.999Z</time>
      </trkpt>
      <trkpt lat="48.70454" lon="2.52116">
        <ele>60</ele>
        <time>2022-10-26T07:53:42.998Z</time>
      </trkpt>
      <trkpt lat="48.70459" lon="2.5212">
        <ele>64</ele>
        <time>2022-10-26T07:53:47.987Z</time>
      </trkpt>
      <trkpt lat="48.70463" lon="2.52122">
        <ele>64</ele>
        <time>2022-10-26T07:53:52.985Z</time>
      </trkpt>
      <trkpt lat="48.7047" lon="2.52123">
        <ele>64</ele>
        <time>2022-10-26T07:53:57.988Z</time>
      </trkpt>
      <trkpt lat="48.70476" lon="2.5212">
        <ele>64</ele>
        <time>2022-10-26T07:54:02Z</time>
      </trkpt>
      <trkpt lat="48.70482" lon="2.5212">
        <ele>64</ele>
        <time>2022-10-26T07:54:07Z</time>
      </trkpt>
      <trkpt lat="48.70488" lon="2.52123">
        <ele>66</ele>
        <time>2022-10-26T07:54:12.008Z</time>
      </trkpt>
      <trkpt lat="48.70496" lon="2.52122">
        <ele>66</ele>
        <time>2022-10-26T07:54:16.988Z</time>
      </trkpt>
      <trkpt lat="48.70502" lon="2.52117">
        <ele>66</ele>
        <time>2022-10-26T07:54:21.996Z</time>
      </trkpt>
      <trkpt lat="48.70508" lon="2.52116">
        <ele>66</ele>
        <time>2022-10-26T07:54:26.983Z</time>
      </trkpt>
      <trkpt lat="48.70511" lon="2.52116">
        <ele>66</ele>
        <time>2022-10-26T07:54:30.995Z</time>
      </trkpt>
      <trkpt lat="48.70517" lon="2.52122">
        <ele>67</ele>
        <time>2022-10-26T07:54:35.991Z</time>
      </trkpt>
      <trkpt lat="48.70525" lon="2.52125">
        <ele>67</ele>
        <time>2022-10-26T07:54:40.969Z</time>
      </trkpt>
      <trkpt lat="48.70529" lon="2.52129">
        <ele>65</ele>
        <time>2022-10-26T07:54:45.999Z</time>
      </trkpt>
      <trkpt lat="48.70529" lon="2.52139">
        <ele>65</ele>
        <time>2022-10-26T07:54:50.988Z</time>
      </trkpt>
      <trkpt lat="48.70531" lon="2.52156">
        <ele>61</ele>
        <time>2022-10-26T07:54:54.987Z</time>
      </trkpt>
      <trkpt lat="48.70528" lon="2.5217">
        <ele>61</ele>
        <time>2022-10-26T07:54:59.997Z</time>
      </trkpt>
      <trkpt lat="48.7052" lon="2.5218">
        <ele>61</ele>
        <time>2022-10-26T07:55:04.987Z</time>
      </trkpt>
      <trkpt lat="48.70521" lon="2.52183">
        <ele>57</ele>
        <time>2022-10-26T07:55:09.994Z</time>
      </trkpt>
      <trkpt lat="48.70523" lon="2.52193">
        <ele>57</ele>
        <time>2022-10-26T07:55:14.989Z</time>
      </trkpt>
      <trkpt lat="48.70533" lon="2.522">
        <ele>57</ele>
        <time>2022-10-26T07:55:19.992Z</time>
      </trkpt>
      <trkpt lat="48.70538" lon="2.522">
        <ele>57</ele>
        <time>2022-10-26T07:55:23.988Z</time>
      </trkpt>
      <trkpt lat="48.70546" lon="2.5221">
        <ele>59</ele>
        <time>2022-10-26T07:55:28.985Z</time>
      </trkpt>
      <trkpt lat="48.70552" lon="2.52212">
        <ele>59</ele>
        <time>2022-10-26T07:55:33.987Z</time>
      </trkpt>
      <trkpt lat="48.70555" lon="2.52211">
        <ele>59</ele>
        <time>2022-10-26T07:55:38.996Z</time>
      </trkpt>
      <trkpt lat="48.70557" lon="2.52211">
        <ele>59</ele>
        <time>2022-10-26T07:55:43.990Z</time>
      </trkpt>
      <trkpt lat="48.70561" lon="2.52215">
        <ele>59</ele>
        <time>2022-10-26T07:55:48.988Z</time>
      </trkpt>
      <trkpt lat="48.70573" lon="2.52222">
        <ele>66</ele>
        <time>2022-10-26T07:55:52.986Z</time>
      </trkpt>
      <trkpt lat="48.70578" lon="2.52223">
        <ele>66</ele>
        <time>2022-10-26T07:55:57.994Z</time>
      </trkpt>
      <trkpt lat="48.70585" lon="2.52231">
        <ele>66</ele>
        <time>2022-10-26T07:56:02.984Z</time>
      </trkpt>
      <trkpt lat="48.70593" lon="2.52231">
        <ele>66</ele>
        <time>2022-10-26T07:56:07.981Z</time>
      </trkpt>
      <trkpt lat="48.7059" lon="2.52241">
        <ele>64</ele>
        <time>2022-10-26T07:56:12.990Z</time>
      </trkpt>
      <trkpt lat="48.70588" lon="2.52258">
        <ele>64</ele>
        <time>2022-10-26T07:56:17.989Z</time>
      </trkpt>
      <trkpt lat="48.70585" lon="2.52265">
        <ele>63</ele>
        <time>2022-10-26T07:56:22.999Z</time>
      </trkpt>
      <trkpt lat="48.70581" lon="2.52274">
        <ele>63</ele>
        <time>2022-10-26T07:56:27.990Z</time>
      </trkpt>
      <trkpt lat="48.70581" lon="2.52284">
        <ele>63</ele>
        <time>2022-10-26T07:56:32.997Z</time>
      </trkpt>
      <trkpt lat="48.70583" lon="2.52294">
        <ele>62</ele>
        <time>2022-10-26T07:56:37.974Z</time>
      </trkpt>
      <trkpt lat="48.70582" lon="2.52301">
        <ele>62</ele>
        <time>2022-10-26T07:56:42.991Z</time>
      </trkpt>
      <trkpt lat="48.70585" lon="2.52313">
        <ele>62</ele>
        <time>2022-10-26T07:56:47.985Z</time>
      </trkpt>
      <trkpt lat="48.70591" lon="2.52322">
        <ele>60</ele>
        <time>2022-10-26T07:56:51.988Z</time>
      </trkpt>
      <trkpt lat="48.70596" lon="2.52333">
        <ele>60</ele>
        <time>2022-10-26T07:56:56.988Z</time>
      </trkpt>
      <trkpt lat="48.706" lon="2.52344">
        <ele>66</ele>
        <time>2022-10-26T07:57:00.991Z</time>
      </trkpt>
      <trkpt lat="48.7061" lon="2.52358">
        <ele>64</ele>
        <time>2022-10-26T07:57:05.989Z</time>
      </trkpt>
      <trkpt lat="48.70615" lon="2.52366">
        <ele>64</ele>
        <time>2022-10-26T07:57:10.997Z</time>
      </trkpt>
      <trkpt lat="48.70619" lon="2.52373">
        <ele>64</ele>
        <time>2022-10-26T07:57:14.983Z</time>
      </trkpt>
      <trkpt lat="48.70617" lon="2.52382">
        <ele>63</ele>
        <time>2022-10-26T07:57:19.983Z</time>
      </trkpt>
      <trkpt lat="48.70608" lon="2.5239">
        <ele>63</ele>
        <time>2022-10-26T07:57:24.981Z</time>
      </trkpt>
      <trkpt lat="48.70607" lon="2.52401">
        <ele>63</ele>
        <time>2022-10-26T07:57:29.969Z</time>
      </trkpt>
      <trkpt lat="48.70606" lon="2.52411">
        <ele>63</ele>
        <time>2022-10-26T07:57:33.982Z</time>
      </trkpt>
      <trkpt lat="48.70604" lon="2.52418">
        <ele>63</ele>
        <time>2022-10-26T07:57:38.989Z</time>
      </trkpt>
      <trkpt lat="48.70602" lon="2.52426">
        <ele>63</ele>
        <time>2022-10-26T07:57:43.984Z</time>
      </trkpt>
      <trkpt lat="48.70601" lon="2.52434">
        <ele>65</ele>
        <time>2022-10-26T07:57:48.984Z</time>
      </trkpt>
      <trkpt lat="48.70599" lon="2.52442">
        <ele>65</ele>
        <time>2022-10-26T07:57:52.984Z</time>
      </trkpt>
      <trkpt lat="48.70603" lon="2.52446">
        <ele>65</ele>
        <time>2022-10-26T07:57:57.981Z</time>
      </trkpt>
      <trkpt lat="48.70604" lon="2.52453">
        <ele>65</ele>
        <time>2022-10-26T07:58:02.980Z</time>
      </trkpt>
      <trkpt lat="48.70605" lon="2.52463">
        <ele>66</ele>
        <time>2022-10-26T07:58:07.983Z</time>
      </trkpt>
      <trkpt lat="48.70599" lon="2.52468">
        <ele>66</ele>
        <time>2022-10-26T07:58:12.988Z</time>
      </trkpt>
      <trkpt lat="48.70596" lon="2.52476">
        <ele>58</ele>
        <time>2022-10-26T07:58:17.983Z</time>
      </trkpt>
      <trkpt lat="48.70594" lon="2.52481">
        <ele>58</ele>
        <time>2022-10-26T07:58:21.999Z</time>
      </trkpt>
      <trkpt lat="48.70595" lon="2.52485">
        <ele>58</ele>
        <time>2022-10-26T07:58:26.992Z</time>
      </trkpt>
      <trkpt lat="48.70594" lon="2.5249">
        <ele>59</ele>
        <time>2022-10-26T07:58:31.997Z</time>
      </trkpt>
      <trkpt lat="48.70596" lon="2.52498">
        <ele>59</ele>
        <time>2022-10-26T07:58:36.981Z</time>
      </trkpt>
      <trkpt lat="48.70597" lon="2.52504">
        <ele>59</ele>
        <time>2022-10-26T07:58:40.990Z</time>
      </trkpt>
      <trkpt lat="48.70594" lon="2.52517">
        <ele>59</ele>
        <time>2022-10-26T07:58:45.978Z</time>
      </trkpt>
      <trkpt lat="48.70591" lon="2.52526">
        <ele>59</ele>
        <time>2022-10-26T07:58:50.992Z</time>
      </trkpt>
      <trkpt lat="48.7059" lon="2.52533">
        <ele>59</ele>
        <time>2022-10-26T07:58:55.008Z</time>
      </trkpt>
      <trkpt lat="48.7059" lon="2.52537">
        <ele>59</ele>
        <time>2022-10-26T07:58:58.004Z</time>
      </trkpt>
      <trkpt lat="48.70587" lon="2.52553">
        <ele>59</ele>
        <time>2022-10-26T07:59:04.981Z</time>
      </trkpt>
      <trkpt lat="48.70583" lon="2.52562">
        <ele>59</ele>
        <time>2022-10-26T07:59:10.001Z</time>
      </trkpt>
      <trkpt lat="48.70582" lon="2.52568">
        <ele>59</ele>
        <time>2022-10-26T07:59:14.990Z</time>
      </trkpt>
      <trkpt lat="48.7058" lon="2.52574">
        <ele>60</ele>
        <time>2022-10-26T07:59:19.982Z</time>
      </trkpt>
      <trkpt lat="48.70577" lon="2.52584">
        <ele>60</ele>
        <time>2022-10-26T07:59:24.997Z</time>
      </trkpt>
      <trkpt lat="48.70574" lon="2.52594">
        <ele>60</ele>
        <time>2022-10-26T07:59:29.989Z</time>
      </trkpt>
      <trkpt lat="48.70571" lon="2.52606">
        <ele>61</ele>
        <time>2022-10-26T07:59:35.002Z</time>
      </trkpt>
      <trkpt lat="48.70568" lon="2.52615">
        <ele>54</ele>
        <time>2022-10-26T07:59:40.008Z</time>
      </trkpt>
      <trkpt lat="48.70565" lon="2.52621">
        <ele>54</ele>
        <time>2022-10-26T07:59:44.028Z</time>
      </trkpt>
      <trkpt lat="48.70562" lon="2.52626">
        <ele>56</ele>
        <time>2022-10-26T07:59:48.029Z</time>
      </trkpt>
      <trkpt lat="48.70561" lon="2.52635">
        <ele>56</ele>
        <time>2022-10-26T07:59:53.005Z</time>
      </trkpt>
      <trkpt lat="48.7056" lon="2.52643">
        <ele>56</ele>
        <time>2022-10-26T07:59:58.012Z</time>
      </trkpt>
      <trkpt lat="48.70559" lon="2.52649">
        <ele>56</ele>
        <time>2022-10-26T08:00:02.021Z</time>
      </trkpt>
      <trkpt lat="48.70556" lon="2.52656">
        <ele>59</ele>
        <time>2022-10-26T08:00:07.018Z</time>
      </trkpt>
      <trkpt lat="48.70552" lon="2.52663">
        <ele>59</ele>
        <time>2022-10-26T08:00:12.024Z</time>
      </trkpt>
      <trkpt lat="48.70549" lon="2.5267">
        <ele>59</ele>
        <time>2022-10-26T08:00:17.021Z</time>
      </trkpt>
      <trkpt lat="48.70547" lon="2.52676">
        <ele>59</ele>
        <time>2022-10-26T08:00:22.025Z</time>
      </trkpt>
      <trkpt lat="48.70545" lon="2.52679">
        <ele>59</ele>
        <time>2022-10-26T08:00:26.030Z</time>
      </trkpt>
      <trkpt lat="48.70545" lon="2.52691">
        <ele>63</ele>
        <time>2022-10-26T08:00:53.036Z</time>
      </trkpt>
      <trkpt lat="48.70545" lon="2.52694">
        <ele>63</ele>
        <time>2022-10-26T08:00:58.029Z</time>
      </trkpt>
      <trkpt lat="48.70544" lon="2.52695">
        <ele>63</ele>
        <time>2022-10-26T08:01:07.022Z</time>
      </trkpt>
      <trkpt lat="48.70543" lon="2.52696">
        <ele>63</ele>
        <time>2022-10-26T08:01:11.995Z</time>
      </trkpt>
      <trkpt lat="48.70543" lon="2.52696">
        <ele>63</ele>
        <time>2022-10-26T08:01:17.005Z</time>
      </trkpt>
      <trkpt lat="48.70542" lon="2.52701">
        <ele>53</ele>
        <time>2022-10-26T08:01:27.009Z</time>
      </trkpt>
      <trkpt lat="48.7054" lon="2.52708">
        <ele>53</ele>
        <time>2022-10-26T08:01:32.023Z</time>
      </trkpt>
      <trkpt lat="48.70538" lon="2.52712">
        <ele>58</ele>
        <time>2022-10-26T08:01:37.012Z</time>
      </trkpt>
      <trkpt lat="48.70536" lon="2.5272">
        <ele>58</ele>
        <time>2022-10-26T08:01:42.015Z</time>
      </trkpt>
      <trkpt lat="48.70534" lon="2.52728">
        <ele>58</ele>
        <time>2022-10-26T08:01:47.021Z</time>
      </trkpt>
      <trkpt lat="48.70532" lon="2.52736">
        <ele>61</ele>
        <time>2022-10-26T08:01:52.037Z</time>
      </trkpt>
      <trkpt lat="48.7053" lon="2.52743">
        <ele>61</ele>
        <time>2022-10-26T08:01:57.017Z</time>
      </trkpt>
      <trkpt lat="48.70527" lon="2.52748">
        <ele>61</ele>
        <time>2022-10-26T08:02:01.997Z</time>
      </trkpt>
      <trkpt lat="48.70523" lon="2.52759">
        <ele>61</ele>
        <time>2022-10-26T08:02:11.029Z</time>
      </trkpt>
      <trkpt lat="48.7052" lon="2.52763">
        <ele>61</ele>
        <time>2022-10-26T08:02:15.999Z</time>
      </trkpt>
      <trkpt lat="48.70519" lon="2.52763">
        <ele>61</ele>
        <time>2022-10-26T08:02:20.039Z</time>
      </trkpt>
      <trkpt lat="48.70518" lon="2.52764">
        <ele>65</ele>
        <time>2022-10-26T08:02:25.006Z</time>
      </trkpt>
      <trkpt lat="48.70515" lon="2.52769">
        <ele>65</ele>
        <time>2022-10-26T08:02:30.016Z</time>
      </trkpt>
      <trkpt lat="48.70514" lon="2.52775">
        <ele>58</ele>
        <time>2022-10-26T08:03:42.998Z</time>
      </trkpt>
      <trkpt lat="48.70509" lon="2.52779">
        <ele>58</ele>
        <time>2022-10-26T08:03:48.009Z</time>
      </trkpt>
      <trkpt lat="48.70507" lon="2.52786">
        <ele>58</ele>
        <time>2022-10-26T08:03:53Z</time>
      </trkpt>
      <trkpt lat="48.70502" lon="2.5279">
        <ele>58</ele>
        <time>2022-10-26T08:03:58.015Z</time>
      </trkpt>
      <trkpt lat="48.70501" lon="2.52794">
        <ele>62</ele>
        <time>2022-10-26T08:04:02.013Z</time>
      </trkpt>
      <trkpt lat="48.705" lon="2.528">
        <ele>62</ele>
        <time>2022-10-26T08:04:07.006Z</time>
      </trkpt>
      <trkpt lat="48.70505" lon="2.52807">
        <ele>62</ele>
        <time>2022-10-26T08:04:11.029Z</time>
      </trkpt>
      <trkpt lat="48.70509" lon="2.52813">
        <ele>62</ele>
        <time>2022-10-26T08:04:16.022Z</time>
      </trkpt>
      <trkpt lat="48.70513" lon="2.52818">
        <ele>62</ele>
        <time>2022-10-26T08:04:20.037Z</time>
      </trkpt>
      <trkpt lat="48.7052" lon="2.52827">
        <ele>70</ele>
        <time>2022-10-26T08:04:30.017Z</time>
      </trkpt>
      <trkpt lat="48.70521" lon="2.52832">
        <ele>70</ele>
        <time>2022-10-26T08:04:35.017Z</time>
      </trkpt>
      <trkpt lat="48.70521" lon="2.52833">
        <ele>70</ele>
        <time>2022-10-26T08:04:40.028Z</time>
      </trkpt>
      <trkpt lat="48.70522" lon="2.52834">
        <ele>70</ele>
        <time>2022-10-26T08:04:45.030Z</time>
      </trkpt>
      <trkpt lat="48.70523" lon="2.52837">
        <ele>70</ele>
        <time>2022-10-26T08:04:50.015Z</time>
      </trkpt>
      <trkpt lat="48.70524" lon="2.52839">
        <ele>70</ele>
        <time>2022-10-26T08:05:54.033Z</time>
      </trkpt>
      <trkpt lat="48.70524" lon="2.5284">
        <ele>70</ele>
        <time>2022-10-26T08:06:09.002Z</time>
      </trkpt>
      <trkpt lat="48.70525" lon="2.52845">
        <ele>70</ele>
        <time>2022-10-26T08:06:14.022Z</time>
      </trkpt>
      <trkpt lat="48.70525" lon="2.5285">
        <ele>71</ele>
        <time>2022-10-26T08:06:19.023Z</time>
      </trkpt>
      <trkpt lat="48.70525" lon="2.52857">
        <ele>71</ele>
        <time>2022-10-26T08:06:24.013Z</time>
      </trkpt>
      <trkpt lat="48.70525" lon="2.52861">
        <ele>71</ele>
        <time>2022-10-26T08:06:28.013Z</time>
      </trkpt>
      <trkpt lat="48.70526" lon="2.52868">
        <ele>71</ele>
        <time>2022-10-26T08:06:33.002Z</time>
      </trkpt>
      <trkpt lat="48.70527" lon="2.52875">
        <ele>73</ele>
        <time>2022-10-26T08:06:38.020Z</time>
      </trkpt>
      <trkpt lat="48.70528" lon="2.52883">
        <ele>73</ele>
        <time>2022-10-26T08:06:42.992Z</time>
      </trkpt>
      <trkpt lat="48.70526" lon="2.5289">
        <ele>73</ele>
        <time>2022-10-26T08:06:48.017Z</time>
      </trkpt>
      <trkpt lat="48.70525" lon="2.52894">
        <ele>73</ele>
        <time>2022-10-26T08:06:53.018Z</time>
      </trkpt>
      <trkpt lat="48.70525" lon="2.52897">
        <ele>73</ele>
        <time>2022-10-26T08:06:57Z</time>
      </trkpt>
      <trkpt lat="48.70522" lon="2.52903">
        <ele>73</ele>
        <time>2022-10-26T08:07:02.010Z</time>
      </trkpt>
      <trkpt lat="48.70521" lon="2.52908">
        <ele>75</ele>
        <time>2022-10-26T08:07:07.014Z</time>
      </trkpt>
      <trkpt lat="48.70518" lon="2.5291">
        <ele>75</ele>
        <time>2022-10-26T08:07:12.008Z</time>
      </trkpt>
      <trkpt lat="48.70516" lon="2.52913">
        <ele>75</ele>
        <time>2022-10-26T08:07:17.017Z</time>
      </trkpt>
      <trkpt lat="48.70513" lon="2.52915">
        <ele>72</ele>
        <time>2022-10-26T08:07:22.009Z</time>
      </trkpt>
      <trkpt lat="48.70509" lon="2.52919">
        <ele>72</ele>
        <time>2022-10-26T08:07:27.001Z</time>
      </trkpt>
      <trkpt lat="48.70506" lon="2.52923">
        <ele>72</ele>
        <time>2022-10-26T08:07:31.023Z</time>
      </trkpt>
      <trkpt lat="48.70499" lon="2.52928">
        <ele>72</ele>
        <time>2022-10-26T08:07:36.005Z</time>
      </trkpt>
      <trkpt lat="48.70494" lon="2.52934">
        <ele>75</ele>
        <time>2022-10-26T08:07:41.007Z</time>
      </trkpt>
      <trkpt lat="48.70491" lon="2.52942">
        <ele>75</ele>
        <time>2022-10-26T08:07:46.011Z</time>
      </trkpt>
      <trkpt lat="48.70488" lon="2.5295">
        <ele>75</ele>
        <time>2022-10-26T08:07:51.007Z</time>
      </trkpt>
      <trkpt lat="48.70485" lon="2.52956">
        <ele>69</ele>
        <time>2022-10-26T08:07:56.019Z</time>
      </trkpt>
      <trkpt lat="48.70483" lon="2.52961">
        <ele>71</ele>
        <time>2022-10-26T08:08:01.025Z</time>
      </trkpt>
      <trkpt lat="48.70478" lon="2.52971">
        <ele>71</ele>
        <time>2022-10-26T08:08:06.035Z</time>
      </trkpt>
      <trkpt lat="48.70474" lon="2.52978">
        <ele>71</ele>
        <time>2022-10-26T08:08:11.031Z</time>
      </trkpt>
      <trkpt lat="48.70471" lon="2.52985">
        <ele>71</ele>
        <time>2022-10-26T08:08:16.015Z</time>
      </trkpt>
      <trkpt lat="48.70469" lon="2.52992">
        <ele>72</ele>
        <time>2022-10-26T08:08:20.032Z</time>
      </trkpt>
      <trkpt lat="48.70466" lon="2.52998">
        <ele>72</ele>
        <time>2022-10-26T08:08:24.027Z</time>
      </trkpt>
      <trkpt lat="48.70461" lon="2.53007">
        <ele>72</ele>
        <time>2022-10-26T08:08:29.027Z</time>
      </trkpt>
      <trkpt lat="48.70457" lon="2.53014">
        <ele>71</ele>
        <time>2022-10-26T08:08:34.005Z</time>
      </trkpt>
      <trkpt lat="48.70454" lon="2.53021">
        <ele>71</ele>
        <time>2022-10-26T08:08:39.026Z</time>
      </trkpt>
      <trkpt lat="48.7045" lon="2.53029">
        <ele>71</ele>
        <time>2022-10-26T08:08:44.034Z</time>
      </trkpt>
      <trkpt lat="48.70446" lon="2.53035">
        <ele>71</ele>
        <time>2022-10-26T08:08:49.008Z</time>
      </trkpt>
      <trkpt lat="48.70442" lon="2.53042">
        <ele>71</ele>
        <time>2022-10-26T08:08:54.017Z</time>
      </trkpt>
      <trkpt lat="48.70438" lon="2.53048">
        <ele>72</ele>
        <time>2022-10-26T08:08:59.006Z</time>
      </trkpt>
      <trkpt lat="48.70435" lon="2.53055">
        <ele>72</ele>
        <time>2022-10-26T08:09:04.014Z</time>
      </trkpt>
      <trkpt lat="48.70432" lon="2.53061">
        <ele>72</ele>
        <time>2022-10-26T08:09:08.032Z</time>
      </trkpt>
      <trkpt lat="48.70427" lon="2.53069">
        <ele>69</ele>
        <time>2022-10-26T08:09:13.025Z</time>
      </trkpt>
      <trkpt lat="48.70424" lon="2.53075">
        <ele>71</ele>
        <time>2022-10-26T08:09:18.046Z</time>
      </trkpt>
      <trkpt lat="48.70418" lon="2.5308">
        <ele>71</ele>
        <time>2022-10-26T08:09:23.021Z</time>
      </trkpt>
      <trkpt lat="48.70412" lon="2.53087">
        <ele>71</ele>
        <time>2022-10-26T08:09:28Z</time>
      </trkpt>
      <trkpt lat="48.70406" lon="2.53093">
        <ele>71</ele>
        <time>2022-10-26T08:09:33.014Z</time>
      </trkpt>
      <trkpt lat="48.70402" lon="2.53099">
        <ele>72</ele>
        <time>2022-10-26T08:09:38.007Z</time>
      </trkpt>
      <trkpt lat="48.70398" lon="2.53103">
        <ele>72</ele>
        <time>2022-10-26T08:09:42.030Z</time>
      </trkpt>
      <trkpt lat="48.70393" lon="2.53106">
        <ele>72</ele>
        <time>2022-10-26T08:09:46.033Z</time>
      </trkpt>
      <trkpt lat="48.70387" lon="2.5311">
        <ele>72</ele>
        <time>2022-10-26T08:09:51.016Z</time>
      </trkpt>
      <trkpt lat="48.70381" lon="2.53113">
        <ele>72</ele>
        <time>2022-10-26T08:09:56.017Z</time>
      </trkpt>
      <trkpt lat="48.70375" lon="2.53116">
        <ele>69</ele>
        <time>2022-10-26T08:10:01.015Z</time>
      </trkpt>
      <trkpt lat="48.70369" lon="2.53119">
        <ele>69</ele>
        <time>2022-10-26T08:10:06.024Z</time>
      </trkpt>
      <trkpt lat="48.70364" lon="2.53123">
        <ele>69</ele>
        <time>2022-10-26T08:10:11.022Z</time>
      </trkpt>
      <trkpt lat="48.70359" lon="2.53126">
        <ele>71</ele>
        <time>2022-10-26T08:10:15.006Z</time>
      </trkpt>
      <trkpt lat="48.70353" lon="2.53128">
        <ele>71</ele>
        <time>2022-10-26T08:10:20.006Z</time>
      </trkpt>
      <trkpt lat="48.70348" lon="2.53131">
        <ele>71</ele>
        <time>2022-10-26T08:10:24.028Z</time>
      </trkpt>
      <trkpt lat="48.70342" lon="2.53133">
        <ele>69</ele>
        <time>2022-10-26T08:10:29.023Z</time>
      </trkpt>
      <trkpt lat="48.70337" lon="2.53135">
        <ele>69</ele>
        <time>2022-10-26T08:10:34.020Z</time>
      </trkpt>
      <trkpt lat="48.7033" lon="2.53138">
        <ele>69</ele>
        <time>2022-10-26T08:10:39.027Z</time>
      </trkpt>
      <trkpt lat="48.70326" lon="2.53142">
        <ele>69</ele>
        <time>2022-10-26T08:10:44.025Z</time>
      </trkpt>
      <trkpt lat="48.70322" lon="2.53146">
        <ele>69</ele>
        <time>2022-10-26T08:10:48.030Z</time>
      </trkpt>
      <trkpt lat="48.70317" lon="2.53153">
        <ele>67</ele>
        <time>2022-10-26T08:10:53.009Z</time>
      </trkpt>
      <trkpt lat="48.70314" lon="2.53158">
        <ele>68</ele>
        <time>2022-10-26T08:10:58.004Z</time>
      </trkpt>
      <trkpt lat="48.7031" lon="2.53165">
        <ele>68</ele>
        <time>2022-10-26T08:11:03.023Z</time>
      </trkpt>
      <trkpt lat="48.70305" lon="2.53175">
        <ele>68</ele>
        <time>2022-10-26T08:11:08.017Z</time>
      </trkpt>
      <trkpt lat="48.70302" lon="2.5318">
        <ele>68</ele>
        <time>2022-10-26T08:11:13.035Z</time>
      </trkpt>
      <trkpt lat="48.70295" lon="2.53188">
        <ele>69</ele>
        <time>2022-10-26T08:11:18.024Z</time>
      </trkpt>
      <trkpt lat="48.70289" lon="2.53198">
        <ele>65</ele>
        <time>2022-10-26T08:11:23.019Z</time>
      </trkpt>
      <trkpt lat="48.70285" lon="2.53204">
        <ele>65</ele>
        <time>2022-10-26T08:11:28.016Z</time>
      </trkpt>
      <trkpt lat="48.70281" lon="2.53209">
        <ele>67</ele>
        <time>2022-10-26T08:11:33.012Z</time>
      </trkpt>
      <trkpt lat="48.70277" lon="2.53216">
        <ele>67</ele>
        <time>2022-10-26T08:11:38.002Z</time>
      </trkpt>
      <trkpt lat="48.70272" lon="2.53225">
        <ele>67</ele>
        <time>2022-10-26T08:11:43.031Z</time>
      </trkpt>
      <trkpt lat="48.70267" lon="2.53231">
        <ele>67</ele>
        <time>2022-10-26T08:11:48.020Z</time>
      </trkpt>
      <trkpt lat="48.70262" lon="2.53237">
        <ele>67</ele>
        <time>2022-10-26T08:11:53.020Z</time>
      </trkpt>
      <trkpt lat="48.70257" lon="2.53244">
        <ele>67</ele>
        <time>2022-10-26T08:11:58.024Z</time>
      </trkpt>
      <trkpt lat="48.70252" lon="2.53252">
        <ele>67</ele>
        <time>2022-10-26T08:12:03.017Z</time>
      </trkpt>
      <trkpt lat="48.7025" lon="2.53257">
        <ele>67</ele>
        <time>2022-10-26T08:12:08.035Z</time>
      </trkpt>
      <trkpt lat="48.70244" lon="2.53264">
        <ele>67</ele>
        <time>2022-10-26T08:12:13.015Z</time>
      </trkpt>
      <trkpt lat="48.7024" lon="2.5327">
        <ele>68</ele>
        <time>2022-10-26T08:12:18.005Z</time>
      </trkpt>
      <trkpt lat="48.70236" lon="2.53275">
        <ele>66</ele>
        <time>2022-10-26T08:12:23.029Z</time>
      </trkpt>
      <trkpt lat="48.70232" lon="2.53283">
        <ele>66</ele>
        <time>2022-10-26T08:12:28.022Z</time>
      </trkpt>
      <trkpt lat="48.70228" lon="2.53289">
        <ele>66</ele>
        <time>2022-10-26T08:12:33.007Z</time>
      </trkpt>
      <trkpt lat="48.70223" lon="2.53296">
        <ele>68</ele>
        <time>2022-10-26T08:12:37.999Z</time>
      </trkpt>
      <trkpt lat="48.70217" lon="2.53301">
        <ele>68</ele>
        <time>2022-10-26T08:12:43.018Z</time>
      </trkpt>
      <trkpt lat="48.70213" lon="2.53306">
        <ele>68</ele>
        <time>2022-10-26T08:12:48.014Z</time>
      </trkpt>
      <trkpt lat="48.70208" lon="2.53308">
        <ele>68</ele>
        <time>2022-10-26T08:12:52.025Z</time>
      </trkpt>
      <trkpt lat="48.70202" lon="2.5331">
        <ele>66</ele>
        <time>2022-10-26T08:12:57Z</time>
      </trkpt>
      <trkpt lat="48.70196" lon="2.5331">
        <ele>66</ele>
        <time>2022-10-26T08:13:02.025Z</time>
      </trkpt>
      <trkpt lat="48.70191" lon="2.53311">
        <ele>66</ele>
        <time>2022-10-26T08:13:06.030Z</time>
      </trkpt>
      <trkpt lat="48.70188" lon="2.5331">
        <ele>66</ele>
        <time>2022-10-26T08:13:11.018Z</time>
      </trkpt>
      <trkpt lat="48.70186" lon="2.53305">
        <ele>66</ele>
        <time>2022-10-26T08:13:16.018Z</time>
      </trkpt>
      <trkpt lat="48.70185" lon="2.533">
        <ele>66</ele>
        <time>2022-10-26T08:13:20.007Z</time>
      </trkpt>
      <trkpt lat="48.70183" lon="2.53292">
        <ele>66</ele>
        <time>2022-10-26T08:13:25.019Z</time>
      </trkpt>
      <trkpt lat="48.70183" lon="2.53287">
        <ele>63</ele>
        <time>2022-10-26T08:13:29.026Z</time>
      </trkpt>
      <trkpt lat="48.70183" lon="2.5328">
        <ele>63</ele>
        <time>2022-10-26T08:13:34.007Z</time>
      </trkpt>
      <trkpt lat="48.70182" lon="2.53271">
        <ele>63</ele>
        <time>2022-10-26T08:13:39Z</time>
      </trkpt>
      <trkpt lat="48.7018" lon="2.53264">
        <ele>61</ele>
        <time>2022-10-26T08:13:44.006Z</time>
      </trkpt>
      <trkpt lat="48.70178" lon="2.53256">
        <ele>61</ele>
        <time>2022-10-26T08:13:49.030Z</time>
      </trkpt>
      <trkpt lat="48.70177" lon="2.53245">
        <ele>61</ele>
        <time>2022-10-26T08:13:54.017Z</time>
      </trkpt>
      <trkpt lat="48.70178" lon="2.53233">
        <ele>60</ele>
        <time>2022-10-26T08:13:59.010Z</time>
      </trkpt>
      <trkpt lat="48.7018" lon="2.53225">
        <ele>60</ele>
        <time>2022-10-26T08:14:04.017Z</time>
      </trkpt>
      <trkpt lat="48.7018" lon="2.53218">
        <ele>60</ele>
        <time>2022-10-26T08:14:09.024Z</time>
      </trkpt>
      <trkpt lat="48.7018" lon="2.53211">
        <ele>60</ele>
        <time>2022-10-26T08:14:13.998Z</time>
      </trkpt>
      <trkpt lat="48.70181" lon="2.53204">
        <ele>57</ele>
        <time>2022-10-26T08:14:23.077Z</time>
      </trkpt>
      <trkpt lat="48.70177" lon="2.53205">
        <ele>58</ele>
        <time>2022-10-26T08:14:33.018Z</time>
      </trkpt>
      <trkpt lat="48.70175" lon="2.532">
        <ele>58</ele>
        <time>2022-10-26T08:14:37.022Z</time>
      </trkpt>
      <trkpt lat="48.70174" lon="2.53195">
        <ele>58</ele>
        <time>2022-10-26T08:14:42.015Z</time>
      </trkpt>
      <trkpt lat="48.70172" lon="2.53188">
        <ele>58</ele>
        <time>2022-10-26T08:14:47.008Z</time>
      </trkpt>
      <trkpt lat="48.70172" lon="2.53182">
        <ele>58</ele>
        <time>2022-10-26T08:14:52.017Z</time>
      </trkpt>
      <trkpt lat="48.70172" lon="2.53176">
        <ele>55</ele>
        <time>2022-10-26T08:14:56.023Z</time>
      </trkpt>
      <trkpt lat="48.7017" lon="2.5317">
        <ele>55</ele>
        <time>2022-10-26T08:15:01.008Z</time>
      </trkpt>
      <trkpt lat="48.70169" lon="2.53162">
        <ele>55</ele>
        <time>2022-10-26T08:15:06.007Z</time>
      </trkpt>
      <trkpt lat="48.70171" lon="2.53153">
        <ele>55</ele>
        <time>2022-10-26T08:15:11.006Z</time>
      </trkpt>
      <trkpt lat="48.70169" lon="2.53144">
        <ele>51</ele>
        <time>2022-10-26T08:15:16.007Z</time>
      </trkpt>
      <trkpt lat="48.70168" lon="2.53131">
        <ele>51</ele>
        <time>2022-10-26T08:15:21Z</time>
      </trkpt>
      <trkpt lat="48.70164" lon="2.53121">
        <ele>48</ele>
        <time>2022-10-26T08:15:26.007Z</time>
      </trkpt>
      <trkpt lat="48.70159" lon="2.53113">
        <ele>48</ele>
        <time>2022-10-26T08:15:30.998Z</time>
      </trkpt>
      <trkpt lat="48.70158" lon="2.53106">
        <ele>48</ele>
        <time>2022-10-26T08:15:36.025Z</time>
      </trkpt>
      <trkpt lat="48.70155" lon="2.53098">
        <ele>48</ele>
        <time>2022-10-26T08:15:41.016Z</time>
      </trkpt>
      <trkpt lat="48.70154" lon="2.53095">
        <ele>47</ele>
        <time>2022-10-26T08:15:46.010Z</time>
      </trkpt>
      <trkpt lat="48.70152" lon="2.53086">
        <ele>47</ele>
        <time>2022-10-26T08:15:50.038Z</time>
      </trkpt>
      <trkpt lat="48.70147" lon="2.53082">
        <ele>47</ele>
        <time>2022-10-26T08:15:55.029Z</time>
      </trkpt>
      <trkpt lat="48.70141" lon="2.53082">
        <ele>47</ele>
        <time>2022-10-26T08:16:00.011Z</time>
      </trkpt>
      <trkpt lat="48.70136" lon="2.53085">
        <ele>47</ele>
        <time>2022-10-26T08:16:04.009Z</time>
      </trkpt>
      <trkpt lat="48.7013" lon="2.53087">
        <ele>47</ele>
        <time>2022-10-26T08:28:30.093Z</time>
      </trkpt>
      <trkpt lat="48.70125" lon="2.53086">
        <ele>47</ele>
        <time>2022-10-26T08:28:35.031Z</time>
      </trkpt>
      <trkpt lat="48.70123" lon="2.53087">
        <ele>48</ele>
        <time>2022-10-26T08:28:40.020Z</time>
      </trkpt>
      <trkpt lat="48.70121" lon="2.53081">
        <ele>48</ele>
        <time>2022-10-26T08:28:45.034Z</time>
      </trkpt>
      <trkpt lat="48.70116" lon="2.53077">
        <ele>48</ele>
        <time>2022-10-26T08:28:50.039Z</time>
      </trkpt>
      <trkpt lat="48.70111" lon="2.53076">
        <ele>48</ele>
        <time>2022-10-26T08:28:55.028Z</time>
      </trkpt>
      <trkpt lat="48.70109" lon="2.53078">
        <ele>48</ele>
        <time>2022-10-26T08:29:00.155Z</time>
      </trkpt>
      <trkpt lat="48.70108" lon="2.53078">
        <ele>48</ele>
        <time>2022-10-26T08:29:05.033Z</time>
      </trkpt>
      <trkpt lat="48.70104" lon="2.53077">
        <ele>48</ele>
        <time>2022-10-26T08:29:09.027Z</time>
      </trkpt>
      <trkpt lat="48.701" lon="2.53077">
        <ele>48</ele>
        <time>2022-10-26T08:29:14.029Z</time>
      </trkpt>
      <trkpt lat="48.70097" lon="2.53076">
        <ele>49</ele>
        <time>2022-10-26T08:29:18.042Z</time>
      </trkpt>
      <trkpt lat="48.70091" lon="2.53079">
        <ele>49</ele>
        <time>2022-10-26T08:29:23.042Z</time>
      </trkpt>
      <trkpt lat="48.70088" lon="2.53081">
        <ele>49</ele>
        <time>2022-10-26T08:29:28.035Z</time>
      </trkpt>
      <trkpt lat="48.70086" lon="2.53089">
        <ele>49</ele>
        <time>2022-10-26T08:29:33.050Z</time>
      </trkpt>
      <trkpt lat="48.70084" lon="2.53096">
        <ele>49</ele>
        <time>2022-10-26T08:29:38.042Z</time>
      </trkpt>
      <trkpt lat="48.70081" lon="2.53101">
        <ele>51</ele>
        <time>2022-10-26T08:29:43.046Z</time>
      </trkpt>
      <trkpt lat="48.70077" lon="2.53102">
        <ele>51</ele>
        <time>2022-10-26T08:29:47.040Z</time>
      </trkpt>
      <trkpt lat="48.7007" lon="2.53102">
        <ele>51</ele>
        <time>2022-10-26T08:29:52.034Z</time>
      </trkpt>
      <trkpt lat="48.70066" lon="2.53103">
        <ele>50</ele>
        <time>2022-10-26T08:29:57.037Z</time>
      </trkpt>
      <trkpt lat="48.7006" lon="2.53108">
        <ele>50</ele>
        <time>2022-10-26T08:30:02.036Z</time>
      </trkpt>
      <trkpt lat="48.70052" lon="2.53109">
        <ele>50</ele>
        <time>2022-10-26T08:30:07.038Z</time>
      </trkpt>
      <trkpt lat="48.70046" lon="2.53111">
        <ele>50</ele>
        <time>2022-10-26T08:30:12.034Z</time>
      </trkpt>
      <trkpt lat="48.7004" lon="2.53114">
        <ele>47</ele>
        <time>2022-10-26T08:30:17.041Z</time>
      </trkpt>
      <trkpt lat="48.70034" lon="2.53116">
        <ele>47</ele>
        <time>2022-10-26T08:30:22.049Z</time>
      </trkpt>
      <trkpt lat="48.7003" lon="2.53116">
        <ele>47</ele>
        <time>2022-10-26T08:30:27.043Z</time>
      </trkpt>
      <trkpt lat="48.70025" lon="2.53114">
        <ele>47</ele>
        <time>2022-10-26T08:30:31.159Z</time>
      </trkpt>
      <trkpt lat="48.70021" lon="2.53108">
        <ele>47</ele>
        <time>2022-10-26T08:30:36.152Z</time>
      </trkpt>
      <trkpt lat="48.70016" lon="2.53104">
        <ele>47</ele>
        <time>2022-10-26T08:30:41.016Z</time>
      </trkpt>
      <trkpt lat="48.70013" lon="2.53105">
        <ele>44</ele>
        <time>2022-10-26T08:30:45.074Z</time>
      </trkpt>
      <trkpt lat="48.70009" lon="2.53112">
        <ele>44</ele>
        <time>2022-10-26T08:30:50.029Z</time>
      </trkpt>
      <trkpt lat="48.70004" lon="2.53114">
        <ele>44</ele>
        <time>2022-10-26T08:30:55.034Z</time>
      </trkpt>
      <trkpt lat="48.69997" lon="2.53117">
        <ele>44</ele>
        <time>2022-10-26T08:31:00.027Z</time>
      </trkpt>
      <trkpt lat="48.69992" lon="2.53121">
        <ele>44</ele>
        <time>2022-10-26T08:31:05.036Z</time>
      </trkpt>
      <trkpt lat="48.69987" lon="2.53126">
        <ele>46</ele>
        <time>2022-10-26T08:31:10.045Z</time>
      </trkpt>
      <trkpt lat="48.69981" lon="2.53128">
        <ele>46</ele>
        <time>2022-10-26T08:31:15.036Z</time>
      </trkpt>
      <trkpt lat="48.69974" lon="2.53134">
        <ele>46</ele>
        <time>2022-10-26T08:31:20.035Z</time>
      </trkpt>
      <trkpt lat="48.69969" lon="2.5314">
        <ele>46</ele>
        <time>2022-10-26T08:31:25.033Z</time>
      </trkpt>
      <trkpt lat="48.69964" lon="2.53145">
        <ele>46</ele>
        <time>2022-10-26T08:31:30.035Z</time>
      </trkpt>
      <trkpt lat="48.69959" lon="2.5315">
        <ele>46</ele>
        <time>2022-10-26T08:31:35.034Z</time>
      </trkpt>
      <trkpt lat="48.69954" lon="2.53156">
        <ele>47</ele>
        <time>2022-10-26T08:31:40.036Z</time>
      </trkpt>
      <trkpt lat="48.6995" lon="2.5316">
        <ele>47</ele>
        <time>2022-10-26T08:31:45.022Z</time>
      </trkpt>
      <trkpt lat="48.69948" lon="2.53163">
        <ele>47</ele>
        <time>2022-10-26T08:31:49.024Z</time>
      </trkpt>
      <trkpt lat="48.69945" lon="2.53168">
        <ele>47</ele>
        <time>2022-10-26T08:31:55.032Z</time>
      </trkpt>
      <trkpt lat="48.69942" lon="2.53171">
        <ele>47</ele>
        <time>2022-10-26T08:32:00.018Z</time>
      </trkpt>
      <trkpt lat="48.69937" lon="2.53175">
        <ele>47</ele>
        <time>2022-10-26T08:32:05.036Z</time>
      </trkpt>
      <trkpt lat="48.69932" lon="2.53181">
        <ele>48</ele>
        <time>2022-10-26T08:32:10.009Z</time>
      </trkpt>
      <trkpt lat="48.69925" lon="2.53188">
        <ele>48</ele>
        <time>2022-10-26T08:32:15.012Z</time>
      </trkpt>
      <trkpt lat="48.6992" lon="2.53192">
        <ele>48</ele>
        <time>2022-10-26T08:32:19.014Z</time>
      </trkpt>
      <trkpt lat="48.69914" lon="2.53195">
        <ele>48</ele>
        <time>2022-10-26T08:32:24.021Z</time>
      </trkpt>
      <trkpt lat="48.69908" lon="2.53199">
        <ele>48</ele>
        <time>2022-10-26T08:32:29.035Z</time>
      </trkpt>
      <trkpt lat="48.69902" lon="2.53203">
        <ele>46</ele>
        <time>2022-10-26T08:32:34.025Z</time>
      </trkpt>
      <trkpt lat="48.69897" lon="2.53204">
        <ele>46</ele>
        <time>2022-10-26T08:32:39.017Z</time>
      </trkpt>
      <trkpt lat="48.69891" lon="2.53203">
        <ele>46</ele>
        <time>2022-10-26T08:32:44.020Z</time>
      </trkpt>
      <trkpt lat="48.69884" lon="2.53204">
        <ele>46</ele>
        <time>2022-10-26T08:32:49.029Z</time>
      </trkpt>
      <trkpt lat="48.69878" lon="2.53205">
        <ele>46</ele>
        <time>2022-10-26T08:32:54.023Z</time>
      </trkpt>
      <trkpt lat="48.69874" lon="2.53209">
        <ele>49</ele>
        <time>2022-10-26T08:32:59.024Z</time>
      </trkpt>
      <trkpt lat="48.69867" lon="2.53214">
        <ele>49</ele>
        <time>2022-10-26T08:33:04.023Z</time>
      </trkpt>
      <trkpt lat="48.69866" lon="2.53223">
        <ele>49</ele>
        <time>2022-10-26T08:33:09.029Z</time>
      </trkpt>
      <trkpt lat="48.69865" lon="2.53229">
        <ele>49</ele>
        <time>2022-10-26T08:33:14.021Z</time>
      </trkpt>
      <trkpt lat="48.69862" lon="2.53233">
        <ele>49</ele>
        <time>2022-10-26T08:33:18.043Z</time>
      </trkpt>
      <trkpt lat="48.69862" lon="2.53239">
        <ele>52</ele>
        <time>2022-10-26T08:33:23.014Z</time>
      </trkpt>
      <trkpt lat="48.6986" lon="2.53245">
        <ele>52</ele>
        <time>2022-10-26T08:33:28.035Z</time>
      </trkpt>
      <trkpt lat="48.69856" lon="2.53249">
        <ele>52</ele>
        <time>2022-10-26T08:33:33.024Z</time>
      </trkpt>
      <trkpt lat="48.69851" lon="2.53254">
        <ele>52</ele>
        <time>2022-10-26T08:33:38.050Z</time>
      </trkpt>
      <trkpt lat="48.69847" lon="2.5326">
        <ele>50</ele>
        <time>2022-10-26T08:33:43.034Z</time>
      </trkpt>
      <trkpt lat="48.69844" lon="2.53265">
        <ele>54</ele>
        <time>2022-10-26T08:33:48.022Z</time>
      </trkpt>
      <trkpt lat="48.69841" lon="2.53271">
        <ele>54</ele>
        <time>2022-10-26T08:33:53.031Z</time>
      </trkpt>
      <trkpt lat="48.69838" lon="2.53275">
        <ele>54</ele>
        <time>2022-10-26T08:33:57.039Z</time>
      </trkpt>
      <trkpt lat="48.69836" lon="2.53281">
        <ele>54</ele>
        <time>2022-10-26T08:34:02.030Z</time>
      </trkpt>
      <trkpt lat="48.69833" lon="2.5329">
        <ele>54</ele>
        <time>2022-10-26T08:34:07.019Z</time>
      </trkpt>
      <trkpt lat="48.6983" lon="2.53294">
        <ele>59</ele>
        <time>2022-10-26T08:34:11.040Z</time>
      </trkpt>
      <trkpt lat="48.69825" lon="2.53298">
        <ele>59</ele>
        <time>2022-10-26T08:34:16.025Z</time>
      </trkpt>
      <trkpt lat="48.69819" lon="2.53302">
        <ele>59</ele>
        <time>2022-10-26T08:34:21.040Z</time>
      </trkpt>
      <trkpt lat="48.69814" lon="2.53302">
        <ele>59</ele>
        <time>2022-10-26T08:34:26.028Z</time>
      </trkpt>
      <trkpt lat="48.69808" lon="2.53304">
        <ele>59</ele>
        <time>2022-10-26T08:34:31.053Z</time>
      </trkpt>
      <trkpt lat="48.69804" lon="2.53309">
        <ele>59</ele>
        <time>2022-10-26T08:34:35.034Z</time>
      </trkpt>
      <trkpt lat="48.69799" lon="2.53315">
        <ele>59</ele>
        <time>2022-10-26T08:34:40.014Z</time>
      </trkpt>
      <trkpt lat="48.69796" lon="2.53318">
        <ele>59</ele>
        <time>2022-10-26T08:34:45.037Z</time>
      </trkpt>
      <trkpt lat="48.69791" lon="2.5332">
        <ele>61</ele>
        <time>2022-10-26T08:34:50.010Z</time>
      </trkpt>
      <trkpt lat="48.69787" lon="2.53324">
        <ele>61</ele>
        <time>2022-10-26T08:34:55.022Z</time>
      </trkpt>
      <trkpt lat="48.69783" lon="2.53324">
        <ele>61</ele>
        <time>2022-10-26T08:35:00.012Z</time>
      </trkpt>
      <trkpt lat="48.69777" lon="2.53327">
        <ele>61</ele>
        <time>2022-10-26T08:35:05.034Z</time>
      </trkpt>
      <trkpt lat="48.69771" lon="2.53328">
        <ele>61</ele>
        <time>2022-10-26T08:35:10.013Z</time>
      </trkpt>
      <trkpt lat="48.69767" lon="2.53331">
        <ele>61</ele>
        <time>2022-10-26T08:35:14.016Z</time>
      </trkpt>
      <trkpt lat="48.6976" lon="2.53336">
        <ele>60</ele>
        <time>2022-10-26T08:35:19.034Z</time>
      </trkpt>
      <trkpt lat="48.69755" lon="2.5334">
        <ele>60</ele>
        <time>2022-10-26T08:35:24.009Z</time>
      </trkpt>
      <trkpt lat="48.69748" lon="2.53351">
        <ele>63</ele>
        <time>2022-10-26T08:35:38.018Z</time>
      </trkpt>
      <trkpt lat="48.69749" lon="2.53353">
        <ele>63</ele>
        <time>2022-10-26T08:35:43.043Z</time>
      </trkpt>
      <trkpt lat="48.6975" lon="2.53354">
        <ele>63</ele>
        <time>2022-10-26T08:35:48.030Z</time>
      </trkpt>
      <trkpt lat="48.69752" lon="2.53356">
        <ele>63</ele>
        <time>2022-10-26T08:35:53.016Z</time>
      </trkpt>
      <trkpt lat="48.69752" lon="2.53359">
        <ele>63</ele>
        <time>2022-10-26T08:35:58.042Z</time>
      </trkpt>
      <trkpt lat="48.69753" lon="2.53361">
        <ele>63</ele>
        <time>2022-10-26T08:36:03.047Z</time>
      </trkpt>
      <trkpt lat="48.69756" lon="2.53367">
        <ele>63</ele>
        <time>2022-10-26T08:36:13.036Z</time>
      </trkpt>
      <trkpt lat="48.69758" lon="2.5337">
        <ele>63</ele>
        <time>2022-10-26T08:36:18.015Z</time>
      </trkpt>
      <trkpt lat="48.69761" lon="2.53374">
        <ele>63</ele>
        <time>2022-10-26T08:36:23.021Z</time>
      </trkpt>
      <trkpt lat="48.69763" lon="2.53377">
        <ele>66</ele>
        <time>2022-10-26T08:36:28.032Z</time>
      </trkpt>
      <trkpt lat="48.69764" lon="2.53382">
        <ele>67</ele>
        <time>2022-10-26T08:36:33.035Z</time>
      </trkpt>
      <trkpt lat="48.69767" lon="2.53388">
        <ele>67</ele>
        <time>2022-10-26T08:36:38.029Z</time>
      </trkpt>
      <trkpt lat="48.6977" lon="2.53392">
        <ele>67</ele>
        <time>2022-10-26T08:36:43.018Z</time>
      </trkpt>
      <trkpt lat="48.69771" lon="2.53397">
        <ele>67</ele>
        <time>2022-10-26T08:36:47.038Z</time>
      </trkpt>
      <trkpt lat="48.69774" lon="2.53403">
        <ele>69</ele>
        <time>2022-10-26T08:36:52.036Z</time>
      </trkpt>
      <trkpt lat="48.69774" lon="2.53412">
        <ele>69</ele>
        <time>2022-10-26T08:36:57.034Z</time>
      </trkpt>
      <trkpt lat="48.69776" lon="2.53418">
        <ele>69</ele>
        <time>2022-10-26T08:37:02.012Z</time>
      </trkpt>
      <trkpt lat="48.69777" lon="2.53426">
        <ele>69</ele>
        <time>2022-10-26T08:37:07.017Z</time>
      </trkpt>
      <trkpt lat="48.69778" lon="2.53434">
        <ele>71</ele>
        <time>2022-10-26T08:37:12.050Z</time>
      </trkpt>
      <trkpt lat="48.69779" lon="2.53441">
        <ele>71</ele>
        <time>2022-10-26T08:37:17.033Z</time>
      </trkpt>
      <trkpt lat="48.69779" lon="2.53449">
        <ele>71</ele>
        <time>2022-10-26T08:37:22.046Z</time>
      </trkpt>
      <trkpt lat="48.69781" lon="2.53458">
        <ele>71</ele>
        <time>2022-10-26T08:37:27.025Z</time>
      </trkpt>
      <trkpt lat="48.69782" lon="2.53465">
        <ele>74</ele>
        <time>2022-10-26T08:37:32.025Z</time>
      </trkpt>
      <trkpt lat="48.69783" lon="2.53472">
        <ele>74</ele>
        <time>2022-10-26T08:37:37.042Z</time>
      </trkpt>
      <trkpt lat="48.69786" lon="2.53481">
        <ele>74</ele>
        <time>2022-10-26T08:37:42.033Z</time>
      </trkpt>
      <trkpt lat="48.69788" lon="2.53488">
        <ele>76</ele>
        <time>2022-10-26T08:37:47.014Z</time>
      </trkpt>
      <trkpt lat="48.69792" lon="2.53495">
        <ele>76</ele>
        <time>2022-10-26T08:37:52.021Z</time>
      </trkpt>
      <trkpt lat="48.69794" lon="2.53499">
        <ele>76</ele>
        <time>2022-10-26T08:37:56.055Z</time>
      </trkpt>
      <trkpt lat="48.69798" lon="2.53505">
        <ele>76</ele>
        <time>2022-10-26T08:38:01.020Z</time>
      </trkpt>
      <trkpt lat="48.698" lon="2.53511">
        <ele>76</ele>
        <time>2022-10-26T08:38:05.027Z</time>
      </trkpt>
      <trkpt lat="48.69803" lon="2.53517">
        <ele>78</ele>
        <time>2022-10-26T08:38:10.026Z</time>
      </trkpt>
      <trkpt lat="48.69805" lon="2.53522">
        <ele>78</ele>
        <time>2022-10-26T08:38:15.023Z</time>
      </trkpt>
      <trkpt lat="48.69807" lon="2.53527">
        <ele>78</ele>
        <time>2022-10-26T08:38:20.013Z</time>
      </trkpt>
      <trkpt lat="48.69809" lon="2.53531">
        <ele>78</ele>
        <time>2022-10-26T08:38:24.034Z</time>
      </trkpt>
      <trkpt lat="48.69812" lon="2.53538">
        <ele>78</ele>
        <time>2022-10-26T08:38:29.031Z</time>
      </trkpt>
      <trkpt lat="48.69813" lon="2.53542">
        <ele>80</ele>
        <time>2022-10-26T08:38:33.043Z</time>
      </trkpt>
      <trkpt lat="48.69815" lon="2.53548">
        <ele>80</ele>
        <time>2022-10-26T08:38:37.054Z</time>
      </trkpt>
      <trkpt lat="48.69818" lon="2.53555">
        <ele>80</ele>
        <time>2022-10-26T08:38:42.017Z</time>
      </trkpt>
      <trkpt lat="48.6982" lon="2.53563">
        <ele>81</ele>
        <time>2022-10-26T08:38:47.023Z</time>
      </trkpt>
      <trkpt lat="48.69822" lon="2.5357">
        <ele>83</ele>
        <time>2022-10-26T08:38:52.022Z</time>
      </trkpt>
      <trkpt lat="48.69825" lon="2.53576">
        <ele>83</ele>
        <time>2022-10-26T08:38:57.025Z</time>
      </trkpt>
      <trkpt lat="48.69826" lon="2.53584">
        <ele>83</ele>
        <time>2022-10-26T08:39:02.032Z</time>
      </trkpt>
      <trkpt lat="48.69827" lon="2.53591">
        <ele>83</ele>
        <time>2022-10-26T08:39:07.041Z</time>
      </trkpt>
      <trkpt lat="48.69829" lon="2.53598">
        <ele>84</ele>
        <time>2022-10-26T08:39:11.032Z</time>
      </trkpt>
      <trkpt lat="48.69831" lon="2.53605">
        <ele>84</ele>
        <time>2022-10-26T08:39:16.047Z</time>
      </trkpt>
      <trkpt lat="48.69836" lon="2.53608">
        <ele>84</ele>
        <time>2022-10-26T08:39:26.045Z</time>
      </trkpt>
      <trkpt lat="48.69837" lon="2.53607">
        <ele>84</ele>
        <time>2022-10-26T08:39:31.030Z</time>
      </trkpt>
      <trkpt lat="48.69839" lon="2.53606">
        <ele>84</ele>
        <time>2022-10-26T08:39:36.023Z</time>
      </trkpt>
      <trkpt lat="48.6984" lon="2.53609">
        <ele>84</ele>
        <time>2022-10-26T08:39:41.022Z</time>
      </trkpt>
      <trkpt lat="48.69843" lon="2.53618">
        <ele>84</ele>
        <time>2022-10-26T08:39:46.039Z</time>
      </trkpt>
      <trkpt lat="48.69847" lon="2.53624">
        <ele>84</ele>
        <time>2022-10-26T08:39:50.047Z</time>
      </trkpt>
      <trkpt lat="48.69851" lon="2.5363">
        <ele>85</ele>
        <time>2022-10-26T08:39:55.034Z</time>
      </trkpt>
      <trkpt lat="48.69855" lon="2.53637">
        <ele>85</ele>
        <time>2022-10-26T08:40:00.021Z</time>
      </trkpt>
      <trkpt lat="48.69856" lon="2.53646">
        <ele>85</ele>
        <time>2022-10-26T08:40:05.019Z</time>
      </trkpt>
      <trkpt lat="48.69859" lon="2.53653">
        <ele>84</ele>
        <time>2022-10-26T08:40:10.038Z</time>
      </trkpt>
      <trkpt lat="48.6986" lon="2.53661">
        <ele>84</ele>
        <time>2022-10-26T08:40:15.021Z</time>
      </trkpt>
      <trkpt lat="48.69862" lon="2.53667">
        <ele>84</ele>
        <time>2022-10-26T08:40:20.020Z</time>
      </trkpt>
      <trkpt lat="48.69865" lon="2.53671">
        <ele>84</ele>
        <time>2022-10-26T08:40:25.018Z</time>
      </trkpt>
      <trkpt lat="48.69868" lon="2.53677">
        <ele>84</ele>
        <time>2022-10-26T08:40:29.028Z</time>
      </trkpt>
      <trkpt lat="48.69871" lon="2.53686">
        <ele>84</ele>
        <time>2022-10-26T08:40:34.031Z</time>
      </trkpt>
      <trkpt lat="48.69874" lon="2.53693">
        <ele>84</ele>
        <time>2022-10-26T08:40:39.026Z</time>
      </trkpt>
      <trkpt lat="48.69878" lon="2.53698">
        <ele>84</ele>
        <time>2022-10-26T08:40:44.035Z</time>
      </trkpt>
      <trkpt lat="48.69879" lon="2.53701">
        <ele>84</ele>
        <time>2022-10-26T08:40:49.029Z</time>
      </trkpt>
      <trkpt lat="48.69881" lon="2.53704">
        <ele>84</ele>
        <time>2022-10-26T08:40:53.039Z</time>
      </trkpt>
      <trkpt lat="48.69885" lon="2.53712">
        <ele>85</ele>
        <time>2022-10-26T08:40:58.030Z</time>
      </trkpt>
      <trkpt lat="48.6989" lon="2.5372">
        <ele>85</ele>
        <time>2022-10-26T08:41:03.025Z</time>
      </trkpt>
      <trkpt lat="48.69892" lon="2.53728">
        <ele>85</ele>
        <time>2022-10-26T08:41:08.019Z</time>
      </trkpt>
      <trkpt lat="48.69895" lon="2.53736">
        <ele>85</ele>
        <time>2022-10-26T08:41:13.038Z</time>
      </trkpt>
      <trkpt lat="48.69898" lon="2.53744">
        <ele>85</ele>
        <time>2022-10-26T08:41:18.047Z</time>
      </trkpt>
      <trkpt lat="48.69902" lon="2.53752">
        <ele>85</ele>
        <time>2022-10-26T08:41:23.043Z</time>
      </trkpt>
      <trkpt lat="48.69906" lon="2.53758">
        <ele>84</ele>
        <time>2022-10-26T08:41:28.034Z</time>
      </trkpt>
      <trkpt lat="48.69909" lon="2.53759">
        <ele>84</ele>
        <time>2022-10-26T08:41:33.049Z</time>
      </trkpt>
      <trkpt lat="48.69909" lon="2.53758">
        <ele>84</ele>
        <time>2022-10-26T08:41:38.050Z</time>
      </trkpt>
      <trkpt lat="48.69914" lon="2.53763">
        <ele>84</ele>
        <time>2022-10-26T08:41:47.163Z</time>
      </trkpt>
      <trkpt lat="48.69918" lon="2.5377">
        <ele>85</ele>
        <time>2022-10-26T08:41:52.040Z</time>
      </trkpt>
      <trkpt lat="48.69922" lon="2.53777">
        <ele>85</ele>
        <time>2022-10-26T08:41:57.045Z</time>
      </trkpt>
      <trkpt lat="48.69925" lon="2.53783">
        <ele>85</ele>
        <time>2022-10-26T08:42:01.034Z</time>
      </trkpt>
      <trkpt lat="48.69928" lon="2.5379">
        <ele>85</ele>
        <time>2022-10-26T08:42:06.028Z</time>
      </trkpt>
      <trkpt lat="48.69931" lon="2.53795">
        <ele>86</ele>
        <time>2022-10-26T08:42:10.047Z</time>
      </trkpt>
      <trkpt lat="48.69934" lon="2.53801">
        <ele>86</ele>
        <time>2022-10-26T08:42:15.039Z</time>
      </trkpt>
      <trkpt lat="48.69939" lon="2.53807">
        <ele>86</ele>
        <time>2022-10-26T08:42:20.039Z</time>
      </trkpt>
      <trkpt lat="48.69944" lon="2.53813">
        <ele>86</ele>
        <time>2022-10-26T08:42:25.049Z</time>
      </trkpt>
      <trkpt lat="48.69948" lon="2.5382">
        <ele>87</ele>
        <time>2022-10-26T08:42:30.018Z</time>
      </trkpt>
      <trkpt lat="48.6995" lon="2.53826">
        <ele>87</ele>
        <time>2022-10-26T08:42:34.042Z</time>
      </trkpt>
      <trkpt lat="48.69954" lon="2.53832">
        <ele>87</ele>
        <time>2022-10-26T08:42:39.041Z</time>
      </trkpt>
      <trkpt lat="48.69957" lon="2.53836">
        <ele>87</ele>
        <time>2022-10-26T08:42:44.059Z</time>
      </trkpt>
      <trkpt lat="48.69961" lon="2.53843">
        <ele>87</ele>
        <time>2022-10-26T08:42:49.046Z</time>
      </trkpt>
      <trkpt lat="48.69965" lon="2.5385">
        <ele>87</ele>
        <time>2022-10-26T08:42:54.053Z</time>
      </trkpt>
      <trkpt lat="48.69968" lon="2.53855">
        <ele>87</ele>
        <time>2022-10-26T08:42:59.037Z</time>
      </trkpt>
      <trkpt lat="48.69973" lon="2.53863">
        <ele>87</ele>
        <time>2022-10-26T08:43:04.044Z</time>
      </trkpt>
      <trkpt lat="48.69977" lon="2.5387">
        <ele>87</ele>
        <time>2022-10-26T08:43:09.053Z</time>
      </trkpt>
      <trkpt lat="48.69982" lon="2.53875">
        <ele>87</ele>
        <time>2022-10-26T08:43:14.022Z</time>
      </trkpt>
      <trkpt lat="48.69986" lon="2.53881">
        <ele>88</ele>
        <time>2022-10-26T08:43:19.043Z</time>
      </trkpt>
      <trkpt lat="48.69989" lon="2.5389">
        <ele>88</ele>
        <time>2022-10-26T08:43:24.043Z</time>
      </trkpt>
      <trkpt lat="48.69993" lon="2.53897">
        <ele>88</ele>
        <time>2022-10-26T08:43:28.056Z</time>
      </trkpt>
      <trkpt lat="48.69996" lon="2.53903">
        <ele>88</ele>
        <time>2022-10-26T08:43:33.056Z</time>
      </trkpt>
      <trkpt lat="48.69999" lon="2.53911">
        <ele>88</ele>
        <time>2022-10-26T08:43:38.049Z</time>
      </trkpt>
      <trkpt lat="48.70003" lon="2.53917">
        <ele>88</ele>
        <time>2022-10-26T08:43:43.040Z</time>
      </trkpt>
      <trkpt lat="48.70007" lon="2.53924">
        <ele>88</ele>
        <time>2022-10-26T08:43:48.025Z</time>
      </trkpt>
      <trkpt lat="48.7001" lon="2.53929">
        <ele>88</ele>
        <time>2022-10-26T08:43:52.049Z</time>
      </trkpt>
      <trkpt lat="48.70014" lon="2.53934">
        <ele>89</ele>
        <time>2022-10-26T08:43:56.047Z</time>
      </trkpt>
      <trkpt lat="48.70019" lon="2.5394">
        <ele>88</ele>
        <time>2022-10-26T08:44:01.048Z</time>
      </trkpt>
      <trkpt lat="48.70021" lon="2.53945">
        <ele>88</ele>
        <time>2022-10-26T08:44:06.036Z</time>
      </trkpt>
      <trkpt lat="48.70025" lon="2.53954">
        <ele>88</ele>
        <time>2022-10-26T08:44:11.026Z</time>
      </trkpt>
      <trkpt lat="48.70032" lon="2.53963">
        <ele>89</ele>
        <time>2022-10-26T08:44:16.031Z</time>
      </trkpt>
      <trkpt lat="48.70038" lon="2.53972">
        <ele>89</ele>
        <time>2022-10-26T08:44:21.038Z</time>
      </trkpt>
      <trkpt lat="48.70044" lon="2.53979">
        <ele>88</ele>
        <time>2022-10-26T08:44:26.042Z</time>
      </trkpt>
      <trkpt lat="48.70078" lon="2.53999">
        <ele>89</ele>
        <time>2022-10-26T08:45:10.019Z</time>
      </trkpt>
      <trkpt lat="48.70081" lon="2.53994">
        <ele>89</ele>
        <time>2022-10-26T08:45:15.032Z</time>
      </trkpt>
      <trkpt lat="48.70082" lon="2.53992">
        <ele>89</ele>
        <time>2022-10-26T08:45:20.037Z</time>
      </trkpt>
      <trkpt lat="48.70083" lon="2.53983">
        <ele>89</ele>
        <time>2022-10-26T08:45:25.039Z</time>
      </trkpt>
      <trkpt lat="48.70085" lon="2.53972">
        <ele>89</ele>
        <time>2022-10-26T08:45:30.023Z</time>
      </trkpt>
      <trkpt lat="48.70086" lon="2.53964">
        <ele>89</ele>
        <time>2022-10-26T08:45:35.023Z</time>
      </trkpt>
      <trkpt lat="48.7009" lon="2.53955">
        <ele>88</ele>
        <time>2022-10-26T08:45:40.026Z</time>
      </trkpt>
      <trkpt lat="48.70096" lon="2.53951">
        <ele>88</ele>
        <time>2022-10-26T08:45:45.029Z</time>
      </trkpt>
      <trkpt lat="48.70102" lon="2.53951">
        <ele>89</ele>
        <time>2022-10-26T08:45:50.029Z</time>
      </trkpt>
      <trkpt lat="48.70104" lon="2.53953">
        <ele>89</ele>
        <time>2022-10-26T08:45:54.029Z</time>
      </trkpt>
      <trkpt lat="48.70111" lon="2.53954">
        <ele>89</ele>
        <time>2022-10-26T08:45:59.053Z</time>
      </trkpt>
      <trkpt lat="48.70117" lon="2.53955">
        <ele>89</ele>
        <time>2022-10-26T08:46:04.042Z</time>
      </trkpt>
      <trkpt lat="48.70122" lon="2.53956">
        <ele>89</ele>
        <time>2022-10-26T08:46:09.038Z</time>
      </trkpt>
      <trkpt lat="48.70129" lon="2.5396">
        <ele>91</ele>
        <time>2022-10-26T08:46:14.028Z</time>
      </trkpt>
      <trkpt lat="48.70136" lon="2.53964">
        <ele>91</ele>
        <time>2022-10-26T08:46:19.029Z</time>
      </trkpt>
      <trkpt lat="48.70142" lon="2.5397">
        <ele>91</ele>
        <time>2022-10-26T08:46:24.032Z</time>
      </trkpt>
      <trkpt lat="48.70145" lon="2.53975">
        <ele>91</ele>
        <time>2022-10-26T08:46:29.021Z</time>
      </trkpt>
      <trkpt lat="48.7015" lon="2.53981">
        <ele>91</ele>
        <time>2022-10-26T08:46:34.034Z</time>
      </trkpt>
      <trkpt lat="48.70155" lon="2.53986">
        <ele>90</ele>
        <time>2022-10-26T08:46:39.037Z</time>
      </trkpt>
      <trkpt lat="48.7016" lon="2.53991">
        <ele>90</ele>
        <time>2022-10-26T08:46:44.030Z</time>
      </trkpt>
      <trkpt lat="48.70165" lon="2.53997">
        <ele>90</ele>
        <time>2022-10-26T08:46:49.055Z</time>
      </trkpt>
      <trkpt lat="48.7017" lon="2.54002">
        <ele>90</ele>
        <time>2022-10-26T08:46:54.039Z</time>
      </trkpt>
      <trkpt lat="48.70174" lon="2.54008">
        <ele>90</ele>
        <time>2022-10-26T08:46:58.050Z</time>
      </trkpt>
      <trkpt lat="48.70178" lon="2.54014">
        <ele>91</ele>
        <time>2022-10-26T08:47:03.046Z</time>
      </trkpt>
      <trkpt lat="48.70185" lon="2.54019">
        <ele>90</ele>
        <time>2022-10-26T08:47:08.029Z</time>
      </trkpt>
      <trkpt lat="48.70191" lon="2.54024">
        <ele>90</ele>
        <time>2022-10-26T08:47:13.018Z</time>
      </trkpt>
      <trkpt lat="48.70195" lon="2.54027">
        <ele>90</ele>
        <time>2022-10-26T08:47:17.019Z</time>
      </trkpt>
      <trkpt lat="48.70196" lon="2.54036">
        <ele>90</ele>
        <time>2022-10-26T08:47:22.036Z</time>
      </trkpt>
      <trkpt lat="48.70201" lon="2.54042">
        <ele>90</ele>
        <time>2022-10-26T08:47:27.046Z</time>
      </trkpt>
      <trkpt lat="48.70203" lon="2.54051">
        <ele>90</ele>
        <time>2022-10-26T08:47:32.035Z</time>
      </trkpt>
      <trkpt lat="48.70207" lon="2.54059">
        <ele>90</ele>
        <time>2022-10-26T08:47:37.037Z</time>
      </trkpt>
      <trkpt lat="48.70213" lon="2.54065">
        <ele>90</ele>
        <time>2022-10-26T08:47:42.043Z</time>
      </trkpt>
      <trkpt lat="48.70215" lon="2.54072">
        <ele>90</ele>
        <time>2022-10-26T08:47:46.036Z</time>
      </trkpt>
      <trkpt lat="48.7022" lon="2.54077">
        <ele>90</ele>
        <time>2022-10-26T08:47:51.030Z</time>
      </trkpt>
      <trkpt lat="48.70223" lon="2.54085">
        <ele>90</ele>
        <time>2022-10-26T08:47:56.038Z</time>
      </trkpt>
      <trkpt lat="48.70226" lon="2.54095">
        <ele>90</ele>
        <time>2022-10-26T08:48:01.030Z</time>
      </trkpt>
      <trkpt lat="48.7023" lon="2.54101">
        <ele>91</ele>
        <time>2022-10-26T08:48:06.026Z</time>
      </trkpt>
      <trkpt lat="48.70234" lon="2.54106">
        <ele>91</ele>
        <time>2022-10-26T08:48:11.021Z</time>
      </trkpt>
      <trkpt lat="48.70238" lon="2.54113">
        <ele>90</ele>
        <time>2022-10-26T08:48:16.045Z</time>
      </trkpt>
      <trkpt lat="48.70241" lon="2.54122">
        <ele>90</ele>
        <time>2022-10-26T08:48:21.050Z</time>
      </trkpt>
      <trkpt lat="48.70244" lon="2.54132">
        <ele>91</ele>
        <time>2022-10-26T08:48:26.034Z</time>
      </trkpt>
      <trkpt lat="48.70248" lon="2.5414">
        <ele>91</ele>
        <time>2022-10-26T08:48:31.058Z</time>
      </trkpt>
      <trkpt lat="48.70251" lon="2.54148">
        <ele>91</ele>
        <time>2022-10-26T08:48:36.039Z</time>
      </trkpt>
      <trkpt lat="48.70256" lon="2.54156">
        <ele>91</ele>
        <time>2022-10-26T08:48:41.023Z</time>
      </trkpt>
      <trkpt lat="48.7026" lon="2.54162">
        <ele>91</ele>
        <time>2022-10-26T08:48:46.025Z</time>
      </trkpt>
      <trkpt lat="48.70263" lon="2.54166">
        <ele>91</ele>
        <time>2022-10-26T08:48:51.054Z</time>
      </trkpt>
      <trkpt lat="48.70267" lon="2.54174">
        <ele>91</ele>
        <time>2022-10-26T08:48:56.044Z</time>
      </trkpt>
      <trkpt lat="48.70273" lon="2.54178">
        <ele>91</ele>
        <time>2022-10-26T08:49:01.036Z</time>
      </trkpt>
      <trkpt lat="48.70278" lon="2.54184">
        <ele>91</ele>
        <time>2022-10-26T08:49:06.034Z</time>
      </trkpt>
      <trkpt lat="48.70282" lon="2.54191">
        <ele>91</ele>
        <time>2022-10-26T08:49:11.033Z</time>
      </trkpt>
      <trkpt lat="48.70286" lon="2.54195">
        <ele>91</ele>
        <time>2022-10-26T08:49:16.039Z</time>
      </trkpt>
      <trkpt lat="48.70293" lon="2.54202">
        <ele>91</ele>
        <time>2022-10-26T08:49:21.026Z</time>
      </trkpt>
      <trkpt lat="48.70299" lon="2.54209">
        <ele>91</ele>
        <time>2022-10-26T08:49:26.025Z</time>
      </trkpt>
      <trkpt lat="48.70304" lon="2.54215">
        <ele>91</ele>
        <time>2022-10-26T08:49:31.027Z</time>
      </trkpt>
      <trkpt lat="48.70309" lon="2.54223">
        <ele>91</ele>
        <time>2022-10-26T08:49:36.038Z</time>
      </trkpt>
      <trkpt lat="48.70314" lon="2.54228">
        <ele>91</ele>
        <time>2022-10-26T08:49:41.021Z</time>
      </trkpt>
      <trkpt lat="48.70319" lon="2.54231">
        <ele>91</ele>
        <time>2022-10-26T08:49:46.039Z</time>
      </trkpt>
      <trkpt lat="48.70322" lon="2.54234">
        <ele>91</ele>
        <time>2022-10-26T08:49:51.062Z</time>
      </trkpt>
      <trkpt lat="48.70317" lon="2.54237">
        <ele>91</ele>
        <time>2022-10-26T08:49:56.050Z</time>
      </trkpt>
      <trkpt lat="48.70311" lon="2.54237">
        <ele>91</ele>
        <time>2022-10-26T08:50:01.040Z</time>
      </trkpt>
      <trkpt lat="48.70306" lon="2.54243">
        <ele>91</ele>
        <time>2022-10-26T08:50:06.024Z</time>
      </trkpt>
      <trkpt lat="48.70303" lon="2.54248">
        <ele>91</ele>
        <time>2022-10-26T08:50:11.033Z</time>
      </trkpt>
      <trkpt lat="48.703" lon="2.54255">
        <ele>91</ele>
        <time>2022-10-26T08:50:16.042Z</time>
      </trkpt>
      <trkpt lat="48.70297" lon="2.54263">
        <ele>91</ele>
        <time>2022-10-26T08:50:21.034Z</time>
      </trkpt>
      <trkpt lat="48.70293" lon="2.5427">
        <ele>91</ele>
        <time>2022-10-26T08:50:26.047Z</time>
      </trkpt>
      <trkpt lat="48.70289" lon="2.54279">
        <ele>91</ele>
        <time>2022-10-26T08:50:31.018Z</time>
      </trkpt>
      <trkpt lat="48.70287" lon="2.54284">
        <ele>91</ele>
        <time>2022-10-26T08:50:35.045Z</time>
      </trkpt>
      <trkpt lat="48.70283" lon="2.54289">
        <ele>91</ele>
        <time>2022-10-26T08:50:40.048Z</time>
      </trkpt>
      <trkpt lat="48.70279" lon="2.54294">
        <ele>91</ele>
        <time>2022-10-26T08:50:45.034Z</time>
      </trkpt>
      <trkpt lat="48.70276" lon="2.54302">
        <ele>91</ele>
        <time>2022-10-26T08:50:49.037Z</time>
      </trkpt>
      <trkpt lat="48.70272" lon="2.54312">
        <ele>91</ele>
        <time>2022-10-26T08:50:54.020Z</time>
      </trkpt>
      <trkpt lat="48.70267" lon="2.54318">
        <ele>91</ele>
        <time>2022-10-26T08:50:59.030Z</time>
      </trkpt>
      <trkpt lat="48.70262" lon="2.5432">
        <ele>91</ele>
        <time>2022-10-26T08:51:04.045Z</time>
      </trkpt>
      <trkpt lat="48.7026" lon="2.54314">
        <ele>91</ele>
        <time>2022-10-26T08:51:09.052Z</time>
      </trkpt>
      <trkpt lat="48.70256" lon="2.54308">
        <ele>91</ele>
        <time>2022-10-26T08:51:14.035Z</time>
      </trkpt>
      <trkpt lat="48.70249" lon="2.54308">
        <ele>91</ele>
        <time>2022-10-26T08:51:18.032Z</time>
      </trkpt>
      <trkpt lat="48.70245" lon="2.54309">
        <ele>91</ele>
        <time>2022-10-26T08:51:23.054Z</time>
      </trkpt>
      <trkpt lat="48.70241" lon="2.54307">
        <ele>91</ele>
        <time>2022-10-26T08:51:28.054Z</time>
      </trkpt>
      <trkpt lat="48.70235" lon="2.54307">
        <ele>91</ele>
        <time>2022-10-26T08:51:33.060Z</time>
      </trkpt>
      <trkpt lat="48.7023" lon="2.54309">
        <ele>91</ele>
        <time>2022-10-26T08:51:38.047Z</time>
      </trkpt>
      <trkpt lat="48.70228" lon="2.54309">
        <ele>91</ele>
        <time>2022-10-26T08:51:43.019Z</time>
      </trkpt>
      <trkpt lat="48.70227" lon="2.54306">
        <ele>91</ele>
        <time>2022-10-26T08:52:49.047Z</time>
      </trkpt>
      <trkpt lat="48.70228" lon="2.54305">
        <ele>91</ele>
        <time>2022-10-26T08:52:54.045Z</time>
      </trkpt>
      <trkpt lat="48.70232" lon="2.54303">
        <ele>91</ele>
        <time>2022-10-26T08:52:59.026Z</time>
      </trkpt>
      <trkpt lat="48.70234" lon="2.54306">
        <ele>91</ele>
        <time>2022-10-26T08:53:04.027Z</time>
      </trkpt>
      <trkpt lat="48.7024" lon="2.54305">
        <ele>91</ele>
        <time>2022-10-26T08:53:09.032Z</time>
      </trkpt>
      <trkpt lat="48.70247" lon="2.54308">
        <ele>91</ele>
        <time>2022-10-26T08:53:14.031Z</time>
      </trkpt>
      <trkpt lat="48.70251" lon="2.54309">
        <ele>91</ele>
        <time>2022-10-26T08:53:19.035Z</time>
      </trkpt>
      <trkpt lat="48.70256" lon="2.54317">
        <ele>91</ele>
        <time>2022-10-26T08:53:24.040Z</time>
      </trkpt>
      <trkpt lat="48.70264" lon="2.54317">
        <ele>91</ele>
        <time>2022-10-26T08:53:29.024Z</time>
      </trkpt>
      <trkpt lat="48.70269" lon="2.54312">
        <ele>91</ele>
        <time>2022-10-26T08:53:34.024Z</time>
      </trkpt>
      <trkpt lat="48.70271" lon="2.54308">
        <ele>91</ele>
        <time>2022-10-26T08:53:38.036Z</time>
      </trkpt>
      <trkpt lat="48.70272" lon="2.54301">
        <ele>91</ele>
        <time>2022-10-26T08:53:43.031Z</time>
      </trkpt>
      <trkpt lat="48.70275" lon="2.54292">
        <ele>91</ele>
        <time>2022-10-26T08:53:48.025Z</time>
      </trkpt>
      <trkpt lat="48.70278" lon="2.54287">
        <ele>91</ele>
        <time>2022-10-26T08:53:52.046Z</time>
      </trkpt>
      <trkpt lat="48.70284" lon="2.54282">
        <ele>91</ele>
        <time>2022-10-26T08:53:57.044Z</time>
      </trkpt>
      <trkpt lat="48.70288" lon="2.54274">
        <ele>91</ele>
        <time>2022-10-26T08:54:02.028Z</time>
      </trkpt>
      <trkpt lat="48.70291" lon="2.54267">
        <ele>91</ele>
        <time>2022-10-26T08:54:07.033Z</time>
      </trkpt>
      <trkpt lat="48.70295" lon="2.54262">
        <ele>91</ele>
        <time>2022-10-26T08:54:12.038Z</time>
      </trkpt>
      <trkpt lat="48.70301" lon="2.54252">
        <ele>91</ele>
        <time>2022-10-26T08:54:17.034Z</time>
      </trkpt>
      <trkpt lat="48.70304" lon="2.54244">
        <ele>91</ele>
        <time>2022-10-26T08:54:22.026Z</time>
      </trkpt>
      <trkpt lat="48.70309" lon="2.54237">
        <ele>91</ele>
        <time>2022-10-26T08:54:27.051Z</time>
      </trkpt>
      <trkpt lat="48.70321" lon="2.54233">
        <ele>91</ele>
        <time>2022-10-26T08:54:42.033Z</time>
      </trkpt>
      <trkpt lat="48.70324" lon="2.54228">
        <ele>91</ele>
        <time>2022-10-26T08:54:47.020Z</time>
      </trkpt>
      <trkpt lat="48.70327" lon="2.54219">
        <ele>91</ele>
        <time>2022-10-26T08:54:52.042Z</time>
      </trkpt>
      <trkpt lat="48.70328" lon="2.54209">
        <ele>91</ele>
        <time>2022-10-26T08:54:57.055Z</time>
      </trkpt>
      <trkpt lat="48.7033" lon="2.54203">
        <ele>90</ele>
        <time>2022-10-26T08:55:02.038Z</time>
      </trkpt>
      <trkpt lat="48.70335" lon="2.54196">
        <ele>90</ele>
        <time>2022-10-26T08:55:07.038Z</time>
      </trkpt>
      <trkpt lat="48.70339" lon="2.5419">
        <ele>90</ele>
        <time>2022-10-26T08:55:12.038Z</time>
      </trkpt>
      <trkpt lat="48.70343" lon="2.54184">
        <ele>90</ele>
        <time>2022-10-26T08:55:16.022Z</time>
      </trkpt>
      <trkpt lat="48.70347" lon="2.54177">
        <ele>90</ele>
        <time>2022-10-26T08:55:21.034Z</time>
      </trkpt>
      <trkpt lat="48.70351" lon="2.54168">
        <ele>91</ele>
        <time>2022-10-26T08:55:26.025Z</time>
      </trkpt>
      <trkpt lat="48.70356" lon="2.54158">
        <ele>91</ele>
        <time>2022-10-26T08:55:31.043Z</time>
      </trkpt>
      <trkpt lat="48.70359" lon="2.54148">
        <ele>91</ele>
        <time>2022-10-26T08:55:36.049Z</time>
      </trkpt>
      <trkpt lat="48.70364" lon="2.54142">
        <ele>91</ele>
        <time>2022-10-26T08:55:41.031Z</time>
      </trkpt>
      <trkpt lat="48.70368" lon="2.5414">
        <ele>91</ele>
        <time>2022-10-26T08:55:45.046Z</time>
      </trkpt>
      <trkpt lat="48.70373" lon="2.54135">
        <ele>91</ele>
        <time>2022-10-26T08:55:50.038Z</time>
      </trkpt>
      <trkpt lat="48.7038" lon="2.54132">
        <ele>91</ele>
        <time>2022-10-26T08:55:55.019Z</time>
      </trkpt>
      <trkpt lat="48.70387" lon="2.5413">
        <ele>91</ele>
        <time>2022-10-26T08:56:00.041Z</time>
      </trkpt>
      <trkpt lat="48.70391" lon="2.54129">
        <ele>91</ele>
        <time>2022-10-26T08:56:04.030Z</time>
      </trkpt>
      <trkpt lat="48.70396" lon="2.54131">
        <ele>91</ele>
        <time>2022-10-26T08:56:09.026Z</time>
      </trkpt>
      <trkpt lat="48.70402" lon="2.5413">
        <ele>91</ele>
        <time>2022-10-26T08:56:14.020Z</time>
      </trkpt>
      <trkpt lat="48.7041" lon="2.54129">
        <ele>91</ele>
        <time>2022-10-26T08:56:19.036Z</time>
      </trkpt>
      <trkpt lat="48.70416" lon="2.54129">
        <ele>91</ele>
        <time>2022-10-26T08:56:24.020Z</time>
      </trkpt>
      <trkpt lat="48.70422" lon="2.54129">
        <ele>91</ele>
        <time>2022-10-26T08:56:29.037Z</time>
      </trkpt>
      <trkpt lat="48.70427" lon="2.54128">
        <ele>91</ele>
        <time>2022-10-26T08:56:34.042Z</time>
      </trkpt>
      <trkpt lat="48.70434" lon="2.54124">
        <ele>91</ele>
        <time>2022-10-26T08:56:39.045Z</time>
      </trkpt>
      <trkpt lat="48.70437" lon="2.54117">
        <ele>91</ele>
        <time>2022-10-26T08:56:44.028Z</time>
      </trkpt>
      <trkpt lat="48.70438" lon="2.54109">
        <ele>91</ele>
        <time>2022-10-26T08:56:49.027Z</time>
      </trkpt>
      <trkpt lat="48.70439" lon="2.54099">
        <ele>91</ele>
        <time>2022-10-26T08:56:54.024Z</time>
      </trkpt>
      <trkpt lat="48.70439" lon="2.5409">
        <ele>91</ele>
        <time>2022-10-26T08:56:59.040Z</time>
      </trkpt>
      <trkpt lat="48.70441" lon="2.54082">
        <ele>91</ele>
        <time>2022-10-26T08:57:04.034Z</time>
      </trkpt>
      <trkpt lat="48.70441" lon="2.54072">
        <ele>91</ele>
        <time>2022-10-26T08:57:09.038Z</time>
      </trkpt>
      <trkpt lat="48.70445" lon="2.54064">
        <ele>90</ele>
        <time>2022-10-26T08:57:14.032Z</time>
      </trkpt>
      <trkpt lat="48.70448" lon="2.5406">
        <ele>90</ele>
        <time>2022-10-26T08:57:18.038Z</time>
      </trkpt>
      <trkpt lat="48.70452" lon="2.54057">
        <ele>90</ele>
        <time>2022-10-26T08:57:23.052Z</time>
      </trkpt>
      <trkpt lat="48.70458" lon="2.54052">
        <ele>90</ele>
        <time>2022-10-26T08:57:28.046Z</time>
      </trkpt>
      <trkpt lat="48.70463" lon="2.54045">
        <ele>90</ele>
        <time>2022-10-26T08:57:33.031Z</time>
      </trkpt>
      <trkpt lat="48.70468" lon="2.54038">
        <ele>89</ele>
        <time>2022-10-26T08:57:38.024Z</time>
      </trkpt>
      <trkpt lat="48.70472" lon="2.5403">
        <ele>89</ele>
        <time>2022-10-26T08:57:43.029Z</time>
      </trkpt>
      <trkpt lat="48.70475" lon="2.54022">
        <ele>89</ele>
        <time>2022-10-26T08:57:48.039Z</time>
      </trkpt>
      <trkpt lat="48.70479" lon="2.54017">
        <ele>89</ele>
        <time>2022-10-26T08:57:53.041Z</time>
      </trkpt>
      <trkpt lat="48.70484" lon="2.54013">
        <ele>88</ele>
        <time>2022-10-26T08:57:58.047Z</time>
      </trkpt>
      <trkpt lat="48.70488" lon="2.54007">
        <ele>88</ele>
        <time>2022-10-26T08:58:03.045Z</time>
      </trkpt>
      <trkpt lat="48.70492" lon="2.54003">
        <ele>88</ele>
        <time>2022-10-26T08:58:08.057Z</time>
      </trkpt>
      <trkpt lat="48.70496" lon="2.53992">
        <ele>88</ele>
        <time>2022-10-26T08:58:13.035Z</time>
      </trkpt>
      <trkpt lat="48.70499" lon="2.53985">
        <ele>88</ele>
        <time>2022-10-26T08:58:18.031Z</time>
      </trkpt>
      <trkpt lat="48.70502" lon="2.53975">
        <ele>88</ele>
        <time>2022-10-26T08:58:23.029Z</time>
      </trkpt>
      <trkpt lat="48.70503" lon="2.53969">
        <ele>88</ele>
        <time>2022-10-26T08:58:28.033Z</time>
      </trkpt>
      <trkpt lat="48.70506" lon="2.53962">
        <ele>88</ele>
        <time>2022-10-26T08:58:32.039Z</time>
      </trkpt>
      <trkpt lat="48.70509" lon="2.53953">
        <ele>88</ele>
        <time>2022-10-26T08:58:37.038Z</time>
      </trkpt>
      <trkpt lat="48.70513" lon="2.53943">
        <ele>88</ele>
        <time>2022-10-26T08:58:42.047Z</time>
      </trkpt>
      <trkpt lat="48.70517" lon="2.53936">
        <ele>88</ele>
        <time>2022-10-26T08:58:47.032Z</time>
      </trkpt>
      <trkpt lat="48.7052" lon="2.5393">
        <ele>88</ele>
        <time>2022-10-26T08:58:52.045Z</time>
      </trkpt>
      <trkpt lat="48.70521" lon="2.53924">
        <ele>88</ele>
        <time>2022-10-26T08:58:57.050Z</time>
      </trkpt>
      <trkpt lat="48.70524" lon="2.53919">
        <ele>88</ele>
        <time>2022-10-26T08:59:02.052Z</time>
      </trkpt>
      <trkpt lat="48.70527" lon="2.53911">
        <ele>88</ele>
        <time>2022-10-26T08:59:07.041Z</time>
      </trkpt>
      <trkpt lat="48.7053" lon="2.53902">
        <ele>88</ele>
        <time>2022-10-26T08:59:12.025Z</time>
      </trkpt>
      <trkpt lat="48.70533" lon="2.53896">
        <ele>88</ele>
        <time>2022-10-26T08:59:16.053Z</time>
      </trkpt>
      <trkpt lat="48.70535" lon="2.53888">
        <ele>88</ele>
        <time>2022-10-26T08:59:21.045Z</time>
      </trkpt>
      <trkpt lat="48.70539" lon="2.5388">
        <ele>88</ele>
        <time>2022-10-26T08:59:26.051Z</time>
      </trkpt>
      <trkpt lat="48.70544" lon="2.53872">
        <ele>88</ele>
        <time>2022-10-26T08:59:31.055Z</time>
      </trkpt>
      <trkpt lat="48.70547" lon="2.53864">
        <ele>88</ele>
        <time>2022-10-26T08:59:36.055Z</time>
      </trkpt>
      <trkpt lat="48.70547" lon="2.53855">
        <ele>88</ele>
        <time>2022-10-26T08:59:41.050Z</time>
      </trkpt>
      <trkpt lat="48.70551" lon="2.5385">
        <ele>88</ele>
        <time>2022-10-26T08:59:46.025Z</time>
      </trkpt>
      <trkpt lat="48.70554" lon="2.53845">
        <ele>89</ele>
        <time>2022-10-26T08:59:51.026Z</time>
      </trkpt>
      <trkpt lat="48.7056" lon="2.53847">
        <ele>89</ele>
        <time>2022-10-26T08:59:56.025Z</time>
      </trkpt>
      <trkpt lat="48.70566" lon="2.53851">
        <ele>88</ele>
        <time>2022-10-26T09:00:01.039Z</time>
      </trkpt>
      <trkpt lat="48.70572" lon="2.53857">
        <ele>88</ele>
        <time>2022-10-26T09:00:06.030Z</time>
      </trkpt>
      <trkpt lat="48.70578" lon="2.53858">
        <ele>88</ele>
        <time>2022-10-26T09:00:11.036Z</time>
      </trkpt>
      <trkpt lat="48.7058" lon="2.53856">
        <ele>88</ele>
        <time>2022-10-26T09:00:16.031Z</time>
      </trkpt>
      <trkpt lat="48.70583" lon="2.53847">
        <ele>89</ele>
        <time>2022-10-26T09:00:21.043Z</time>
      </trkpt>
      <trkpt lat="48.70588" lon="2.53839">
        <ele>89</ele>
        <time>2022-10-26T09:00:26.035Z</time>
      </trkpt>
      <trkpt lat="48.7059" lon="2.53832">
        <ele>89</ele>
        <time>2022-10-26T09:00:31.023Z</time>
      </trkpt>
      <trkpt lat="48.70592" lon="2.53827">
        <ele>89</ele>
        <time>2022-10-26T09:00:35.038Z</time>
      </trkpt>
      <trkpt lat="48.70595" lon="2.53818">
        <ele>90</ele>
        <time>2022-10-26T09:00:40.027Z</time>
      </trkpt>
      <trkpt lat="48.70599" lon="2.5381">
        <ele>89</ele>
        <time>2022-10-26T09:00:45.035Z</time>
      </trkpt>
      <trkpt lat="48.70602" lon="2.53803">
        <ele>89</ele>
        <time>2022-10-26T09:00:50.040Z</time>
      </trkpt>
      <trkpt lat="48.70608" lon="2.53804">
        <ele>89</ele>
        <time>2022-10-26T09:00:55.042Z</time>
      </trkpt>
      <trkpt lat="48.70613" lon="2.53807">
        <ele>89</ele>
        <time>2022-10-26T09:01:00.038Z</time>
      </trkpt>
      <trkpt lat="48.70617" lon="2.53811">
        <ele>89</ele>
        <time>2022-10-26T09:01:05.035Z</time>
      </trkpt>
      <trkpt lat="48.70621" lon="2.53815">
        <ele>89</ele>
        <time>2022-10-26T09:01:09.037Z</time>
      </trkpt>
      <trkpt lat="48.70625" lon="2.53817">
        <ele>87</ele>
        <time>2022-10-26T09:01:14.025Z</time>
      </trkpt>
      <trkpt lat="48.70631" lon="2.53822">
        <ele>87</ele>
        <time>2022-10-26T09:01:19.029Z</time>
      </trkpt>
      <trkpt lat="48.70636" lon="2.53827">
        <ele>87</ele>
        <time>2022-10-26T09:01:24.030Z</time>
      </trkpt>
      <trkpt lat="48.7064" lon="2.53832">
        <ele>87</ele>
        <time>2022-10-26T09:01:29.038Z</time>
      </trkpt>
      <trkpt lat="48.70645" lon="2.53836">
        <ele>87</ele>
        <time>2022-10-26T09:01:34.025Z</time>
      </trkpt>
      <trkpt lat="48.7065" lon="2.53839">
        <ele>87</ele>
        <time>2022-10-26T09:01:39.035Z</time>
      </trkpt>
      <trkpt lat="48.70656" lon="2.53845">
        <ele>87</ele>
        <time>2022-10-26T09:01:44.026Z</time>
      </trkpt>
      <trkpt lat="48.70661" lon="2.53851">
        <ele>87</ele>
        <time>2022-10-26T09:01:49.026Z</time>
      </trkpt>
      <trkpt lat="48.70667" lon="2.53855">
        <ele>87</ele>
        <time>2022-10-26T09:01:54.031Z</time>
      </trkpt>
      <trkpt lat="48.70672" lon="2.53859">
        <ele>87</ele>
        <time>2022-10-26T09:01:59.036Z</time>
      </trkpt>
      <trkpt lat="48.70677" lon="2.53864">
        <ele>87</ele>
        <time>2022-10-26T09:02:04.035Z</time>
      </trkpt>
      <trkpt lat="48.70682" lon="2.53869">
        <ele>87</ele>
        <time>2022-10-26T09:02:09.034Z</time>
      </trkpt>
      <trkpt lat="48.70687" lon="2.53874">
        <ele>87</ele>
        <time>2022-10-26T09:02:14.027Z</time>
      </trkpt>
      <trkpt lat="48.70691" lon="2.53878">
        <ele>87</ele>
        <time>2022-10-26T09:02:19.044Z</time>
      </trkpt>
      <trkpt lat="48.70696" lon="2.53883">
        <ele>87</ele>
        <time>2022-10-26T09:02:24.036Z</time>
      </trkpt>
      <trkpt lat="48.70702" lon="2.53887">
        <ele>87</ele>
        <time>2022-10-26T09:02:29.034Z</time>
      </trkpt>
      <trkpt lat="48.70707" lon="2.53892">
        <ele>87</ele>
        <time>2022-10-26T09:02:34.031Z</time>
      </trkpt>
      <trkpt lat="48.70713" lon="2.53895">
        <ele>87</ele>
        <time>2022-10-26T09:02:39.037Z</time>
      </trkpt>
      <trkpt lat="48.70715" lon="2.53898">
        <ele>87</ele>
        <time>2022-10-26T09:02:43.044Z</time>
      </trkpt>
      <trkpt lat="48.70721" lon="2.53905">
        <ele>87</ele>
        <time>2022-10-26T09:02:48.030Z</time>
      </trkpt>
      <trkpt lat="48.70727" lon="2.5391">
        <ele>87</ele>
        <time>2022-10-26T09:02:53.023Z</time>
      </trkpt>
      <trkpt lat="48.70731" lon="2.53911">
        <ele>87</ele>
        <time>2022-10-26T09:02:58.035Z</time>
      </trkpt>
      <trkpt lat="48.70734" lon="2.53903">
        <ele>87</ele>
        <time>2022-10-26T09:03:03.026Z</time>
      </trkpt>
      <trkpt lat="48.70736" lon="2.53893">
        <ele>88</ele>
        <time>2022-10-26T09:03:08.039Z</time>
      </trkpt>
      <trkpt lat="48.70737" lon="2.53884">
        <ele>88</ele>
        <time>2022-10-26T09:03:13.038Z</time>
      </trkpt>
      <trkpt lat="48.70737" lon="2.53877">
        <ele>88</ele>
        <time>2022-10-26T09:03:18.034Z</time>
      </trkpt>
      <trkpt lat="48.7074" lon="2.53867">
        <ele>88</ele>
        <time>2022-10-26T09:03:23.050Z</time>
      </trkpt>
      <trkpt lat="48.70742" lon="2.53857">
        <ele>88</ele>
        <time>2022-10-26T09:03:28.047Z</time>
      </trkpt>
      <trkpt lat="48.70743" lon="2.53847">
        <ele>87</ele>
        <time>2022-10-26T09:03:33.038Z</time>
      </trkpt>
      <trkpt lat="48.70746" lon="2.53837">
        <ele>87</ele>
        <time>2022-10-26T09:03:38.027Z</time>
      </trkpt>
      <trkpt lat="48.70746" lon="2.5383">
        <ele>87</ele>
        <time>2022-10-26T09:03:43.028Z</time>
      </trkpt>
      <trkpt lat="48.70747" lon="2.53822">
        <ele>87</ele>
        <time>2022-10-26T09:03:48.034Z</time>
      </trkpt>
      <trkpt lat="48.70749" lon="2.53815">
        <ele>87</ele>
        <time>2022-10-26T09:03:52.047Z</time>
      </trkpt>
      <trkpt lat="48.70752" lon="2.53806">
        <ele>87</ele>
        <time>2022-10-26T09:03:57.044Z</time>
      </trkpt>
      <trkpt lat="48.70755" lon="2.53796">
        <ele>87</ele>
        <time>2022-10-26T09:04:02.039Z</time>
      </trkpt>
      <trkpt lat="48.70758" lon="2.5379">
        <ele>87</ele>
        <time>2022-10-26T09:04:07.041Z</time>
      </trkpt>
      <trkpt lat="48.70761" lon="2.53785">
        <ele>87</ele>
        <time>2022-10-26T09:04:11.047Z</time>
      </trkpt>
      <trkpt lat="48.70765" lon="2.53776">
        <ele>87</ele>
        <time>2022-10-26T09:04:16.031Z</time>
      </trkpt>
      <trkpt lat="48.70768" lon="2.53769">
        <ele>87</ele>
        <time>2022-10-26T09:04:21.047Z</time>
      </trkpt>
      <trkpt lat="48.70771" lon="2.53761">
        <ele>87</ele>
        <time>2022-10-26T09:04:26.031Z</time>
      </trkpt>
      <trkpt lat="48.70772" lon="2.53751">
        <ele>87</ele>
        <time>2022-10-26T09:04:31.027Z</time>
      </trkpt>
      <trkpt lat="48.70773" lon="2.53744">
        <ele>87</ele>
        <time>2022-10-26T09:04:36.027Z</time>
      </trkpt>
      <trkpt lat="48.70776" lon="2.53733">
        <ele>86</ele>
        <time>2022-10-26T09:04:41.044Z</time>
      </trkpt>
      <trkpt lat="48.70777" lon="2.53724">
        <ele>86</ele>
        <time>2022-10-26T09:04:46.047Z</time>
      </trkpt>
      <trkpt lat="48.70778" lon="2.53717">
        <ele>86</ele>
        <time>2022-10-26T09:04:50.043Z</time>
      </trkpt>
      <trkpt lat="48.70779" lon="2.53707">
        <ele>86</ele>
        <time>2022-10-26T09:04:55.040Z</time>
      </trkpt>
      <trkpt lat="48.70782" lon="2.53697">
        <ele>86</ele>
        <time>2022-10-26T09:05:00.036Z</time>
      </trkpt>
      <trkpt lat="48.70784" lon="2.53688">
        <ele>86</ele>
        <time>2022-10-26T09:05:05.048Z</time>
      </trkpt>
      <trkpt lat="48.70787" lon="2.53679">
        <ele>87</ele>
        <time>2022-10-26T09:05:10.043Z</time>
      </trkpt>
      <trkpt lat="48.70789" lon="2.5367">
        <ele>87</ele>
        <time>2022-10-26T09:05:15.042Z</time>
      </trkpt>
      <trkpt lat="48.70791" lon="2.53661">
        <ele>87</ele>
        <time>2022-10-26T09:05:20.035Z</time>
      </trkpt>
      <trkpt lat="48.70792" lon="2.5365">
        <ele>88</ele>
        <time>2022-10-26T09:05:25.053Z</time>
      </trkpt>
      <trkpt lat="48.70795" lon="2.5364">
        <ele>88</ele>
        <time>2022-10-26T09:05:30.038Z</time>
      </trkpt>
      <trkpt lat="48.70797" lon="2.5363">
        <ele>88</ele>
        <time>2022-10-26T09:05:35.044Z</time>
      </trkpt>
      <trkpt lat="48.708" lon="2.5362">
        <ele>88</ele>
        <time>2022-10-26T09:05:40.046Z</time>
      </trkpt>
      <trkpt lat="48.70803" lon="2.53609">
        <ele>88</ele>
        <time>2022-10-26T09:05:45.053Z</time>
      </trkpt>
      <trkpt lat="48.70804" lon="2.53601">
        <ele>88</ele>
        <time>2022-10-26T09:05:50.044Z</time>
      </trkpt>
      <trkpt lat="48.70806" lon="2.53593">
        <ele>89</ele>
        <time>2022-10-26T09:05:55.048Z</time>
      </trkpt>
      <trkpt lat="48.70808" lon="2.53583">
        <ele>89</ele>
        <time>2022-10-26T09:06:00.042Z</time>
      </trkpt>
      <trkpt lat="48.70809" lon="2.53575">
        <ele>89</ele>
        <time>2022-10-26T09:06:05.031Z</time>
      </trkpt>
      <trkpt lat="48.70808" lon="2.53568">
        <ele>89</ele>
        <time>2022-10-26T09:06:10.034Z</time>
      </trkpt>
      <trkpt lat="48.70811" lon="2.53547">
        <ele>89</ele>
        <time>2022-10-26T09:06:34.039Z</time>
      </trkpt>
      <trkpt lat="48.70812" lon="2.53543">
        <ele>89</ele>
        <time>2022-10-26T09:06:39.020Z</time>
      </trkpt>
      <trkpt lat="48.70811" lon="2.5354">
        <ele>89</ele>
        <time>2022-10-26T09:06:44.035Z</time>
      </trkpt>
      <trkpt lat="48.70812" lon="2.53534">
        <ele>89</ele>
        <time>2022-10-26T09:06:49.044Z</time>
      </trkpt>
      <trkpt lat="48.70812" lon="2.53524">
        <ele>89</ele>
        <time>2022-10-26T09:06:54.048Z</time>
      </trkpt>
      <trkpt lat="48.70812" lon="2.53517">
        <ele>89</ele>
        <time>2022-10-26T09:06:58.049Z</time>
      </trkpt>
      <trkpt lat="48.70813" lon="2.53509">
        <ele>88</ele>
        <time>2022-10-26T09:07:03.046Z</time>
      </trkpt>
      <trkpt lat="48.70815" lon="2.53504">
        <ele>88</ele>
        <time>2022-10-26T09:07:08.048Z</time>
      </trkpt>
      <trkpt lat="48.70816" lon="2.53502">
        <ele>88</ele>
        <time>2022-10-26T09:07:13.049Z</time>
      </trkpt>
      <trkpt lat="48.70817" lon="2.53497">
        <ele>88</ele>
        <time>2022-10-26T09:07:18.029Z</time>
      </trkpt>
      <trkpt lat="48.70817" lon="2.53494">
        <ele>88</ele>
        <time>2022-10-26T09:07:23.035Z</time>
      </trkpt>
      <trkpt lat="48.70818" lon="2.53486">
        <ele>87</ele>
        <time>2022-10-26T09:07:28.039Z</time>
      </trkpt>
      <trkpt lat="48.70817" lon="2.53479">
        <ele>87</ele>
        <time>2022-10-26T09:07:33.040Z</time>
      </trkpt>
      <trkpt lat="48.70818" lon="2.53471">
        <ele>87</ele>
        <time>2022-10-26T09:07:38.046Z</time>
      </trkpt>
      <trkpt lat="48.70819" lon="2.53462">
        <ele>87</ele>
        <time>2022-10-26T09:07:43.036Z</time>
      </trkpt>
      <trkpt lat="48.70819" lon="2.53452">
        <ele>87</ele>
        <time>2022-10-26T09:07:48.035Z</time>
      </trkpt>
      <trkpt lat="48.70819" lon="2.53442">
        <ele>87</ele>
        <time>2022-10-26T09:07:53.034Z</time>
      </trkpt>
      <trkpt lat="48.7082" lon="2.53434">
        <ele>87</ele>
        <time>2022-10-26T09:07:58.051Z</time>
      </trkpt>
      <trkpt lat="48.70821" lon="2.53425">
        <ele>86</ele>
        <time>2022-10-26T09:08:03.047Z</time>
      </trkpt>
      <trkpt lat="48.70821" lon="2.53416">
        <ele>86</ele>
        <time>2022-10-26T09:08:08.042Z</time>
      </trkpt>
      <trkpt lat="48.70822" lon="2.5341">
        <ele>86</ele>
        <time>2022-10-26T09:08:13.034Z</time>
      </trkpt>
      <trkpt lat="48.70823" lon="2.53409">
        <ele>86</ele>
        <time>2022-10-26T09:08:23.042Z</time>
      </trkpt>
      <trkpt lat="48.70824" lon="2.5341">
        <ele>86</ele>
        <time>2022-10-26T09:08:28.054Z</time>
      </trkpt>
      <trkpt lat="48.70826" lon="2.5341">
        <ele>86</ele>
        <time>2022-10-26T09:08:33.033Z</time>
      </trkpt>
      <trkpt lat="48.70827" lon="2.53406">
        <ele>86</ele>
        <time>2022-10-26T09:08:38.052Z</time>
      </trkpt>
      <trkpt lat="48.70826" lon="2.53395">
        <ele>86</ele>
        <time>2022-10-26T09:08:48.027Z</time>
      </trkpt>
      <trkpt lat="48.70829" lon="2.53389">
        <ele>86</ele>
        <time>2022-10-26T09:08:53.042Z</time>
      </trkpt>
      <trkpt lat="48.70833" lon="2.53386">
        <ele>86</ele>
        <time>2022-10-26T09:08:57.036Z</time>
      </trkpt>
      <trkpt lat="48.7084" lon="2.53388">
        <ele>86</ele>
        <time>2022-10-26T09:09:02.026Z</time>
      </trkpt>
      <trkpt lat="48.70845" lon="2.53388">
        <ele>86</ele>
        <time>2022-10-26T09:09:06.026Z</time>
      </trkpt>
      <trkpt lat="48.7085" lon="2.53389">
        <ele>88</ele>
        <time>2022-10-26T09:09:11.026Z</time>
      </trkpt>
      <trkpt lat="48.70856" lon="2.53391">
        <ele>88</ele>
        <time>2022-10-26T09:09:16.049Z</time>
      </trkpt>
      <trkpt lat="48.70861" lon="2.5339">
        <ele>88</ele>
        <time>2022-10-26T09:09:21.042Z</time>
      </trkpt>
      <trkpt lat="48.70867" lon="2.53392">
        <ele>88</ele>
        <time>2022-10-26T09:09:26.047Z</time>
      </trkpt>
      <trkpt lat="48.70874" lon="2.53395">
        <ele>88</ele>
        <time>2022-10-26T09:09:31.047Z</time>
      </trkpt>
      <trkpt lat="48.70879" lon="2.53394">
        <ele>88</ele>
        <time>2022-10-26T09:09:36.053Z</time>
      </trkpt>
      <trkpt lat="48.70886" lon="2.53394">
        <ele>88</ele>
        <time>2022-10-26T09:09:41.051Z</time>
      </trkpt>
      <trkpt lat="48.70892" lon="2.53395">
        <ele>88</ele>
        <time>2022-10-26T09:09:46.043Z</time>
      </trkpt>
      <trkpt lat="48.70898" lon="2.53395">
        <ele>88</ele>
        <time>2022-10-26T09:09:51.025Z</time>
      </trkpt>
      <trkpt lat="48.70906" lon="2.53397">
        <ele>88</ele>
        <time>2022-10-26T09:09:56.034Z</time>
      </trkpt>
      <trkpt lat="48.7091" lon="2.53398">
        <ele>88</ele>
        <time>2022-10-26T09:10:00.044Z</time>
      </trkpt>
      <trkpt lat="48.70918" lon="2.534">
        <ele>88</ele>
        <time>2022-10-26T09:10:05.025Z</time>
      </trkpt>
      <trkpt lat="48.70924" lon="2.53404">
        <ele>88</ele>
        <time>2022-10-26T09:10:10.065Z</time>
      </trkpt>
      <trkpt lat="48.70929" lon="2.53405">
        <ele>88</ele>
        <time>2022-10-26T09:10:15.055Z</time>
      </trkpt>
      <trkpt lat="48.70934" lon="2.5341">
        <ele>88</ele>
        <time>2022-10-26T09:10:20.040Z</time>
      </trkpt>
      <trkpt lat="48.70938" lon="2.53413">
        <ele>88</ele>
        <time>2022-10-26T09:10:25.036Z</time>
      </trkpt>
      <trkpt lat="48.70944" lon="2.5342">
        <ele>88</ele>
        <time>2022-10-26T09:10:30.032Z</time>
      </trkpt>
      <trkpt lat="48.70949" lon="2.53424">
        <ele>88</ele>
        <time>2022-10-26T09:10:35.036Z</time>
      </trkpt>
      <trkpt lat="48.70953" lon="2.53426">
        <ele>88</ele>
        <time>2022-10-26T09:10:40.026Z</time>
      </trkpt>
      <trkpt lat="48.70958" lon="2.5343">
        <ele>88</ele>
        <time>2022-10-26T09:10:45.038Z</time>
      </trkpt>
      <trkpt lat="48.70963" lon="2.53435">
        <ele>89</ele>
        <time>2022-10-26T09:10:50.027Z</time>
      </trkpt>
      <trkpt lat="48.70967" lon="2.53439">
        <ele>89</ele>
        <time>2022-10-26T09:10:54.051Z</time>
      </trkpt>
      <trkpt lat="48.70971" lon="2.53445">
        <ele>89</ele>
        <time>2022-10-26T09:10:59.053Z</time>
      </trkpt>
      <trkpt lat="48.70976" lon="2.53452">
        <ele>89</ele>
        <time>2022-10-26T09:11:04.054Z</time>
      </trkpt>
      <trkpt lat="48.70983" lon="2.53457">
        <ele>89</ele>
        <time>2022-10-26T09:11:09.048Z</time>
      </trkpt>
      <trkpt lat="48.70988" lon="2.53461">
        <ele>90</ele>
        <time>2022-10-26T09:11:14.029Z</time>
      </trkpt>
      <trkpt lat="48.70995" lon="2.53466">
        <ele>90</ele>
        <time>2022-10-26T09:11:19.041Z</time>
      </trkpt>
      <trkpt lat="48.71" lon="2.53471">
        <ele>90</ele>
        <time>2022-10-26T09:11:24.050Z</time>
      </trkpt>
      <trkpt lat="48.71006" lon="2.53475">
        <ele>90</ele>
        <time>2022-10-26T09:11:29.034Z</time>
      </trkpt>
      <trkpt lat="48.71012" lon="2.53478">
        <ele>90</ele>
        <time>2022-10-26T09:11:34.028Z</time>
      </trkpt>
      <trkpt lat="48.71019" lon="2.53482">
        <ele>91</ele>
        <time>2022-10-26T09:11:39.027Z</time>
      </trkpt>
      <trkpt lat="48.71024" lon="2.53487">
        <ele>90</ele>
        <time>2022-10-26T09:11:44.058Z</time>
      </trkpt>
      <trkpt lat="48.71029" lon="2.53491">
        <ele>90</ele>
        <time>2022-10-26T09:11:49.023Z</time>
      </trkpt>
      <trkpt lat="48.71034" lon="2.53493">
        <ele>90</ele>
        <time>2022-10-26T09:11:53.028Z</time>
      </trkpt>
      <trkpt lat="48.71038" lon="2.535">
        <ele>90</ele>
        <time>2022-10-26T09:11:58.025Z</time>
      </trkpt>
      <trkpt lat="48.71043" lon="2.53505">
        <ele>89</ele>
        <time>2022-10-26T09:12:03.040Z</time>
      </trkpt>
      <trkpt lat="48.71048" lon="2.53509">
        <ele>89</ele>
        <time>2022-10-26T09:12:08.038Z</time>
      </trkpt>
      <trkpt lat="48.71053" lon="2.53514">
        <ele>88</ele>
        <time>2022-10-26T09:12:13.033Z</time>
      </trkpt>
      <trkpt lat="48.71058" lon="2.53518">
        <ele>88</ele>
        <time>2022-10-26T09:12:18.021Z</time>
      </trkpt>
      <trkpt lat="48.71063" lon="2.53523">
        <ele>88</ele>
        <time>2022-10-26T09:12:23.044Z</time>
      </trkpt>
      <trkpt lat="48.71068" lon="2.53525">
        <ele>88</ele>
        <time>2022-10-26T09:12:28.029Z</time>
      </trkpt>
      <trkpt lat="48.71074" lon="2.53531">
        <ele>88</ele>
        <time>2022-10-26T09:12:33.033Z</time>
      </trkpt>
      <trkpt lat="48.7108" lon="2.53536">
        <ele>88</ele>
        <time>2022-10-26T09:12:38.042Z</time>
      </trkpt>
      <trkpt lat="48.71086" lon="2.53544">
        <ele>88</ele>
        <time>2022-10-26T09:12:43.037Z</time>
      </trkpt>
      <trkpt lat="48.71091" lon="2.53551">
        <ele>88</ele>
        <time>2022-10-26T09:12:48.019Z</time>
      </trkpt>
      <trkpt lat="48.71096" lon="2.53554">
        <ele>88</ele>
        <time>2022-10-26T09:12:53.036Z</time>
      </trkpt>
      <trkpt lat="48.71101" lon="2.53562">
        <ele>88</ele>
        <time>2022-10-26T09:12:58.034Z</time>
      </trkpt>
      <trkpt lat="48.71107" lon="2.53566">
        <ele>88</ele>
        <time>2022-10-26T09:13:03.044Z</time>
      </trkpt>
      <trkpt lat="48.71112" lon="2.53573">
        <ele>87</ele>
        <time>2022-10-26T09:13:08.023Z</time>
      </trkpt>
      <trkpt lat="48.71116" lon="2.5358">
        <ele>87</ele>
        <time>2022-10-26T09:13:13.024Z</time>
      </trkpt>
      <trkpt lat="48.7112" lon="2.53583">
        <ele>87</ele>
        <time>2022-10-26T09:13:18.024Z</time>
      </trkpt>
      <trkpt lat="48.71122" lon="2.53585">
        <ele>87</ele>
        <time>2022-10-26T09:13:22.054Z</time>
      </trkpt>
      <trkpt lat="48.71129" lon="2.53591">
        <ele>86</ele>
        <time>2022-10-26T09:13:27.039Z</time>
      </trkpt>
      <trkpt lat="48.71135" lon="2.53595">
        <ele>86</ele>
        <time>2022-10-26T09:13:32.032Z</time>
      </trkpt>
      <trkpt lat="48.71138" lon="2.53602">
        <ele>87</ele>
        <time>2022-10-26T09:13:37.030Z</time>
      </trkpt>
      <trkpt lat="48.71141" lon="2.53608">
        <ele>87</ele>
        <time>2022-10-26T09:13:42.029Z</time>
      </trkpt>
      <trkpt lat="48.71145" lon="2.53614">
        <ele>87</ele>
        <time>2022-10-26T09:13:46.053Z</time>
      </trkpt>
      <trkpt lat="48.71148" lon="2.53624">
        <ele>87</ele>
        <time>2022-10-26T09:13:51.047Z</time>
      </trkpt>
      <trkpt lat="48.71151" lon="2.5363">
        <ele>88</ele>
        <time>2022-10-26T09:13:56.046Z</time>
      </trkpt>
      <trkpt lat="48.71152" lon="2.53639">
        <ele>88</ele>
        <time>2022-10-26T09:14:01.036Z</time>
      </trkpt>
      <trkpt lat="48.71155" lon="2.53647">
        <ele>89</ele>
        <time>2022-10-26T09:14:06.029Z</time>
      </trkpt>
      <trkpt lat="48.71158" lon="2.53655">
        <ele>89</ele>
        <time>2022-10-26T09:14:11.046Z</time>
      </trkpt>
      <trkpt lat="48.7116" lon="2.53663">
        <ele>89</ele>
        <time>2022-10-26T09:14:16.031Z</time>
      </trkpt>
      <trkpt lat="48.71162" lon="2.53672">
        <ele>89</ele>
        <time>2022-10-26T09:14:21.037Z</time>
      </trkpt>
      <trkpt lat="48.71166" lon="2.53681">
        <ele>89</ele>
        <time>2022-10-26T09:14:26.042Z</time>
      </trkpt>
      <trkpt lat="48.71169" lon="2.53691">
        <ele>89</ele>
        <time>2022-10-26T09:14:31.045Z</time>
      </trkpt>
      <trkpt lat="48.71171" lon="2.537">
        <ele>89</ele>
        <time>2022-10-26T09:14:36.029Z</time>
      </trkpt>
      <trkpt lat="48.71173" lon="2.53708">
        <ele>89</ele>
        <time>2022-10-26T09:14:40.036Z</time>
      </trkpt>
      <trkpt lat="48.71176" lon="2.53716">
        <ele>89</ele>
        <time>2022-10-26T09:14:45.030Z</time>
      </trkpt>
      <trkpt lat="48.71178" lon="2.53724">
        <ele>89</ele>
        <time>2022-10-26T09:14:50.047Z</time>
      </trkpt>
      <trkpt lat="48.7118" lon="2.53733">
        <ele>89</ele>
        <time>2022-10-26T09:14:55.028Z</time>
      </trkpt>
      <trkpt lat="48.71183" lon="2.53742">
        <ele>89</ele>
        <time>2022-10-26T09:15:00.051Z</time>
      </trkpt>
      <trkpt lat="48.71186" lon="2.53749">
        <ele>89</ele>
        <time>2022-10-26T09:15:05.027Z</time>
      </trkpt>
      <trkpt lat="48.71187" lon="2.53754">
        <ele>89</ele>
        <time>2022-10-26T09:15:08.066Z</time>
      </trkpt>
      <trkpt lat="48.71192" lon="2.53762">
        <ele>89</ele>
        <time>2022-10-26T09:15:14.036Z</time>
      </trkpt>
      <trkpt lat="48.71195" lon="2.53771">
        <ele>88</ele>
        <time>2022-10-26T09:15:19.037Z</time>
      </trkpt>
      <trkpt lat="48.71198" lon="2.53779">
        <ele>88</ele>
        <time>2022-10-26T09:15:23.045Z</time>
      </trkpt>
      <trkpt lat="48.712" lon="2.53788">
        <ele>88</ele>
        <time>2022-10-26T09:15:28.037Z</time>
      </trkpt>
      <trkpt lat="48.71203" lon="2.53798">
        <ele>88</ele>
        <time>2022-10-26T09:15:33.023Z</time>
      </trkpt>
      <trkpt lat="48.71204" lon="2.53806">
        <ele>88</ele>
        <time>2022-10-26T09:15:38.019Z</time>
      </trkpt>
      <trkpt lat="48.71207" lon="2.53812">
        <ele>88</ele>
        <time>2022-10-26T09:15:42.024Z</time>
      </trkpt>
      <trkpt lat="48.7121" lon="2.53822">
        <ele>87</ele>
        <time>2022-10-26T09:15:47.043Z</time>
      </trkpt>
      <trkpt lat="48.71211" lon="2.53832">
        <ele>87</ele>
        <time>2022-10-26T09:15:52.048Z</time>
      </trkpt>
      <trkpt lat="48.71214" lon="2.5384">
        <ele>87</ele>
        <time>2022-10-26T09:15:57.043Z</time>
      </trkpt>
      <trkpt lat="48.71216" lon="2.53847">
        <ele>87</ele>
        <time>2022-10-26T09:16:02.046Z</time>
      </trkpt>
      <trkpt lat="48.71219" lon="2.53855">
        <ele>87</ele>
        <time>2022-10-26T09:16:07.046Z</time>
      </trkpt>
      <trkpt lat="48.71226" lon="2.53859">
        <ele>87</ele>
        <time>2022-10-26T09:16:12.051Z</time>
      </trkpt>
      <trkpt lat="48.71232" lon="2.53857">
        <ele>87</ele>
        <time>2022-10-26T09:16:17.042Z</time>
      </trkpt>
      <trkpt lat="48.71239" lon="2.53851">
        <ele>87</ele>
        <time>2022-10-26T09:16:22.035Z</time>
      </trkpt>
      <trkpt lat="48.71245" lon="2.53848">
        <ele>87</ele>
        <time>2022-10-26T09:16:27.033Z</time>
      </trkpt>
      <trkpt lat="48.71249" lon="2.53844">
        <ele>86</ele>
        <time>2022-10-26T09:16:31.020Z</time>
      </trkpt>
      <trkpt lat="48.71253" lon="2.53841">
        <ele>86</ele>
        <time>2022-10-26T09:16:35.021Z</time>
      </trkpt>
      <trkpt lat="48.71258" lon="2.53839">
        <ele>86</ele>
        <time>2022-10-26T09:16:40.038Z</time>
      </trkpt>
      <trkpt lat="48.71265" lon="2.53835">
        <ele>86</ele>
        <time>2022-10-26T09:16:45.023Z</time>
      </trkpt>
      <trkpt lat="48.71272" lon="2.5383">
        <ele>86</ele>
        <time>2022-10-26T09:16:50.044Z</time>
      </trkpt>
      <trkpt lat="48.71276" lon="2.53828">
        <ele>86</ele>
        <time>2022-10-26T09:16:54.047Z</time>
      </trkpt>
      <trkpt lat="48.71281" lon="2.53825">
        <ele>86</ele>
        <time>2022-10-26T09:16:59.030Z</time>
      </trkpt>
      <trkpt lat="48.71286" lon="2.53822">
        <ele>86</ele>
        <time>2022-10-26T09:17:04.043Z</time>
      </trkpt>
      <trkpt lat="48.71293" lon="2.53818">
        <ele>85</ele>
        <time>2022-10-26T09:17:09.043Z</time>
      </trkpt>
      <trkpt lat="48.71299" lon="2.53814">
        <ele>85</ele>
        <time>2022-10-26T09:17:14.031Z</time>
      </trkpt>
      <trkpt lat="48.71306" lon="2.53811">
        <ele>85</ele>
        <time>2022-10-26T09:17:19.023Z</time>
      </trkpt>
      <trkpt lat="48.71313" lon="2.53806">
        <ele>85</ele>
        <time>2022-10-26T09:17:24.033Z</time>
      </trkpt>
      <trkpt lat="48.71319" lon="2.53801">
        <ele>85</ele>
        <time>2022-10-26T09:17:29.044Z</time>
      </trkpt>
      <trkpt lat="48.71326" lon="2.53798">
        <ele>85</ele>
        <time>2022-10-26T09:17:34.038Z</time>
      </trkpt>
      <trkpt lat="48.71333" lon="2.53795">
        <ele>85</ele>
        <time>2022-10-26T09:17:39.049Z</time>
      </trkpt>
      <trkpt lat="48.71338" lon="2.5379">
        <ele>85</ele>
        <time>2022-10-26T09:17:44.047Z</time>
      </trkpt>
      <trkpt lat="48.71344" lon="2.53787">
        <ele>85</ele>
        <time>2022-10-26T09:17:49.050Z</time>
      </trkpt>
      <trkpt lat="48.7135" lon="2.53784">
        <ele>83</ele>
        <time>2022-10-26T09:17:54.036Z</time>
      </trkpt>
      <trkpt lat="48.71356" lon="2.53781">
        <ele>83</ele>
        <time>2022-10-26T09:17:59.043Z</time>
      </trkpt>
      <trkpt lat="48.71361" lon="2.5378">
        <ele>83</ele>
        <time>2022-10-26T09:18:04.043Z</time>
      </trkpt>
      <trkpt lat="48.71367" lon="2.53777">
        <ele>83</ele>
        <time>2022-10-26T09:18:09.031Z</time>
      </trkpt>
      <trkpt lat="48.7137" lon="2.53774">
        <ele>83</ele>
        <time>2022-10-26T09:18:14.024Z</time>
      </trkpt>
      <trkpt lat="48.71375" lon="2.53771">
        <ele>83</ele>
        <time>2022-10-26T09:18:19.039Z</time>
      </trkpt>
      <trkpt lat="48.71382" lon="2.53768">
        <ele>81</ele>
        <time>2022-10-26T09:18:24.043Z</time>
      </trkpt>
      <trkpt lat="48.71388" lon="2.53763">
        <ele>80</ele>
        <time>2022-10-26T09:18:29.037Z</time>
      </trkpt>
      <trkpt lat="48.71394" lon="2.5376">
        <ele>80</ele>
        <time>2022-10-26T09:18:34.040Z</time>
      </trkpt>
      <trkpt lat="48.714" lon="2.53757">
        <ele>80</ele>
        <time>2022-10-26T09:18:39.048Z</time>
      </trkpt>
      <trkpt lat="48.71406" lon="2.53755">
        <ele>80</ele>
        <time>2022-10-26T09:18:44.039Z</time>
      </trkpt>
      <trkpt lat="48.71412" lon="2.53751">
        <ele>80</ele>
        <time>2022-10-26T09:18:49.035Z</time>
      </trkpt>
      <trkpt lat="48.7142" lon="2.53749">
        <ele>80</ele>
        <time>2022-10-26T09:18:54.048Z</time>
      </trkpt>
      <trkpt lat="48.71426" lon="2.53749">
        <ele>80</ele>
        <time>2022-10-26T09:18:59.043Z</time>
      </trkpt>
      <trkpt lat="48.71433" lon="2.53745">
        <ele>78</ele>
        <time>2022-10-26T09:19:04.053Z</time>
      </trkpt>
      <trkpt lat="48.7144" lon="2.5374">
        <ele>78</ele>
        <time>2022-10-26T09:19:09.044Z</time>
      </trkpt>
      <trkpt lat="48.71446" lon="2.53736">
        <ele>77</ele>
        <time>2022-10-26T09:19:14.044Z</time>
      </trkpt>
      <trkpt lat="48.71452" lon="2.53733">
        <ele>77</ele>
        <time>2022-10-26T09:19:19.046Z</time>
      </trkpt>
      <trkpt lat="48.71457" lon="2.53729">
        <ele>77</ele>
        <time>2022-10-26T09:19:24.059Z</time>
      </trkpt>
      <trkpt lat="48.71457" lon="2.53726">
        <ele>77</ele>
        <time>2022-10-26T09:19:29.072Z</time>
      </trkpt>
      <trkpt lat="48.7146" lon="2.53724">
        <ele>74</ele>
        <time>2022-10-26T09:19:34.070Z</time>
      </trkpt>
      <trkpt lat="48.71466" lon="2.53724">
        <ele>74</ele>
        <time>2022-10-26T09:19:39.058Z</time>
      </trkpt>
      <trkpt lat="48.71471" lon="2.53724">
        <ele>74</ele>
        <time>2022-10-26T09:19:43.062Z</time>
      </trkpt>
      <trkpt lat="48.71477" lon="2.53723">
        <ele>74</ele>
        <time>2022-10-26T09:19:48.041Z</time>
      </trkpt>
      <trkpt lat="48.71483" lon="2.53721">
        <ele>74</ele>
        <time>2022-10-26T09:19:53.040Z</time>
      </trkpt>
      <trkpt lat="48.71485" lon="2.53713">
        <ele>74</ele>
        <time>2022-10-26T09:19:57.172Z</time>
      </trkpt>
      <trkpt lat="48.71483" lon="2.53705">
        <ele>73</ele>
        <time>2022-10-26T09:20:02.098Z</time>
      </trkpt>
      <trkpt lat="48.71482" lon="2.53692">
        <ele>73</ele>
        <time>2022-10-26T09:20:08.042Z</time>
      </trkpt>
      <trkpt lat="48.7148" lon="2.53681">
        <ele>73</ele>
        <time>2022-10-26T09:20:13.052Z</time>
      </trkpt>
      <trkpt lat="48.71479" lon="2.53675">
        <ele>73</ele>
        <time>2022-10-26T09:20:18.037Z</time>
      </trkpt>
      <trkpt lat="48.7148" lon="2.53674">
        <ele>73</ele>
        <time>2022-10-26T09:20:23.054Z</time>
      </trkpt>
      <trkpt lat="48.71478" lon="2.53671">
        <ele>73</ele>
        <time>2022-10-26T09:20:28.062Z</time>
      </trkpt>
      <trkpt lat="48.71478" lon="2.53667">
        <ele>73</ele>
        <time>2022-10-26T09:20:33.049Z</time>
      </trkpt>
      <trkpt lat="48.71477" lon="2.53662">
        <ele>73</ele>
        <time>2022-10-26T09:20:37.059Z</time>
      </trkpt>
      <trkpt lat="48.71474" lon="2.53651">
        <ele>73</ele>
        <time>2022-10-26T09:20:42.054Z</time>
      </trkpt>
      <trkpt lat="48.71473" lon="2.53641">
        <ele>73</ele>
        <time>2022-10-26T09:20:47.040Z</time>
      </trkpt>
      <trkpt lat="48.71471" lon="2.53633">
        <ele>73</ele>
        <time>2022-10-26T09:20:51.063Z</time>
      </trkpt>
      <trkpt lat="48.71468" lon="2.53624">
        <ele>74</ele>
        <time>2022-10-26T09:20:56.036Z</time>
      </trkpt>
      <trkpt lat="48.71466" lon="2.53618">
        <ele>74</ele>
        <time>2022-10-26T09:21:00.048Z</time>
      </trkpt>
      <trkpt lat="48.71463" lon="2.5361">
        <ele>74</ele>
        <time>2022-10-26T09:21:05.042Z</time>
      </trkpt>
      <trkpt lat="48.71461" lon="2.53601">
        <ele>74</ele>
        <time>2022-10-26T09:21:10.058Z</time>
      </trkpt>
      <trkpt lat="48.7146" lon="2.53595">
        <ele>75</ele>
        <time>2022-10-26T09:21:14.063Z</time>
      </trkpt>
      <trkpt lat="48.71461" lon="2.53588">
        <ele>75</ele>
        <time>2022-10-26T09:21:19.062Z</time>
      </trkpt>
      <trkpt lat="48.71462" lon="2.53587">
        <ele>75</ele>
        <time>2022-10-26T09:21:24.043Z</time>
      </trkpt>
      <trkpt lat="48.71466" lon="2.53586">
        <ele>75</ele>
        <time>2022-10-26T09:21:29.064Z</time>
      </trkpt>
      <trkpt lat="48.71469" lon="2.53586">
        <ele>75</ele>
        <time>2022-10-26T09:21:34.076Z</time>
      </trkpt>
      <trkpt lat="48.71476" lon="2.53584">
        <ele>75</ele>
        <time>2022-10-26T09:21:39.063Z</time>
      </trkpt>
      <trkpt lat="48.71484" lon="2.53585">
        <ele>75</ele>
        <time>2022-10-26T09:21:44.070Z</time>
      </trkpt>
      <trkpt lat="48.7149" lon="2.53582">
        <ele>71</ele>
        <time>2022-10-26T09:21:49.060Z</time>
      </trkpt>
      <trkpt lat="48.71494" lon="2.5358">
        <ele>71</ele>
        <time>2022-10-26T09:21:54.059Z</time>
      </trkpt>
      <trkpt lat="48.71498" lon="2.53577">
        <ele>71</ele>
        <time>2022-10-26T09:21:59.062Z</time>
      </trkpt>
      <trkpt lat="48.71504" lon="2.53573">
        <ele>71</ele>
        <time>2022-10-26T09:22:04.045Z</time>
      </trkpt>
      <trkpt lat="48.7151" lon="2.53566">
        <ele>70</ele>
        <time>2022-10-26T09:22:09.049Z</time>
      </trkpt>
      <trkpt lat="48.71515" lon="2.53562">
        <ele>67</ele>
        <time>2022-10-26T09:22:14.043Z</time>
      </trkpt>
      <trkpt lat="48.71519" lon="2.53558">
        <ele>67</ele>
        <time>2022-10-26T09:22:19.062Z</time>
      </trkpt>
      <trkpt lat="48.71523" lon="2.53553">
        <ele>67</ele>
        <time>2022-10-26T09:22:24.062Z</time>
      </trkpt>
      <trkpt lat="48.71528" lon="2.53547">
        <ele>67</ele>
        <time>2022-10-26T09:22:29.051Z</time>
      </trkpt>
      <trkpt lat="48.7153" lon="2.53545">
        <ele>67</ele>
        <time>2022-10-26T09:22:33.099Z</time>
      </trkpt>
      <trkpt lat="48.71533" lon="2.53537">
        <ele>66</ele>
        <time>2022-10-26T09:22:38.066Z</time>
      </trkpt>
      <trkpt lat="48.71537" lon="2.53531">
        <ele>66</ele>
        <time>2022-10-26T09:22:43.061Z</time>
      </trkpt>
      <trkpt lat="48.71541" lon="2.53524">
        <ele>66</ele>
        <time>2022-10-26T09:22:48.047Z</time>
      </trkpt>
      <trkpt lat="48.71544" lon="2.53522">
        <ele>63</ele>
        <time>2022-10-26T09:22:53.053Z</time>
      </trkpt>
      <trkpt lat="48.71546" lon="2.53518">
        <ele>63</ele>
        <time>2022-10-26T09:22:58.067Z</time>
      </trkpt>
      <trkpt lat="48.71545" lon="2.53516">
        <ele>63</ele>
        <time>2022-10-26T09:23:42.070Z</time>
      </trkpt>
      <trkpt lat="48.71548" lon="2.53511">
        <ele>61</ele>
        <time>2022-10-26T09:23:47.044Z</time>
      </trkpt>
      <trkpt lat="48.7155" lon="2.53506">
        <ele>61</ele>
        <time>2022-10-26T09:23:51.059Z</time>
      </trkpt>
      <trkpt lat="48.7155" lon="2.53502">
        <ele>61</ele>
        <time>2022-10-26T09:23:56.058Z</time>
      </trkpt>
      <trkpt lat="48.71551" lon="2.53496">
        <ele>61</ele>
        <time>2022-10-26T09:24:01.049Z</time>
      </trkpt>
      <trkpt lat="48.71552" lon="2.5349">
        <ele>61</ele>
        <time>2022-10-26T09:24:06.075Z</time>
      </trkpt>
      <trkpt lat="48.71556" lon="2.53484">
        <ele>60</ele>
        <time>2022-10-26T09:24:11.074Z</time>
      </trkpt>
      <trkpt lat="48.71558" lon="2.53483">
        <ele>60</ele>
        <time>2022-10-26T09:24:16.072Z</time>
      </trkpt>
      <trkpt lat="48.71562" lon="2.53473">
        <ele>60</ele>
        <time>2022-10-26T09:24:21.061Z</time>
      </trkpt>
      <trkpt lat="48.71564" lon="2.53466">
        <ele>60</ele>
        <time>2022-10-26T09:24:25.074Z</time>
      </trkpt>
      <trkpt lat="48.71568" lon="2.53457">
        <ele>59</ele>
        <time>2022-10-26T09:24:30.084Z</time>
      </trkpt>
      <trkpt lat="48.71569" lon="2.53449">
        <ele>59</ele>
        <time>2022-10-26T09:24:35.069Z</time>
      </trkpt>
      <trkpt lat="48.71573" lon="2.53442">
        <ele>56</ele>
        <time>2022-10-26T09:24:40.047Z</time>
      </trkpt>
      <trkpt lat="48.71576" lon="2.53431">
        <ele>56</ele>
        <time>2022-10-26T09:24:45.037Z</time>
      </trkpt>
      <trkpt lat="48.7158" lon="2.53423">
        <ele>56</ele>
        <time>2022-10-26T09:24:50.044Z</time>
      </trkpt>
      <trkpt lat="48.71582" lon="2.53414">
        <ele>56</ele>
        <time>2022-10-26T09:24:55.053Z</time>
      </trkpt>
      <trkpt lat="48.7159" lon="2.53406">
        <ele>56</ele>
        <time>2022-10-26T09:25:00.046Z</time>
      </trkpt>
      <trkpt lat="48.71595" lon="2.53395">
        <ele>56</ele>
        <time>2022-10-26T09:25:04.047Z</time>
      </trkpt>
      <trkpt lat="48.716" lon="2.53383">
        <ele>56</ele>
        <time>2022-10-26T09:25:09.042Z</time>
      </trkpt>
      <trkpt lat="48.71603" lon="2.53373">
        <ele>57</ele>
        <time>2022-10-26T09:25:14.056Z</time>
      </trkpt>
      <trkpt lat="48.71604" lon="2.53365">
        <ele>57</ele>
        <time>2022-10-26T09:25:19.059Z</time>
      </trkpt>
      <trkpt lat="48.71605" lon="2.53358">
        <ele>57</ele>
        <time>2022-10-26T09:25:24.057Z</time>
      </trkpt>
      <trkpt lat="48.71608" lon="2.53348">
        <ele>57</ele>
        <time>2022-10-26T09:25:29.046Z</time>
      </trkpt>
      <trkpt lat="48.71608" lon="2.53345">
        <ele>57</ele>
        <time>2022-10-26T09:25:34.038Z</time>
      </trkpt>
      <trkpt lat="48.71606" lon="2.53342">
        <ele>57</ele>
        <time>2022-10-26T09:25:39.054Z</time>
      </trkpt>
      <trkpt lat="48.71604" lon="2.53336">
        <ele>57</ele>
        <time>2022-10-26T09:25:43.051Z</time>
      </trkpt>
      <trkpt lat="48.716" lon="2.5333">
        <ele>57</ele>
        <time>2022-10-26T09:25:48.043Z</time>
      </trkpt>
      <trkpt lat="48.71598" lon="2.53323">
        <ele>57</ele>
        <time>2022-10-26T09:25:52.047Z</time>
      </trkpt>
      <trkpt lat="48.71594" lon="2.53314">
        <ele>57</ele>
        <time>2022-10-26T09:25:57.057Z</time>
      </trkpt>
      <trkpt lat="48.7159" lon="2.53307">
        <ele>57</ele>
        <time>2022-10-26T09:26:02.046Z</time>
      </trkpt>
      <trkpt lat="48.71588" lon="2.53301">
        <ele>57</ele>
        <time>2022-10-26T09:26:07.044Z</time>
      </trkpt>
      <trkpt lat="48.71586" lon="2.53294">
        <ele>57</ele>
        <time>2022-10-26T09:26:12.057Z</time>
      </trkpt>
      <trkpt lat="48.71583" lon="2.53284">
        <ele>56</ele>
        <time>2022-10-26T09:26:17.042Z</time>
      </trkpt>
      <trkpt lat="48.7158" lon="2.53277">
        <ele>56</ele>
        <time>2022-10-26T09:26:21.053Z</time>
      </trkpt>
      <trkpt lat="48.71576" lon="2.5327">
        <ele>56</ele>
        <time>2022-10-26T09:26:25.070Z</time>
      </trkpt>
      <trkpt lat="48.71572" lon="2.5326">
        <ele>56</ele>
        <time>2022-10-26T09:26:30.048Z</time>
      </trkpt>
      <trkpt lat="48.7157" lon="2.53252">
        <ele>56</ele>
        <time>2022-10-26T09:26:34.070Z</time>
      </trkpt>
      <trkpt lat="48.71566" lon="2.53245">
        <ele>58</ele>
        <time>2022-10-26T09:26:39.045Z</time>
      </trkpt>
      <trkpt lat="48.71563" lon="2.53236">
        <ele>58</ele>
        <time>2022-10-26T09:26:44.055Z</time>
      </trkpt>
      <trkpt lat="48.71563" lon="2.53227">
        <ele>57</ele>
        <time>2022-10-26T09:26:49.045Z</time>
      </trkpt>
      <trkpt lat="48.71559" lon="2.5322">
        <ele>57</ele>
        <time>2022-10-26T09:26:54.058Z</time>
      </trkpt>
      <trkpt lat="48.71556" lon="2.53212">
        <ele>57</ele>
        <time>2022-10-26T09:26:59.055Z</time>
      </trkpt>
      <trkpt lat="48.71553" lon="2.53204">
        <ele>56</ele>
        <time>2022-10-26T09:27:04.058Z</time>
      </trkpt>
      <trkpt lat="48.71551" lon="2.53194">
        <ele>56</ele>
        <time>2022-10-26T09:27:09.047Z</time>
      </trkpt>
      <trkpt lat="48.7155" lon="2.53186">
        <ele>56</ele>
        <time>2022-10-26T09:27:14.051Z</time>
      </trkpt>
      <trkpt lat="48.71547" lon="2.5318">
        <ele>56</ele>
        <time>2022-10-26T09:27:18.049Z</time>
      </trkpt>
      <trkpt lat="48.71546" lon="2.53172">
        <ele>56</ele>
        <time>2022-10-26T09:27:23.048Z</time>
      </trkpt>
      <trkpt lat="48.71545" lon="2.53164">
        <ele>56</ele>
        <time>2022-10-26T09:27:27.051Z</time>
      </trkpt>
      <trkpt lat="48.71543" lon="2.53158">
        <ele>56</ele>
        <time>2022-10-26T09:27:31.079Z</time>
      </trkpt>
      <trkpt lat="48.71544" lon="2.5315">
        <ele>55</ele>
        <time>2022-10-26T09:27:36.064Z</time>
      </trkpt>
      <trkpt lat="48.71542" lon="2.53141">
        <ele>55</ele>
        <time>2022-10-26T09:27:41.072Z</time>
      </trkpt>
      <trkpt lat="48.71538" lon="2.53133">
        <ele>56</ele>
        <time>2022-10-26T09:27:46.048Z</time>
      </trkpt>
      <trkpt lat="48.71535" lon="2.53127">
        <ele>56</ele>
        <time>2022-10-26T09:27:51.050Z</time>
      </trkpt>
      <trkpt lat="48.71532" lon="2.53121">
        <ele>54</ele>
        <time>2022-10-26T09:27:55.058Z</time>
      </trkpt>
      <trkpt lat="48.71527" lon="2.53114">
        <ele>54</ele>
        <time>2022-10-26T09:28:00.043Z</time>
      </trkpt>
      <trkpt lat="48.71523" lon="2.53108">
        <ele>54</ele>
        <time>2022-10-26T09:28:05.048Z</time>
      </trkpt>
      <trkpt lat="48.7152" lon="2.53102">
        <ele>54</ele>
        <time>2022-10-26T09:28:10.050Z</time>
      </trkpt>
      <trkpt lat="48.71516" lon="2.53096">
        <ele>53</ele>
        <time>2022-10-26T09:28:15.048Z</time>
      </trkpt>
      <trkpt lat="48.71512" lon="2.53092">
        <ele>54</ele>
        <time>2022-10-26T09:28:20.053Z</time>
      </trkpt>
      <trkpt lat="48.71507" lon="2.53086">
        <ele>54</ele>
        <time>2022-10-26T09:28:25.047Z</time>
      </trkpt>
      <trkpt lat="48.71502" lon="2.53081">
        <ele>54</ele>
        <time>2022-10-26T09:28:30.055Z</time>
      </trkpt>
      <trkpt lat="48.71498" lon="2.53076">
        <ele>54</ele>
        <time>2022-10-26T09:28:35.042Z</time>
      </trkpt>
      <trkpt lat="48.71495" lon="2.5307">
        <ele>54</ele>
        <time>2022-10-26T09:28:40.052Z</time>
      </trkpt>
      <trkpt lat="48.71491" lon="2.53062">
        <ele>54</ele>
        <time>2022-10-26T09:28:45.049Z</time>
      </trkpt>
      <trkpt lat="48.71488" lon="2.53057">
        <ele>54</ele>
        <time>2022-10-26T09:28:48.075Z</time>
      </trkpt>
      <trkpt lat="48.71481" lon="2.5305">
        <ele>54</ele>
        <time>2022-10-26T09:28:54.053Z</time>
      </trkpt>
      <trkpt lat="48.71479" lon="2.53042">
        <ele>54</ele>
        <time>2022-10-26T09:28:59.052Z</time>
      </trkpt>
      <trkpt lat="48.71474" lon="2.53036">
        <ele>54</ele>
        <time>2022-10-26T09:29:04.049Z</time>
      </trkpt>
      <trkpt lat="48.71471" lon="2.53029">
        <ele>54</ele>
        <time>2022-10-26T09:29:08.057Z</time>
      </trkpt>
      <trkpt lat="48.71468" lon="2.53022">
        <ele>54</ele>
        <time>2022-10-26T09:29:13.036Z</time>
      </trkpt>
      <trkpt lat="48.71465" lon="2.53016">
        <ele>54</ele>
        <time>2022-10-26T09:29:18.054Z</time>
      </trkpt>
      <trkpt lat="48.71463" lon="2.53011">
        <ele>54</ele>
        <time>2022-10-26T09:29:23.052Z</time>
      </trkpt>
      <trkpt lat="48.7146" lon="2.53004">
        <ele>54</ele>
        <time>2022-10-26T09:29:27.038Z</time>
      </trkpt>
      <trkpt lat="48.7146" lon="2.52999">
        <ele>54</ele>
        <time>2022-10-26T09:29:31.065Z</time>
      </trkpt>
      <trkpt lat="48.71456" lon="2.52993">
        <ele>54</ele>
        <time>2022-10-26T09:29:36.072Z</time>
      </trkpt>
      <trkpt lat="48.71451" lon="2.52983">
        <ele>53</ele>
        <time>2022-10-26T09:29:41.062Z</time>
      </trkpt>
      <trkpt lat="48.71446" lon="2.52976">
        <ele>53</ele>
        <time>2022-10-26T09:29:46.045Z</time>
      </trkpt>
      <trkpt lat="48.71446" lon="2.52972">
        <ele>53</ele>
        <time>2022-10-26T09:29:51.047Z</time>
      </trkpt>
      <trkpt lat="48.71444" lon="2.5296">
        <ele>53</ele>
        <time>2022-10-26T09:29:56.041Z</time>
      </trkpt>
      <trkpt lat="48.71441" lon="2.52952">
        <ele>53</ele>
        <time>2022-10-26T09:30:00.040Z</time>
      </trkpt>
      <trkpt lat="48.71437" lon="2.52945">
        <ele>53</ele>
        <time>2022-10-26T09:30:05.046Z</time>
      </trkpt>
      <trkpt lat="48.71433" lon="2.52938">
        <ele>53</ele>
        <time>2022-10-26T09:30:09.058Z</time>
      </trkpt>
      <trkpt lat="48.71428" lon="2.52931">
        <ele>54</ele>
        <time>2022-10-26T09:30:14.052Z</time>
      </trkpt>
      <trkpt lat="48.71425" lon="2.52923">
        <ele>53</ele>
        <time>2022-10-26T09:30:18.058Z</time>
      </trkpt>
      <trkpt lat="48.71422" lon="2.52923">
        <ele>53</ele>
        <time>2022-10-26T09:30:23.042Z</time>
      </trkpt>
      <trkpt lat="48.71422" lon="2.5292">
        <ele>53</ele>
        <time>2022-10-26T09:30:41.054Z</time>
      </trkpt>
      <trkpt lat="48.7142" lon="2.52915">
        <ele>53</ele>
        <time>2022-10-26T09:30:46.058Z</time>
      </trkpt>
      <trkpt lat="48.7142" lon="2.52912">
        <ele>53</ele>
        <time>2022-10-26T09:30:50.036Z</time>
      </trkpt>
      <trkpt lat="48.71421" lon="2.52911">
        <ele>53</ele>
        <time>2022-10-26T09:30:55.072Z</time>
      </trkpt>
      <trkpt lat="48.71417" lon="2.52904">
        <ele>53</ele>
        <time>2022-10-26T09:31:00.062Z</time>
      </trkpt>
      <trkpt lat="48.71415" lon="2.52895">
        <ele>53</ele>
        <time>2022-10-26T09:31:05.056Z</time>
      </trkpt>
      <trkpt lat="48.71413" lon="2.52886">
        <ele>53</ele>
        <time>2022-10-26T09:31:10.060Z</time>
      </trkpt>
      <trkpt lat="48.7141" lon="2.52877">
        <ele>53</ele>
        <time>2022-10-26T09:31:15.052Z</time>
      </trkpt>
      <trkpt lat="48.7141" lon="2.52866">
        <ele>52</ele>
        <time>2022-10-26T09:31:20.056Z</time>
      </trkpt>
      <trkpt lat="48.71409" lon="2.52858">
        <ele>52</ele>
        <time>2022-10-26T09:31:25.080Z</time>
      </trkpt>
      <trkpt lat="48.71406" lon="2.52847">
        <ele>52</ele>
        <time>2022-10-26T09:31:30.056Z</time>
      </trkpt>
      <trkpt lat="48.71402" lon="2.52838">
        <ele>52</ele>
        <time>2022-10-26T09:31:35.064Z</time>
      </trkpt>
      <trkpt lat="48.714" lon="2.52825">
        <ele>52</ele>
        <time>2022-10-26T09:31:40.060Z</time>
      </trkpt>
      <trkpt lat="48.71397" lon="2.52813">
        <ele>54</ele>
        <time>2022-10-26T09:31:45.057Z</time>
      </trkpt>
      <trkpt lat="48.71396" lon="2.52803">
        <ele>54</ele>
        <time>2022-10-26T09:31:50.073Z</time>
      </trkpt>
      <trkpt lat="48.71394" lon="2.52791">
        <ele>55</ele>
        <time>2022-10-26T09:31:55.058Z</time>
      </trkpt>
      <trkpt lat="48.71394" lon="2.52782">
        <ele>55</ele>
        <time>2022-10-26T09:32:00.042Z</time>
      </trkpt>
      <trkpt lat="48.71396" lon="2.52771">
        <ele>55</ele>
        <time>2022-10-26T09:32:04.073Z</time>
      </trkpt>
      <trkpt lat="48.71395" lon="2.52762">
        <ele>55</ele>
        <time>2022-10-26T09:32:09.068Z</time>
      </trkpt>
      <trkpt lat="48.71394" lon="2.52759">
        <ele>55</ele>
        <time>2022-10-26T09:32:14.044Z</time>
      </trkpt>
      <trkpt lat="48.71391" lon="2.52755">
        <ele>55</ele>
        <time>2022-10-26T09:32:18.048Z</time>
      </trkpt>
      <trkpt lat="48.71388" lon="2.52752">
        <ele>55</ele>
        <time>2022-10-26T09:32:33.055Z</time>
      </trkpt>
      <trkpt lat="48.71389" lon="2.52743">
        <ele>55</ele>
        <time>2022-10-26T09:32:38.066Z</time>
      </trkpt>
      <trkpt lat="48.71393" lon="2.52737">
        <ele>55</ele>
        <time>2022-10-26T09:32:43.055Z</time>
      </trkpt>
      <trkpt lat="48.714" lon="2.52734">
        <ele>55</ele>
        <time>2022-10-26T09:32:48.081Z</time>
      </trkpt>
      <trkpt lat="48.71405" lon="2.52733">
        <ele>54</ele>
        <time>2022-10-26T09:32:53.049Z</time>
      </trkpt>
      <trkpt lat="48.71412" lon="2.5273">
        <ele>54</ele>
        <time>2022-10-26T09:32:58.055Z</time>
      </trkpt>
      <trkpt lat="48.71414" lon="2.52731">
        <ele>54</ele>
        <time>2022-10-26T09:33:02.075Z</time>
      </trkpt>
      <trkpt lat="48.71418" lon="2.52729">
        <ele>54</ele>
        <time>2022-10-26T09:33:07.067Z</time>
      </trkpt>
      <trkpt lat="48.71423" lon="2.52728">
        <ele>54</ele>
        <time>2022-10-26T09:33:11.073Z</time>
      </trkpt>
      <trkpt lat="48.71423" lon="2.52728">
        <ele>54</ele>
        <time>2022-10-26T09:34:15.044Z</time>
      </trkpt>
      <trkpt lat="48.71426" lon="2.5272">
        <ele>54</ele>
        <time>2022-10-26T09:34:19.052Z</time>
      </trkpt>
      <trkpt lat="48.71429" lon="2.52708">
        <ele>54</ele>
        <time>2022-10-26T09:34:24.076Z</time>
      </trkpt>
      <trkpt lat="48.71428" lon="2.52697">
        <ele>54</ele>
        <time>2022-10-26T09:34:29.071Z</time>
      </trkpt>
      <trkpt lat="48.71426" lon="2.52688">
        <ele>54</ele>
        <time>2022-10-26T09:34:34.063Z</time>
      </trkpt>
      <trkpt lat="48.71425" lon="2.5268">
        <ele>54</ele>
        <time>2022-10-26T09:34:39.060Z</time>
      </trkpt>
      <trkpt lat="48.71424" lon="2.52673">
        <ele>54</ele>
        <time>2022-10-26T09:34:44.061Z</time>
      </trkpt>
      <trkpt lat="48.71423" lon="2.52664">
        <ele>54</ele>
        <time>2022-10-26T09:34:49.066Z</time>
      </trkpt>
      <trkpt lat="48.71423" lon="2.52656">
        <ele>54</ele>
        <time>2022-10-26T09:34:54.056Z</time>
      </trkpt>
      <trkpt lat="48.7142" lon="2.52648">
        <ele>53</ele>
        <time>2022-10-26T09:34:59.049Z</time>
      </trkpt>
      <trkpt lat="48.71418" lon="2.52641">
        <ele>53</ele>
        <time>2022-10-26T09:35:04.048Z</time>
      </trkpt>
      <trkpt lat="48.71415" lon="2.52631">
        <ele>53</ele>
        <time>2022-10-26T09:35:09.050Z</time>
      </trkpt>
      <trkpt lat="48.71412" lon="2.52624">
        <ele>52</ele>
        <time>2022-10-26T09:35:14.063Z</time>
      </trkpt>
      <trkpt lat="48.71409" lon="2.52617">
        <ele>52</ele>
        <time>2022-10-26T09:35:19.067Z</time>
      </trkpt>
      <trkpt lat="48.71405" lon="2.5261">
        <ele>52</ele>
        <time>2022-10-26T09:35:24.078Z</time>
      </trkpt>
      <trkpt lat="48.714" lon="2.52606">
        <ele>50</ele>
        <time>2022-10-26T09:35:29.058Z</time>
      </trkpt>
      <trkpt lat="48.71395" lon="2.52601">
        <ele>50</ele>
        <time>2022-10-26T09:35:34.059Z</time>
      </trkpt>
      <trkpt lat="48.71389" lon="2.52596">
        <ele>50</ele>
        <time>2022-10-26T09:35:39.050Z</time>
      </trkpt>
      <trkpt lat="48.71385" lon="2.5259">
        <ele>50</ele>
        <time>2022-10-26T09:35:44.075Z</time>
      </trkpt>
      <trkpt lat="48.7138" lon="2.52584">
        <ele>50</ele>
        <time>2022-10-26T09:35:49.045Z</time>
      </trkpt>
      <trkpt lat="48.71376" lon="2.52577">
        <ele>50</ele>
        <time>2022-10-26T09:35:54.043Z</time>
      </trkpt>
      <trkpt lat="48.71374" lon="2.52571">
        <ele>50</ele>
        <time>2022-10-26T09:35:58.048Z</time>
      </trkpt>
      <trkpt lat="48.71367" lon="2.52565">
        <ele>50</ele>
        <time>2022-10-26T09:36:03.053Z</time>
      </trkpt>
      <trkpt lat="48.71363" lon="2.52561">
        <ele>50</ele>
        <time>2022-10-26T09:36:08.056Z</time>
      </trkpt>
      <trkpt lat="48.7136" lon="2.52553">
        <ele>50</ele>
        <time>2022-10-26T09:36:13.058Z</time>
      </trkpt>
      <trkpt lat="48.71356" lon="2.52544">
        <ele>50</ele>
        <time>2022-10-26T09:36:18.063Z</time>
      </trkpt>
      <trkpt lat="48.71356" lon="2.52535">
        <ele>51</ele>
        <time>2022-10-26T09:36:23.078Z</time>
      </trkpt>
      <trkpt lat="48.71353" lon="2.52528">
        <ele>51</ele>
        <time>2022-10-26T09:36:28.057Z</time>
      </trkpt>
      <trkpt lat="48.7135" lon="2.52521">
        <ele>51</ele>
        <time>2022-10-26T09:36:33.061Z</time>
      </trkpt>
      <trkpt lat="48.71345" lon="2.52513">
        <ele>51</ele>
        <time>2022-10-26T09:36:38.059Z</time>
      </trkpt>
      <trkpt lat="48.71343" lon="2.52505">
        <ele>51</ele>
        <time>2022-10-26T09:36:43.060Z</time>
      </trkpt>
      <trkpt lat="48.71342" lon="2.52498">
        <ele>51</ele>
        <time>2022-10-26T09:36:48.050Z</time>
      </trkpt>
      <trkpt lat="48.7134" lon="2.5249">
        <ele>51</ele>
        <time>2022-10-26T09:36:53.040Z</time>
      </trkpt>
      <trkpt lat="48.71339" lon="2.52482">
        <ele>51</ele>
        <time>2022-10-26T09:36:57.058Z</time>
      </trkpt>
      <trkpt lat="48.71338" lon="2.52471">
        <ele>51</ele>
        <time>2022-10-26T09:37:02.043Z</time>
      </trkpt>
      <trkpt lat="48.71338" lon="2.52463">
        <ele>51</ele>
        <time>2022-10-26T09:37:07.067Z</time>
      </trkpt>
      <trkpt lat="48.71336" lon="2.52452">
        <ele>52</ele>
        <time>2022-10-26T09:37:12.054Z</time>
      </trkpt>
      <trkpt lat="48.71334" lon="2.52442">
        <ele>52</ele>
        <time>2022-10-26T09:37:17.058Z</time>
      </trkpt>
      <trkpt lat="48.71333" lon="2.52432">
        <ele>52</ele>
        <time>2022-10-26T09:37:22.056Z</time>
      </trkpt>
      <trkpt lat="48.71333" lon="2.52425">
        <ele>52</ele>
        <time>2022-10-26T09:37:27.064Z</time>
      </trkpt>
      <trkpt lat="48.71334" lon="2.52417">
        <ele>52</ele>
        <time>2022-10-26T09:37:32.055Z</time>
      </trkpt>
      <trkpt lat="48.71336" lon="2.52409">
        <ele>52</ele>
        <time>2022-10-26T09:37:37.058Z</time>
      </trkpt>
      <trkpt lat="48.71339" lon="2.52399">
        <ele>51</ele>
        <time>2022-10-26T09:37:42.049Z</time>
      </trkpt>
      <trkpt lat="48.71341" lon="2.52393">
        <ele>51</ele>
        <time>2022-10-26T09:37:46.057Z</time>
      </trkpt>
      <trkpt lat="48.71345" lon="2.52389">
        <ele>51</ele>
        <time>2022-10-26T09:37:51.051Z</time>
      </trkpt>
      <trkpt lat="48.71348" lon="2.5238">
        <ele>52</ele>
        <time>2022-10-26T09:37:56.061Z</time>
      </trkpt>
      <trkpt lat="48.71352" lon="2.52374">
        <ele>52</ele>
        <time>2022-10-26T09:38:01.058Z</time>
      </trkpt>
      <trkpt lat="48.71357" lon="2.52365">
        <ele>52</ele>
        <time>2022-10-26T09:38:06.062Z</time>
      </trkpt>
      <trkpt lat="48.7136" lon="2.52357">
        <ele>52</ele>
        <time>2022-10-26T09:38:11.055Z</time>
      </trkpt>
      <trkpt lat="48.71364" lon="2.52351">
        <ele>52</ele>
        <time>2022-10-26T09:38:16.052Z</time>
      </trkpt>
      <trkpt lat="48.71367" lon="2.52343">
        <ele>50</ele>
        <time>2022-10-26T09:38:20.058Z</time>
      </trkpt>
      <trkpt lat="48.7137" lon="2.52335">
        <ele>50</ele>
        <time>2022-10-26T09:38:25.051Z</time>
      </trkpt>
      <trkpt lat="48.71373" lon="2.52326">
        <ele>50</ele>
        <time>2022-10-26T09:38:30.055Z</time>
      </trkpt>
      <trkpt lat="48.71376" lon="2.52319">
        <ele>50</ele>
        <time>2022-10-26T09:38:35.043Z</time>
      </trkpt>
      <trkpt lat="48.71379" lon="2.52311">
        <ele>50</ele>
        <time>2022-10-26T09:38:40.055Z</time>
      </trkpt>
      <trkpt lat="48.71382" lon="2.52302">
        <ele>50</ele>
        <time>2022-10-26T09:38:45.047Z</time>
      </trkpt>
      <trkpt lat="48.71385" lon="2.52296">
        <ele>50</ele>
        <time>2022-10-26T09:38:50.038Z</time>
      </trkpt>
      <trkpt lat="48.71387" lon="2.52288">
        <ele>49</ele>
        <time>2022-10-26T09:38:54.066Z</time>
      </trkpt>
      <trkpt lat="48.71389" lon="2.5228">
        <ele>49</ele>
        <time>2022-10-26T09:38:59.061Z</time>
      </trkpt>
      <trkpt lat="48.71391" lon="2.5227">
        <ele>49</ele>
        <time>2022-10-26T09:39:04.064Z</time>
      </trkpt>
      <trkpt lat="48.71394" lon="2.52262">
        <ele>49</ele>
        <time>2022-10-26T09:39:09.063Z</time>
      </trkpt>
      <trkpt lat="48.71396" lon="2.52256">
        <ele>49</ele>
        <time>2022-10-26T09:39:13.066Z</time>
      </trkpt>
      <trkpt lat="48.71399" lon="2.52246">
        <ele>49</ele>
        <time>2022-10-26T09:39:18.055Z</time>
      </trkpt>
      <trkpt lat="48.71404" lon="2.5224">
        <ele>50</ele>
        <time>2022-10-26T09:39:23.047Z</time>
      </trkpt>
      <trkpt lat="48.71408" lon="2.52232">
        <ele>49</ele>
        <time>2022-10-26T09:39:28.042Z</time>
      </trkpt>
      <trkpt lat="48.7141" lon="2.52224">
        <ele>49</ele>
        <time>2022-10-26T09:39:33.048Z</time>
      </trkpt>
      <trkpt lat="48.71414" lon="2.52216">
        <ele>49</ele>
        <time>2022-10-26T09:39:38.047Z</time>
      </trkpt>
      <trkpt lat="48.71415" lon="2.52209">
        <ele>49</ele>
        <time>2022-10-26T09:39:43.052Z</time>
      </trkpt>
      <trkpt lat="48.71418" lon="2.52202">
        <ele>49</ele>
        <time>2022-10-26T09:39:48.037Z</time>
      </trkpt>
      <trkpt lat="48.7142" lon="2.52194">
        <ele>49</ele>
        <time>2022-10-26T09:39:53.069Z</time>
      </trkpt>
      <trkpt lat="48.71424" lon="2.52186">
        <ele>49</ele>
        <time>2022-10-26T09:39:58.064Z</time>
      </trkpt>
      <trkpt lat="48.71426" lon="2.52175">
        <ele>48</ele>
        <time>2022-10-26T09:40:03.055Z</time>
      </trkpt>
      <trkpt lat="48.7143" lon="2.52166">
        <ele>48</ele>
        <time>2022-10-26T09:40:08.067Z</time>
      </trkpt>
      <trkpt lat="48.71432" lon="2.52158">
        <ele>51</ele>
        <time>2022-10-26T09:40:13.052Z</time>
      </trkpt>
      <trkpt lat="48.71436" lon="2.52149">
        <ele>51</ele>
        <time>2022-10-26T09:40:18.059Z</time>
      </trkpt>
      <trkpt lat="48.71437" lon="2.52144">
        <ele>51</ele>
        <time>2022-10-26T09:40:23.038Z</time>
      </trkpt>
      <trkpt lat="48.71441" lon="2.52142">
        <ele>51</ele>
        <time>2022-10-26T09:40:28.044Z</time>
      </trkpt>
      <trkpt lat="48.71447" lon="2.52139">
        <ele>51</ele>
        <time>2022-10-26T09:40:33.050Z</time>
      </trkpt>
      <trkpt lat="48.71451" lon="2.5214">
        <ele>51</ele>
        <time>2022-10-26T09:40:38.046Z</time>
      </trkpt>
      <trkpt lat="48.71456" lon="2.52139">
        <ele>51</ele>
        <time>2022-10-26T09:40:42.067Z</time>
      </trkpt>
      <trkpt lat="48.7146" lon="2.52138">
        <ele>55</ele>
        <time>2022-10-26T09:40:47.065Z</time>
      </trkpt>
      <trkpt lat="48.71463" lon="2.52138">
        <ele>55</ele>
        <time>2022-10-26T09:40:52.076Z</time>
      </trkpt>
      <trkpt lat="48.71464" lon="2.52137">
        <ele>55</ele>
        <time>2022-10-26T09:40:57.063Z</time>
      </trkpt>
      <trkpt lat="48.71468" lon="2.52137">
        <ele>55</ele>
        <time>2022-10-26T09:41:02.062Z</time>
      </trkpt>
      <trkpt lat="48.71474" lon="2.52136">
        <ele>55</ele>
        <time>2022-10-26T09:41:07.030Z</time>
      </trkpt>
      <trkpt lat="48.71477" lon="2.52135">
        <ele>55</ele>
        <time>2022-10-26T09:41:12.062Z</time>
      </trkpt>
      <trkpt lat="48.7148" lon="2.52134">
        <ele>55</ele>
        <time>2022-10-26T09:41:17.033Z</time>
      </trkpt>
      <trkpt lat="48.71485" lon="2.52137">
        <ele>55</ele>
        <time>2022-10-26T09:41:22.043Z</time>
      </trkpt>
      <trkpt lat="48.71486" lon="2.52138">
        <ele>56</ele>
        <time>2022-10-26T09:41:27.042Z</time>
      </trkpt>
      <trkpt lat="48.71489" lon="2.5214">
        <ele>56</ele>
        <time>2022-10-26T09:41:31.044Z</time>
      </trkpt>
      <trkpt lat="48.71497" lon="2.52141">
        <ele>56</ele>
        <time>2022-10-26T09:41:36.059Z</time>
      </trkpt>
      <trkpt lat="48.71505" lon="2.52141">
        <ele>56</ele>
        <time>2022-10-26T09:41:41.052Z</time>
      </trkpt>
      <trkpt lat="48.71512" lon="2.52143">
        <ele>56</ele>
        <time>2022-10-26T09:41:46.078Z</time>
      </trkpt>
      <trkpt lat="48.71518" lon="2.52143">
        <ele>61</ele>
        <time>2022-10-26T09:41:51.068Z</time>
      </trkpt>
      <trkpt lat="48.71523" lon="2.52144">
        <ele>61</ele>
        <time>2022-10-26T09:41:56.057Z</time>
      </trkpt>
      <trkpt lat="48.71528" lon="2.52144">
        <ele>61</ele>
        <time>2022-10-26T09:42:01.058Z</time>
      </trkpt>
      <trkpt lat="48.71533" lon="2.52145">
        <ele>61</ele>
        <time>2022-10-26T09:42:06.045Z</time>
      </trkpt>
      <trkpt lat="48.71537" lon="2.52145">
        <ele>61</ele>
        <time>2022-10-26T09:42:11.040Z</time>
      </trkpt>
      <trkpt lat="48.71542" lon="2.52143">
        <ele>66</ele>
        <time>2022-10-26T09:42:16.048Z</time>
      </trkpt>
      <trkpt lat="48.71546" lon="2.52142">
        <ele>66</ele>
        <time>2022-10-26T09:42:20.057Z</time>
      </trkpt>
      <trkpt lat="48.71547" lon="2.52137">
        <ele>66</ele>
        <time>2022-10-26T09:42:25.054Z</time>
      </trkpt>
      <trkpt lat="48.71547" lon="2.52132">
        <ele>66</ele>
        <time>2022-10-26T09:42:30.060Z</time>
      </trkpt>
      <trkpt lat="48.71547" lon="2.52127">
        <ele>66</ele>
        <time>2022-10-26T09:42:35.062Z</time>
      </trkpt>
      <trkpt lat="48.71547" lon="2.52122">
        <ele>67</ele>
        <time>2022-10-26T09:42:40.057Z</time>
      </trkpt>
      <trkpt lat="48.71548" lon="2.52117">
        <ele>67</ele>
        <time>2022-10-26T09:42:45.046Z</time>
      </trkpt>
      <trkpt lat="48.71551" lon="2.52111">
        <ele>67</ele>
        <time>2022-10-26T09:42:50.063Z</time>
      </trkpt>
      <trkpt lat="48.71552" lon="2.52105">
        <ele>67</ele>
        <time>2022-10-26T09:42:55.056Z</time>
      </trkpt>
      <trkpt lat="48.71551" lon="2.521">
        <ele>67</ele>
        <time>2022-10-26T09:43:00.045Z</time>
      </trkpt>
      <trkpt lat="48.71553" lon="2.52094">
        <ele>68</ele>
        <time>2022-10-26T09:43:05.061Z</time>
      </trkpt>
      <trkpt lat="48.71554" lon="2.52084">
        <ele>68</ele>
        <time>2022-10-26T09:43:10.037Z</time>
      </trkpt>
      <trkpt lat="48.71553" lon="2.52075">
        <ele>68</ele>
        <time>2022-10-26T09:43:15.044Z</time>
      </trkpt>
      <trkpt lat="48.71553" lon="2.52066">
        <ele>69</ele>
        <time>2022-10-26T09:43:20.034Z</time>
      </trkpt>
      <trkpt lat="48.71554" lon="2.5206">
        <ele>69</ele>
        <time>2022-10-26T09:43:25.054Z</time>
      </trkpt>
      <trkpt lat="48.71554" lon="2.52053">
        <ele>69</ele>
        <time>2022-10-26T09:43:30.034Z</time>
      </trkpt>
      <trkpt lat="48.71553" lon="2.52045">
        <ele>69</ele>
        <time>2022-10-26T09:43:35.062Z</time>
      </trkpt>
      <trkpt lat="48.7155" lon="2.52035">
        <ele>71</ele>
        <time>2022-10-26T09:43:40.047Z</time>
      </trkpt>
      <trkpt lat="48.71546" lon="2.52028">
        <ele>71</ele>
        <time>2022-10-26T09:43:45.059Z</time>
      </trkpt>
      <trkpt lat="48.71543" lon="2.52021">
        <ele>71</ele>
        <time>2022-10-26T09:43:50.059Z</time>
      </trkpt>
      <trkpt lat="48.7154" lon="2.52015">
        <ele>67</ele>
        <time>2022-10-26T09:43:55.041Z</time>
      </trkpt>
      <trkpt lat="48.71539" lon="2.52012">
        <ele>69</ele>
        <time>2022-10-26T09:44:00.059Z</time>
      </trkpt>
      <trkpt lat="48.71542" lon="2.52008">
        <ele>72</ele>
        <time>2022-10-26T09:44:05.043Z</time>
      </trkpt>
      <trkpt lat="48.71543" lon="2.52004">
        <ele>72</ele>
        <time>2022-10-26T09:44:10.040Z</time>
      </trkpt>
      <trkpt lat="48.71546" lon="2.52">
        <ele>72</ele>
        <time>2022-10-26T09:44:15.044Z</time>
      </trkpt>
      <trkpt lat="48.71547" lon="2.51994">
        <ele>72</ele>
        <time>2022-10-26T09:44:20.033Z</time>
      </trkpt>
      <trkpt lat="48.71544" lon="2.5199">
        <ele>72</ele>
        <time>2022-10-26T09:44:24.048Z</time>
      </trkpt>
      <trkpt lat="48.7154" lon="2.5199">
        <ele>69</ele>
        <time>2022-10-26T09:44:29.054Z</time>
      </trkpt>
      <trkpt lat="48.71538" lon="2.51985">
        <ele>71</ele>
        <time>2022-10-26T09:44:34.059Z</time>
      </trkpt>
      <trkpt lat="48.71537" lon="2.51979">
        <ele>71</ele>
        <time>2022-10-26T09:44:39.068Z</time>
      </trkpt>
      <trkpt lat="48.71537" lon="2.51976">
        <ele>71</ele>
        <time>2022-10-26T09:44:44.052Z</time>
      </trkpt>
      <trkpt lat="48.71538" lon="2.5197">
        <ele>71</ele>
        <time>2022-10-26T09:44:49.039Z</time>
      </trkpt>
      <trkpt lat="48.71537" lon="2.51965">
        <ele>71</ele>
        <time>2022-10-26T09:44:53.047Z</time>
      </trkpt>
      <trkpt lat="48.71537" lon="2.5196">
        <ele>71</ele>
        <time>2022-10-26T09:44:58.044Z</time>
      </trkpt>
      <trkpt lat="48.71535" lon="2.51956">
        <ele>73</ele>
        <time>2022-10-26T09:45:03.036Z</time>
      </trkpt>
      <trkpt lat="48.71534" lon="2.51952">
        <ele>73</ele>
        <time>2022-10-26T09:45:07.042Z</time>
      </trkpt>
      <trkpt lat="48.71529" lon="2.51947">
        <ele>73</ele>
        <time>2022-10-26T09:45:12.051Z</time>
      </trkpt>
      <trkpt lat="48.71527" lon="2.5194">
        <ele>73</ele>
        <time>2022-10-26T09:45:17.052Z</time>
      </trkpt>
      <trkpt lat="48.71527" lon="2.51937">
        <ele>73</ele>
        <time>2022-10-26T09:45:22.069Z</time>
      </trkpt>
      <trkpt lat="48.71526" lon="2.51928">
        <ele>75</ele>
        <time>2022-10-26T09:45:27.063Z</time>
      </trkpt>
      <trkpt lat="48.71524" lon="2.51924">
        <ele>75</ele>
        <time>2022-10-26T09:45:32.049Z</time>
      </trkpt>
      <trkpt lat="48.71521" lon="2.51919">
        <ele>75</ele>
        <time>2022-10-26T09:45:37.067Z</time>
      </trkpt>
      <trkpt lat="48.71516" lon="2.51916">
        <ele>75</ele>
        <time>2022-10-26T09:45:42.040Z</time>
      </trkpt>
      <trkpt lat="48.71512" lon="2.51914">
        <ele>74</ele>
        <time>2022-10-26T09:45:47.035Z</time>
      </trkpt>
      <trkpt lat="48.71509" lon="2.51906">
        <ele>74</ele>
        <time>2022-10-26T09:45:51.044Z</time>
      </trkpt>
      <trkpt lat="48.71506" lon="2.51898">
        <ele>75</ele>
        <time>2022-10-26T09:45:56.087Z</time>
      </trkpt>
      <trkpt lat="48.71505" lon="2.51897">
        <ele>75</ele>
        <time>2022-10-26T09:46:01.038Z</time>
      </trkpt>
      <trkpt lat="48.71502" lon="2.5189">
        <ele>75</ele>
        <time>2022-10-26T09:46:06.031Z</time>
      </trkpt>
      <trkpt lat="48.71498" lon="2.51886">
        <ele>75</ele>
        <time>2022-10-26T09:46:11.031Z</time>
      </trkpt>
      <trkpt lat="48.71496" lon="2.51887">
        <ele>75</ele>
        <time>2022-10-26T09:46:15.064Z</time>
      </trkpt>
      <trkpt lat="48.71493" lon="2.51887">
        <ele>75</ele>
        <time>2022-10-26T09:46:20.053Z</time>
      </trkpt>
      <trkpt lat="48.7149" lon="2.51888">
        <ele>75</ele>
        <time>2022-10-26T09:46:25.053Z</time>
      </trkpt>
      <trkpt lat="48.71485" lon="2.51889">
        <ele>70</ele>
        <time>2022-10-26T09:46:30.068Z</time>
      </trkpt>
      <trkpt lat="48.71482" lon="2.5189">
        <ele>70</ele>
        <time>2022-10-26T09:46:35.060Z</time>
      </trkpt>
      <trkpt lat="48.7148" lon="2.51894">
        <ele>70</ele>
        <time>2022-10-26T09:46:40.050Z</time>
      </trkpt>
      <trkpt lat="48.71476" lon="2.51898">
        <ele>70</ele>
        <time>2022-10-26T09:46:45.040Z</time>
      </trkpt>
      <trkpt lat="48.7147" lon="2.519">
        <ele>70</ele>
        <time>2022-10-26T09:46:50.040Z</time>
      </trkpt>
      <trkpt lat="48.71465" lon="2.51903">
        <ele>70</ele>
        <time>2022-10-26T09:46:55.050Z</time>
      </trkpt>
      <trkpt lat="48.71462" lon="2.5191">
        <ele>70</ele>
        <time>2022-10-26T09:47:00.044Z</time>
      </trkpt>
      <trkpt lat="48.71457" lon="2.51914">
        <ele>64</ele>
        <time>2022-10-26T09:47:05.050Z</time>
      </trkpt>
      <trkpt lat="48.71452" lon="2.51923">
        <ele>64</ele>
        <time>2022-10-26T09:47:10.062Z</time>
      </trkpt>
      <trkpt lat="48.71448" lon="2.51926">
        <ele>64</ele>
        <time>2022-10-26T09:47:15.058Z</time>
      </trkpt>
      <trkpt lat="48.71443" lon="2.51931">
        <ele>63</ele>
        <time>2022-10-26T09:47:20.072Z</time>
      </trkpt>
      <trkpt lat="48.71438" lon="2.51937">
        <ele>63</ele>
        <time>2022-10-26T09:47:25.052Z</time>
      </trkpt>
      <trkpt lat="48.71432" lon="2.51939">
        <ele>63</ele>
        <time>2022-10-26T09:47:30.056Z</time>
      </trkpt>
      <trkpt lat="48.71426" lon="2.51942">
        <ele>60</ele>
        <time>2022-10-26T09:47:35.045Z</time>
      </trkpt>
      <trkpt lat="48.7142" lon="2.51943">
        <ele>60</ele>
        <time>2022-10-26T09:47:40.054Z</time>
      </trkpt>
      <trkpt lat="48.71415" lon="2.51943">
        <ele>60</ele>
        <time>2022-10-26T09:47:45.054Z</time>
      </trkpt>
      <trkpt lat="48.7141" lon="2.5194">
        <ele>60</ele>
        <time>2022-10-26T09:47:50.040Z</time>
      </trkpt>
      <trkpt lat="48.71404" lon="2.51935">
        <ele>60</ele>
        <time>2022-10-26T09:47:55.061Z</time>
      </trkpt>
      <trkpt lat="48.714" lon="2.51932">
        <ele>58</ele>
        <time>2022-10-26T09:48:00.066Z</time>
      </trkpt>
      <trkpt lat="48.71396" lon="2.51928">
        <ele>58</ele>
        <time>2022-10-26T09:48:05.061Z</time>
      </trkpt>
      <trkpt lat="48.71392" lon="2.5192">
        <ele>58</ele>
        <time>2022-10-26T09:48:10.059Z</time>
      </trkpt>
      <trkpt lat="48.7139" lon="2.51913">
        <ele>58</ele>
        <time>2022-10-26T09:48:15.059Z</time>
      </trkpt>
      <trkpt lat="48.71387" lon="2.51906">
        <ele>58</ele>
        <time>2022-10-26T09:48:20.065Z</time>
      </trkpt>
      <trkpt lat="48.71383" lon="2.51899">
        <ele>57</ele>
        <time>2022-10-26T09:48:25.058Z</time>
      </trkpt>
      <trkpt lat="48.71382" lon="2.51896">
        <ele>57</ele>
        <time>2022-10-26T09:48:30.036Z</time>
      </trkpt>
      <trkpt lat="48.71384" lon="2.51895">
        <ele>57</ele>
        <time>2022-10-26T09:49:05.057Z</time>
      </trkpt>
      <trkpt lat="48.71384" lon="2.51892">
        <ele>57</ele>
        <time>2022-10-26T09:49:10.058Z</time>
      </trkpt>
      <trkpt lat="48.71382" lon="2.51886">
        <ele>57</ele>
        <time>2022-10-26T09:49:15.062Z</time>
      </trkpt>
      <trkpt lat="48.71382" lon="2.51882">
        <ele>57</ele>
        <time>2022-10-26T09:49:20.051Z</time>
      </trkpt>
      <trkpt lat="48.71382" lon="2.51877">
        <ele>57</ele>
        <time>2022-10-26T09:49:25.045Z</time>
      </trkpt>
      <trkpt lat="48.71383" lon="2.51877">
        <ele>57</ele>
        <time>2022-10-26T09:49:30.048Z</time>
      </trkpt>
      <trkpt lat="48.71379" lon="2.51871">
        <ele>56</ele>
        <time>2022-10-26T09:49:35.034Z</time>
      </trkpt>
      <trkpt lat="48.71377" lon="2.51865">
        <ele>56</ele>
        <time>2022-10-26T09:49:40.045Z</time>
      </trkpt>
      <trkpt lat="48.71376" lon="2.51859">
        <ele>56</ele>
        <time>2022-10-26T09:49:45.036Z</time>
      </trkpt>
      <trkpt lat="48.71374" lon="2.51855">
        <ele>53</ele>
        <time>2022-10-26T09:49:50.056Z</time>
      </trkpt>
      <trkpt lat="48.71372" lon="2.51847">
        <ele>52</ele>
        <time>2022-10-26T09:49:55.035Z</time>
      </trkpt>
      <trkpt lat="48.71369" lon="2.5184">
        <ele>52</ele>
        <time>2022-10-26T09:50:00.067Z</time>
      </trkpt>
      <trkpt lat="48.71368" lon="2.51836">
        <ele>52</ele>
        <time>2022-10-26T09:50:05.056Z</time>
      </trkpt>
      <trkpt lat="48.71367" lon="2.51829">
        <ele>52</ele>
        <time>2022-10-26T09:50:10.077Z</time>
      </trkpt>
      <trkpt lat="48.71365" lon="2.51823">
        <ele>52</ele>
        <time>2022-10-26T09:50:15.034Z</time>
      </trkpt>
      <trkpt lat="48.71366" lon="2.51816">
        <ele>52</ele>
        <time>2022-10-26T09:50:20.036Z</time>
      </trkpt>
      <trkpt lat="48.71367" lon="2.51808">
        <ele>52</ele>
        <time>2022-10-26T09:50:25.047Z</time>
      </trkpt>
      <trkpt lat="48.71365" lon="2.51796">
        <ele>52</ele>
        <time>2022-10-26T09:50:30.047Z</time>
      </trkpt>
      <trkpt lat="48.71367" lon="2.51786">
        <ele>52</ele>
        <time>2022-10-26T09:50:35.038Z</time>
      </trkpt>
      <trkpt lat="48.71369" lon="2.51776">
        <ele>52</ele>
        <time>2022-10-26T09:50:40.045Z</time>
      </trkpt>
      <trkpt lat="48.71367" lon="2.51766">
        <ele>52</ele>
        <time>2022-10-26T09:50:45.059Z</time>
      </trkpt>
      <trkpt lat="48.71365" lon="2.51756">
        <ele>54</ele>
        <time>2022-10-26T09:50:50.061Z</time>
      </trkpt>
      <trkpt lat="48.71361" lon="2.51748">
        <ele>54</ele>
        <time>2022-10-26T09:50:55.047Z</time>
      </trkpt>
      <trkpt lat="48.71358" lon="2.51741">
        <ele>54</ele>
        <time>2022-10-26T09:51:00.059Z</time>
      </trkpt>
      <trkpt lat="48.71355" lon="2.51731">
        <ele>56</ele>
        <time>2022-10-26T09:51:05.045Z</time>
      </trkpt>
      <trkpt lat="48.71352" lon="2.51723">
        <ele>56</ele>
        <time>2022-10-26T09:51:10.050Z</time>
      </trkpt>
      <trkpt lat="48.71349" lon="2.51716">
        <ele>56</ele>
        <time>2022-10-26T09:51:15.060Z</time>
      </trkpt>
      <trkpt lat="48.71347" lon="2.51708">
        <ele>57</ele>
        <time>2022-10-26T09:51:20.046Z</time>
      </trkpt>
      <trkpt lat="48.71344" lon="2.51702">
        <ele>59</ele>
        <time>2022-10-26T09:51:25.036Z</time>
      </trkpt>
      <trkpt lat="48.71341" lon="2.51697">
        <ele>59</ele>
        <time>2022-10-26T09:51:29.043Z</time>
      </trkpt>
      <trkpt lat="48.71338" lon="2.5169">
        <ele>59</ele>
        <time>2022-10-26T09:51:34.053Z</time>
      </trkpt>
      <trkpt lat="48.71336" lon="2.51682">
        <ele>59</ele>
        <time>2022-10-26T09:51:39.054Z</time>
      </trkpt>
      <trkpt lat="48.71334" lon="2.51676">
        <ele>61</ele>
        <time>2022-10-26T09:51:44.054Z</time>
      </trkpt>
      <trkpt lat="48.71333" lon="2.51672">
        <ele>61</ele>
        <time>2022-10-26T09:51:49.044Z</time>
      </trkpt>
      <trkpt lat="48.71332" lon="2.51666">
        <ele>61</ele>
        <time>2022-10-26T09:51:53.059Z</time>
      </trkpt>
      <trkpt lat="48.71331" lon="2.51657">
        <ele>61</ele>
        <time>2022-10-26T09:51:58.061Z</time>
      </trkpt>
      <trkpt lat="48.71328" lon="2.51651">
        <ele>61</ele>
        <time>2022-10-26T09:52:03.032Z</time>
      </trkpt>
      <trkpt lat="48.71323" lon="2.51644">
        <ele>61</ele>
        <time>2022-10-26T09:52:08.052Z</time>
      </trkpt>
      <trkpt lat="48.7132" lon="2.51639">
        <ele>61</ele>
        <time>2022-10-26T09:52:13.041Z</time>
      </trkpt>
      <trkpt lat="48.71318" lon="2.51631">
        <ele>58</ele>
        <time>2022-10-26T09:52:18.053Z</time>
      </trkpt>
      <trkpt lat="48.71316" lon="2.51622">
        <ele>58</ele>
        <time>2022-10-26T09:52:23.046Z</time>
      </trkpt>
      <trkpt lat="48.71313" lon="2.51611">
        <ele>58</ele>
        <time>2022-10-26T09:52:28.036Z</time>
      </trkpt>
      <trkpt lat="48.71311" lon="2.516">
        <ele>58</ele>
        <time>2022-10-26T09:52:33.060Z</time>
      </trkpt>
      <trkpt lat="48.71307" lon="2.51593">
        <ele>59</ele>
        <time>2022-10-26T09:52:38.042Z</time>
      </trkpt>
      <trkpt lat="48.71305" lon="2.51588">
        <ele>59</ele>
        <time>2022-10-26T09:52:42.056Z</time>
      </trkpt>
      <trkpt lat="48.71302" lon="2.51581">
        <ele>59</ele>
        <time>2022-10-26T09:52:47.054Z</time>
      </trkpt>
      <trkpt lat="48.713" lon="2.51571">
        <ele>59</ele>
        <time>2022-10-26T09:52:52.061Z</time>
      </trkpt>
      <trkpt lat="48.71296" lon="2.51563">
        <ele>59</ele>
        <time>2022-10-26T09:52:57.047Z</time>
      </trkpt>
      <trkpt lat="48.71295" lon="2.51553">
        <ele>59</ele>
        <time>2022-10-26T09:53:02.043Z</time>
      </trkpt>
      <trkpt lat="48.71292" lon="2.51543">
        <ele>59</ele>
        <time>2022-10-26T09:53:07.042Z</time>
      </trkpt>
      <trkpt lat="48.7129" lon="2.51534">
        <ele>56</ele>
        <time>2022-10-26T09:53:12.050Z</time>
      </trkpt>
      <trkpt lat="48.71288" lon="2.51527">
        <ele>56</ele>
        <time>2022-10-26T09:53:17.038Z</time>
      </trkpt>
      <trkpt lat="48.71284" lon="2.51521">
        <ele>56</ele>
        <time>2022-10-26T09:53:22.044Z</time>
      </trkpt>
      <trkpt lat="48.71285" lon="2.51508">
        <ele>55</ele>
        <time>2022-10-26T09:53:27.037Z</time>
      </trkpt>
      <trkpt lat="48.71285" lon="2.51496">
        <ele>55</ele>
        <time>2022-10-26T09:53:32.036Z</time>
      </trkpt>
      <trkpt lat="48.71284" lon="2.51491">
        <ele>55</ele>
        <time>2022-10-26T09:53:36.051Z</time>
      </trkpt>
      <trkpt lat="48.71282" lon="2.51485">
        <ele>54</ele>
        <time>2022-10-26T09:53:41.051Z</time>
      </trkpt>
      <trkpt lat="48.71278" lon="2.51476">
        <ele>54</ele>
        <time>2022-10-26T09:53:46.062Z</time>
      </trkpt>
      <trkpt lat="48.71279" lon="2.51469">
        <ele>54</ele>
        <time>2022-10-26T09:53:50.063Z</time>
      </trkpt>
      <trkpt lat="48.71279" lon="2.51463">
        <ele>54</ele>
        <time>2022-10-26T09:53:55.050Z</time>
      </trkpt>
      <trkpt lat="48.71276" lon="2.51453">
        <ele>55</ele>
        <time>2022-10-26T09:54:00.053Z</time>
      </trkpt>
      <trkpt lat="48.71274" lon="2.51445">
        <ele>55</ele>
        <time>2022-10-26T09:54:05.042Z</time>
      </trkpt>
      <trkpt lat="48.71269" lon="2.51439">
        <ele>55</ele>
        <time>2022-10-26T09:54:10.035Z</time>
      </trkpt>
      <trkpt lat="48.71263" lon="2.51434">
        <ele>53</ele>
        <time>2022-10-26T09:54:14.047Z</time>
      </trkpt>
      <trkpt lat="48.71259" lon="2.51427">
        <ele>55</ele>
        <time>2022-10-26T09:54:19.035Z</time>
      </trkpt>
      <trkpt lat="48.71256" lon="2.51416">
        <ele>55</ele>
        <time>2022-10-26T09:54:24.047Z</time>
      </trkpt>
      <trkpt lat="48.71253" lon="2.51408">
        <ele>55</ele>
        <time>2022-10-26T09:54:28.054Z</time>
      </trkpt>
      <trkpt lat="48.7125" lon="2.51398">
        <ele>56</ele>
        <time>2022-10-26T09:54:33.050Z</time>
      </trkpt>
      <trkpt lat="48.71247" lon="2.51392">
        <ele>56</ele>
        <time>2022-10-26T09:54:38.050Z</time>
      </trkpt>
      <trkpt lat="48.71246" lon="2.51384">
        <ele>56</ele>
        <time>2022-10-26T09:54:43.051Z</time>
      </trkpt>
      <trkpt lat="48.71244" lon="2.51374">
        <ele>58</ele>
        <time>2022-10-26T09:54:48.055Z</time>
      </trkpt>
      <trkpt lat="48.71242" lon="2.51363">
        <ele>58</ele>
        <time>2022-10-26T09:54:53.049Z</time>
      </trkpt>
      <trkpt lat="48.71245" lon="2.51351">
        <ele>58</ele>
        <time>2022-10-26T09:54:58.057Z</time>
      </trkpt>
      <trkpt lat="48.7125" lon="2.51336">
        <ele>58</ele>
        <time>2022-10-26T09:55:03.050Z</time>
      </trkpt>
      <trkpt lat="48.71255" lon="2.51322">
        <ele>58</ele>
        <time>2022-10-26T09:55:08.033Z</time>
      </trkpt>
      <trkpt lat="48.71259" lon="2.51308">
        <ele>57</ele>
        <time>2022-10-26T09:55:12.059Z</time>
      </trkpt>
      <trkpt lat="48.71264" lon="2.51296">
        <ele>57</ele>
        <time>2022-10-26T09:55:17.056Z</time>
      </trkpt>
      <trkpt lat="48.71265" lon="2.51283">
        <ele>59</ele>
        <time>2022-10-26T09:55:22.068Z</time>
      </trkpt>
      <trkpt lat="48.71267" lon="2.51262">
        <ele>58</ele>
        <time>2022-10-26T09:55:27.036Z</time>
      </trkpt>
      <trkpt lat="48.7127" lon="2.51248">
        <ele>58</ele>
        <time>2022-10-26T09:55:31.063Z</time>
      </trkpt>
      <trkpt lat="48.71277" lon="2.5123">
        <ele>57</ele>
        <time>2022-10-26T09:55:36.050Z</time>
      </trkpt>
      <trkpt lat="48.71276" lon="2.51215">
        <ele>57</ele>
        <time>2022-10-26T09:55:41.042Z</time>
      </trkpt>
      <trkpt lat="48.71272" lon="2.51198">
        <ele>56</ele>
        <time>2022-10-26T09:55:46.045Z</time>
      </trkpt>
      <trkpt lat="48.71268" lon="2.51181">
        <ele>56</ele>
        <time>2022-10-26T09:55:51.052Z</time>
      </trkpt>
      <trkpt lat="48.71266" lon="2.51169">
        <ele>55</ele>
        <time>2022-10-26T09:55:56.037Z</time>
      </trkpt>
      <trkpt lat="48.71268" lon="2.51152">
        <ele>54</ele>
        <time>2022-10-26T09:56:01.034Z</time>
      </trkpt>
      <trkpt lat="48.71269" lon="2.51141">
        <ele>54</ele>
        <time>2022-10-26T09:56:06.059Z</time>
      </trkpt>
      <trkpt lat="48.71269" lon="2.5113">
        <ele>54</ele>
        <time>2022-10-26T09:56:10.063Z</time>
      </trkpt>
      <trkpt lat="48.71267" lon="2.5112">
        <ele>54</ele>
        <time>2022-10-26T09:56:15.039Z</time>
      </trkpt>
      <trkpt lat="48.71264" lon="2.51114">
        <ele>54</ele>
        <time>2022-10-26T09:56:19.057Z</time>
      </trkpt>
      <trkpt lat="48.71262" lon="2.51108">
        <ele>50</ele>
        <time>2022-10-26T09:56:23.059Z</time>
      </trkpt>
      <trkpt lat="48.71261" lon="2.511">
        <ele>50</ele>
        <time>2022-10-26T09:56:28.049Z</time>
      </trkpt>
      <trkpt lat="48.7126" lon="2.51097">
        <ele>50</ele>
        <time>2022-10-26T09:56:32.037Z</time>
      </trkpt>
      <trkpt lat="48.71259" lon="2.5109">
        <ele>50</ele>
        <time>2022-10-26T09:56:36.048Z</time>
      </trkpt>
      <trkpt lat="48.71258" lon="2.5108">
        <ele>50</ele>
        <time>2022-10-26T09:56:41.033Z</time>
      </trkpt>
      <trkpt lat="48.7126" lon="2.51069">
        <ele>51</ele>
        <time>2022-10-26T09:56:46.043Z</time>
      </trkpt>
      <trkpt lat="48.71259" lon="2.51057">
        <ele>51</ele>
        <time>2022-10-26T09:56:51.051Z</time>
      </trkpt>
      <trkpt lat="48.71257" lon="2.51051">
        <ele>51</ele>
        <time>2022-10-26T09:56:55.058Z</time>
      </trkpt>
      <trkpt lat="48.71255" lon="2.5104">
        <ele>52</ele>
        <time>2022-10-26T09:57:00.055Z</time>
      </trkpt>
      <trkpt lat="48.71255" lon="2.51031">
        <ele>52</ele>
        <time>2022-10-26T09:57:05.053Z</time>
      </trkpt>
      <trkpt lat="48.71256" lon="2.51021">
        <ele>52</ele>
        <time>2022-10-26T09:57:10.051Z</time>
      </trkpt>
      <trkpt lat="48.71254" lon="2.51014">
        <ele>52</ele>
        <time>2022-10-26T09:57:14.052Z</time>
      </trkpt>
      <trkpt lat="48.71252" lon="2.51004">
        <ele>52</ele>
        <time>2022-10-26T09:57:19.060Z</time>
      </trkpt>
      <trkpt lat="48.71252" lon="2.50993">
        <ele>52</ele>
        <time>2022-10-26T09:57:24.051Z</time>
      </trkpt>
      <trkpt lat="48.71251" lon="2.50987">
        <ele>52</ele>
        <time>2022-10-26T09:57:28.062Z</time>
      </trkpt>
      <trkpt lat="48.71251" lon="2.50977">
        <ele>52</ele>
        <time>2022-10-26T09:57:33.038Z</time>
      </trkpt>
      <trkpt lat="48.7125" lon="2.50968">
        <ele>52</ele>
        <time>2022-10-26T09:57:37.032Z</time>
      </trkpt>
      <trkpt lat="48.71249" lon="2.50961">
        <ele>52</ele>
        <time>2022-10-26T09:57:42.035Z</time>
      </trkpt>
      <trkpt lat="48.71248" lon="2.50951">
        <ele>52</ele>
        <time>2022-10-26T09:57:47.042Z</time>
      </trkpt>
      <trkpt lat="48.71246" lon="2.50945">
        <ele>52</ele>
        <time>2022-10-26T09:57:52.032Z</time>
      </trkpt>
      <trkpt lat="48.71245" lon="2.50939">
        <ele>52</ele>
        <time>2022-10-26T09:57:56.060Z</time>
      </trkpt>
      <trkpt lat="48.71246" lon="2.50933">
        <ele>52</ele>
        <time>2022-10-26T09:58:00.055Z</time>
      </trkpt>
      <trkpt lat="48.71247" lon="2.50922">
        <ele>51</ele>
        <time>2022-10-26T09:58:05.050Z</time>
      </trkpt>
      <trkpt lat="48.71245" lon="2.50911">
        <ele>51</ele>
        <time>2022-10-26T09:58:10.059Z</time>
      </trkpt>
      <trkpt lat="48.71246" lon="2.50901">
        <ele>52</ele>
        <time>2022-10-26T09:58:15.058Z</time>
      </trkpt>
      <trkpt lat="48.71247" lon="2.50892">
        <ele>52</ele>
        <time>2022-10-26T09:58:19.076Z</time>
      </trkpt>
      <trkpt lat="48.71247" lon="2.5088">
        <ele>52</ele>
        <time>2022-10-26T09:58:24.074Z</time>
      </trkpt>
      <trkpt lat="48.71244" lon="2.50871">
        <ele>54</ele>
        <time>2022-10-26T09:58:29.076Z</time>
      </trkpt>
      <trkpt lat="48.71243" lon="2.50862">
        <ele>54</ele>
        <time>2022-10-26T09:58:34.071Z</time>
      </trkpt>
      <trkpt lat="48.71243" lon="2.50853">
        <ele>54</ele>
        <time>2022-10-26T09:58:39.074Z</time>
      </trkpt>
      <trkpt lat="48.71241" lon="2.50843">
        <ele>54</ele>
        <time>2022-10-26T09:58:44.068Z</time>
      </trkpt>
      <trkpt lat="48.71239" lon="2.50838">
        <ele>54</ele>
        <time>2022-10-26T09:58:49.074Z</time>
      </trkpt>
      <trkpt lat="48.71238" lon="2.50828">
        <ele>54</ele>
        <time>2022-10-26T09:58:54.089Z</time>
      </trkpt>
      <trkpt lat="48.71237" lon="2.50818">
        <ele>54</ele>
        <time>2022-10-26T09:58:59.076Z</time>
      </trkpt>
      <trkpt lat="48.71234" lon="2.50808">
        <ele>52</ele>
        <time>2022-10-26T09:59:04.084Z</time>
      </trkpt>
      <trkpt lat="48.71232" lon="2.508">
        <ele>52</ele>
        <time>2022-10-26T09:59:09.073Z</time>
      </trkpt>
      <trkpt lat="48.71229" lon="2.50792">
        <ele>52</ele>
        <time>2022-10-26T09:59:14.074Z</time>
      </trkpt>
      <trkpt lat="48.71226" lon="2.50785">
        <ele>52</ele>
        <time>2022-10-26T09:59:19.074Z</time>
      </trkpt>
      <trkpt lat="48.71224" lon="2.50781">
        <ele>52</ele>
        <time>2022-10-26T09:59:23.080Z</time>
      </trkpt>
      <trkpt lat="48.7122" lon="2.50772">
        <ele>52</ele>
        <time>2022-10-26T09:59:28.068Z</time>
      </trkpt>
      <trkpt lat="48.71216" lon="2.50765">
        <ele>52</ele>
        <time>2022-10-26T09:59:33.070Z</time>
      </trkpt>
      <trkpt lat="48.71213" lon="2.5076">
        <ele>53</ele>
        <time>2022-10-26T09:59:38.081Z</time>
      </trkpt>
      <trkpt lat="48.71208" lon="2.50757">
        <ele>51</ele>
        <time>2022-10-26T09:59:43.070Z</time>
      </trkpt>
      <trkpt lat="48.71203" lon="2.50751">
        <ele>51</ele>
        <time>2022-10-26T09:59:48.073Z</time>
      </trkpt>
      <trkpt lat="48.71197" lon="2.50743">
        <ele>51</ele>
        <time>2022-10-26T09:59:53.064Z</time>
      </trkpt>
      <trkpt lat="48.71195" lon="2.5074">
        <ele>51</ele>
        <time>2022-10-26T09:59:57.078Z</time>
      </trkpt>
      <trkpt lat="48.7119" lon="2.50734">
        <ele>52</ele>
        <time>2022-10-26T10:00:02.088Z</time>
      </trkpt>
      <trkpt lat="48.71186" lon="2.50726">
        <ele>52</ele>
        <time>2022-10-26T10:00:07.065Z</time>
      </trkpt>
      <trkpt lat="48.71181" lon="2.50719">
        <ele>52</ele>
        <time>2022-10-26T10:00:12.087Z</time>
      </trkpt>
      <trkpt lat="48.7118" lon="2.50709">
        <ele>51</ele>
        <time>2022-10-26T10:00:17.073Z</time>
      </trkpt>
      <trkpt lat="48.71179" lon="2.50702">
        <ele>51</ele>
        <time>2022-10-26T10:00:22.076Z</time>
      </trkpt>
      <trkpt lat="48.71176" lon="2.50694">
        <ele>51</ele>
        <time>2022-10-26T10:00:27.076Z</time>
      </trkpt>
      <trkpt lat="48.71175" lon="2.50681">
        <ele>51</ele>
        <time>2022-10-26T10:00:32.067Z</time>
      </trkpt>
      <trkpt lat="48.71172" lon="2.50672">
        <ele>51</ele>
        <time>2022-10-26T10:00:37.072Z</time>
      </trkpt>
      <trkpt lat="48.71171" lon="2.50664">
        <ele>51</ele>
        <time>2022-10-26T10:00:41.077Z</time>
      </trkpt>
      <trkpt lat="48.71169" lon="2.50658">
        <ele>51</ele>
        <time>2022-10-26T10:00:46.071Z</time>
      </trkpt>
      <trkpt lat="48.71168" lon="2.50651">
        <ele>51</ele>
        <time>2022-10-26T10:00:51.078Z</time>
      </trkpt>
      <trkpt lat="48.71169" lon="2.50643">
        <ele>51</ele>
        <time>2022-10-26T10:00:56.082Z</time>
      </trkpt>
      <trkpt lat="48.71169" lon="2.50634">
        <ele>51</ele>
        <time>2022-10-26T10:01:01.072Z</time>
      </trkpt>
      <trkpt lat="48.71169" lon="2.50625">
        <ele>50</ele>
        <time>2022-10-26T10:01:06.081Z</time>
      </trkpt>
      <trkpt lat="48.71167" lon="2.50615">
        <ele>50</ele>
        <time>2022-10-26T10:01:11.074Z</time>
      </trkpt>
      <trkpt lat="48.71165" lon="2.50606">
        <ele>50</ele>
        <time>2022-10-26T10:01:16.083Z</time>
      </trkpt>
      <trkpt lat="48.71164" lon="2.50596">
        <ele>50</ele>
        <time>2022-10-26T10:01:21.079Z</time>
      </trkpt>
      <trkpt lat="48.71163" lon="2.50589">
        <ele>50</ele>
        <time>2022-10-26T10:01:26.077Z</time>
      </trkpt>
      <trkpt lat="48.71158" lon="2.50583">
        <ele>50</ele>
        <time>2022-10-26T10:01:31.078Z</time>
      </trkpt>
      <trkpt lat="48.71156" lon="2.50579">
        <ele>50</ele>
        <time>2022-10-26T10:01:36.087Z</time>
      </trkpt>
      <trkpt lat="48.71153" lon="2.50571">
        <ele>49</ele>
        <time>2022-10-26T10:01:41.073Z</time>
      </trkpt>
      <trkpt lat="48.71149" lon="2.50564">
        <ele>49</ele>
        <time>2022-10-26T10:01:46.080Z</time>
      </trkpt>
      <trkpt lat="48.71145" lon="2.50557">
        <ele>49</ele>
        <time>2022-10-26T10:01:51.053Z</time>
      </trkpt>
      <trkpt lat="48.71142" lon="2.50552">
        <ele>49</ele>
        <time>2022-10-26T10:01:55.086Z</time>
      </trkpt>
      <trkpt lat="48.71137" lon="2.50547">
        <ele>49</ele>
        <time>2022-10-26T10:02:00.072Z</time>
      </trkpt>
      <trkpt lat="48.71132" lon="2.50537">
        <ele>49</ele>
        <time>2022-10-26T10:02:05.077Z</time>
      </trkpt>
      <trkpt lat="48.71125" lon="2.50532">
        <ele>49</ele>
        <time>2022-10-26T10:02:10.085Z</time>
      </trkpt>
      <trkpt lat="48.71123" lon="2.50526">
        <ele>49</ele>
        <time>2022-10-26T10:02:15.081Z</time>
      </trkpt>
      <trkpt lat="48.7112" lon="2.50523">
        <ele>49</ele>
        <time>2022-10-26T10:02:20.090Z</time>
      </trkpt>
      <trkpt lat="48.71118" lon="2.50518">
        <ele>49</ele>
        <time>2022-10-26T10:02:25.070Z</time>
      </trkpt>
      <trkpt lat="48.71113" lon="2.50512">
        <ele>49</ele>
        <time>2022-10-26T10:02:30.076Z</time>
      </trkpt>
      <trkpt lat="48.71111" lon="2.50503">
        <ele>49</ele>
        <time>2022-10-26T10:02:35.078Z</time>
      </trkpt>
      <trkpt lat="48.71108" lon="2.50495">
        <ele>49</ele>
        <time>2022-10-26T10:02:40.075Z</time>
      </trkpt>
      <trkpt lat="48.71104" lon="2.50488">
        <ele>49</ele>
        <time>2022-10-26T10:02:45.071Z</time>
      </trkpt>
      <trkpt lat="48.711" lon="2.50479">
        <ele>49</ele>
        <time>2022-10-26T10:02:50.091Z</time>
      </trkpt>
      <trkpt lat="48.71097" lon="2.50472">
        <ele>47</ele>
        <time>2022-10-26T10:02:55.077Z</time>
      </trkpt>
      <trkpt lat="48.71094" lon="2.50466">
        <ele>47</ele>
        <time>2022-10-26T10:03:00.078Z</time>
      </trkpt>
      <trkpt lat="48.7109" lon="2.50458">
        <ele>47</ele>
        <time>2022-10-26T10:03:05.082Z</time>
      </trkpt>
      <trkpt lat="48.71086" lon="2.5045">
        <ele>47</ele>
        <time>2022-10-26T10:03:10.059Z</time>
      </trkpt>
      <trkpt lat="48.71084" lon="2.50444">
        <ele>47</ele>
        <time>2022-10-26T10:03:14.090Z</time>
      </trkpt>
      <trkpt lat="48.71083" lon="2.50437">
        <ele>47</ele>
        <time>2022-10-26T10:03:19.078Z</time>
      </trkpt>
      <trkpt lat="48.7108" lon="2.50429">
        <ele>47</ele>
        <time>2022-10-26T10:03:24.081Z</time>
      </trkpt>
      <trkpt lat="48.71078" lon="2.50422">
        <ele>47</ele>
        <time>2022-10-26T10:03:29.078Z</time>
      </trkpt>
      <trkpt lat="48.71075" lon="2.50417">
        <ele>47</ele>
        <time>2022-10-26T10:03:34.065Z</time>
      </trkpt>
      <trkpt lat="48.71073" lon="2.50412">
        <ele>47</ele>
        <time>2022-10-26T10:03:39.086Z</time>
      </trkpt>
      <trkpt lat="48.71072" lon="2.50403">
        <ele>47</ele>
        <time>2022-10-26T10:03:44.075Z</time>
      </trkpt>
      <trkpt lat="48.7107" lon="2.50397">
        <ele>47</ele>
        <time>2022-10-26T10:03:49.076Z</time>
      </trkpt>
      <trkpt lat="48.7107" lon="2.50394">
        <ele>47</ele>
        <time>2022-10-26T10:03:54.069Z</time>
      </trkpt>
      <trkpt lat="48.71068" lon="2.50387">
        <ele>46</ele>
        <time>2022-10-26T10:03:58.076Z</time>
      </trkpt>
      <trkpt lat="48.71063" lon="2.50383">
        <ele>46</ele>
        <time>2022-10-26T10:04:03.080Z</time>
      </trkpt>
      <trkpt lat="48.7106" lon="2.50379">
        <ele>46</ele>
        <time>2022-10-26T10:04:08.075Z</time>
      </trkpt>
      <trkpt lat="48.71057" lon="2.50374">
        <ele>46</ele>
        <time>2022-10-26T10:04:13.078Z</time>
      </trkpt>
      <trkpt lat="48.71057" lon="2.50368">
        <ele>46</ele>
        <time>2022-10-26T10:04:18.060Z</time>
      </trkpt>
      <trkpt lat="48.71057" lon="2.50361">
        <ele>46</ele>
        <time>2022-10-26T10:04:31.093Z</time>
      </trkpt>
      <trkpt lat="48.71058" lon="2.50356">
        <ele>46</ele>
        <time>2022-10-26T10:04:36.049Z</time>
      </trkpt>
      <trkpt lat="48.71054" lon="2.5035">
        <ele>46</ele>
        <time>2022-10-26T10:04:41.055Z</time>
      </trkpt>
      <trkpt lat="48.71053" lon="2.5035">
        <ele>46</ele>
        <time>2022-10-26T10:04:46.048Z</time>
      </trkpt>
      <trkpt lat="48.71048" lon="2.50354">
        <ele>46</ele>
        <time>2022-10-26T10:04:56.070Z</time>
      </trkpt>
      <trkpt lat="48.71044" lon="2.5036">
        <ele>46</ele>
        <time>2022-10-26T10:05:01.053Z</time>
      </trkpt>
      <trkpt lat="48.7104" lon="2.50355">
        <ele>46</ele>
        <time>2022-10-26T10:05:06.076Z</time>
      </trkpt>
      <trkpt lat="48.71039" lon="2.50355">
        <ele>46</ele>
        <time>2022-10-26T10:05:11.070Z</time>
      </trkpt>
      <trkpt lat="48.71038" lon="2.50349">
        <ele>46</ele>
        <time>2022-10-26T10:05:16.058Z</time>
      </trkpt>
      <trkpt lat="48.71038" lon="2.50342">
        <ele>45</ele>
        <time>2022-10-26T10:05:20.068Z</time>
      </trkpt>
      <trkpt lat="48.71036" lon="2.50335">
        <ele>45</ele>
        <time>2022-10-26T10:05:25.057Z</time>
      </trkpt>
      <trkpt lat="48.71034" lon="2.50324">
        <ele>45</ele>
        <time>2022-10-26T10:05:30.064Z</time>
      </trkpt>
      <trkpt lat="48.71032" lon="2.50317">
        <ele>44</ele>
        <time>2022-10-26T10:05:35.059Z</time>
      </trkpt>
      <trkpt lat="48.71029" lon="2.50315">
        <ele>44</ele>
        <time>2022-10-26T10:05:49.073Z</time>
      </trkpt>
      <trkpt lat="48.71025" lon="2.50311">
        <ele>44</ele>
        <time>2022-10-26T10:05:54.064Z</time>
      </trkpt>
      <trkpt lat="48.71021" lon="2.50306">
        <ele>44</ele>
        <time>2022-10-26T10:05:59.075Z</time>
      </trkpt>
      <trkpt lat="48.71021" lon="2.50296">
        <ele>44</ele>
        <time>2022-10-26T10:06:04.055Z</time>
      </trkpt>
      <trkpt lat="48.71017" lon="2.50287">
        <ele>44</ele>
        <time>2022-10-26T10:06:09.063Z</time>
      </trkpt>
      <trkpt lat="48.71018" lon="2.5028">
        <ele>44</ele>
        <time>2022-10-26T10:06:14.071Z</time>
      </trkpt>
      <trkpt lat="48.71017" lon="2.50273">
        <ele>44</ele>
        <time>2022-10-26T10:06:19.067Z</time>
      </trkpt>
      <trkpt lat="48.71014" lon="2.50266">
        <ele>44</ele>
        <time>2022-10-26T10:06:24.060Z</time>
      </trkpt>
      <trkpt lat="48.71011" lon="2.50261">
        <ele>42</ele>
        <time>2022-10-26T10:06:29.048Z</time>
      </trkpt>
      <trkpt lat="48.71007" lon="2.50254">
        <ele>42</ele>
        <time>2022-10-26T10:06:34.057Z</time>
      </trkpt>
      <trkpt lat="48.71003" lon="2.50249">
        <ele>42</ele>
        <time>2022-10-26T10:06:39.062Z</time>
      </trkpt>
      <trkpt lat="48.70999" lon="2.50245">
        <ele>42</ele>
        <time>2022-10-26T10:06:43.080Z</time>
      </trkpt>
      <trkpt lat="48.70994" lon="2.50236">
        <ele>43</ele>
        <time>2022-10-26T10:06:48.066Z</time>
      </trkpt>
      <trkpt lat="48.70992" lon="2.5023">
        <ele>43</ele>
        <time>2022-10-26T10:06:52.076Z</time>
      </trkpt>
      <trkpt lat="48.70989" lon="2.50223">
        <ele>43</ele>
        <time>2022-10-26T10:06:57.082Z</time>
      </trkpt>
      <trkpt lat="48.70986" lon="2.50214">
        <ele>43</ele>
        <time>2022-10-26T10:07:02.075Z</time>
      </trkpt>
      <trkpt lat="48.70984" lon="2.50209">
        <ele>42</ele>
        <time>2022-10-26T10:07:06.089Z</time>
      </trkpt>
      <trkpt lat="48.70979" lon="2.50207">
        <ele>43</ele>
        <time>2022-10-26T10:07:11.087Z</time>
      </trkpt>
      <trkpt lat="48.70975" lon="2.50212">
        <ele>42</ele>
        <time>2022-10-26T10:07:16.081Z</time>
      </trkpt>
      <trkpt lat="48.7097" lon="2.50219">
        <ele>42</ele>
        <time>2022-10-26T10:07:21.061Z</time>
      </trkpt>
      <trkpt lat="48.70967" lon="2.50217">
        <ele>42</ele>
        <time>2022-10-26T10:07:26.070Z</time>
      </trkpt>
      <trkpt lat="48.70963" lon="2.50211">
        <ele>42</ele>
        <time>2022-10-26T10:07:31.079Z</time>
      </trkpt>
      <trkpt lat="48.70959" lon="2.50204">
        <ele>43</ele>
        <time>2022-10-26T10:07:36.074Z</time>
      </trkpt>
      <trkpt lat="48.70955" lon="2.50198">
        <ele>44</ele>
        <time>2022-10-26T10:07:41.083Z</time>
      </trkpt>
      <trkpt lat="48.70952" lon="2.50192">
        <ele>44</ele>
        <time>2022-10-26T10:07:46.073Z</time>
      </trkpt>
      <trkpt lat="48.7095" lon="2.50184">
        <ele>44</ele>
        <time>2022-10-26T10:07:51.077Z</time>
      </trkpt>
      <trkpt lat="48.70947" lon="2.50176">
        <ele>43</ele>
        <time>2022-10-26T10:07:56.059Z</time>
      </trkpt>
      <trkpt lat="48.70945" lon="2.50171">
        <ele>43</ele>
        <time>2022-10-26T10:07:59.079Z</time>
      </trkpt>
      <trkpt lat="48.70942" lon="2.50161">
        <ele>43</ele>
        <time>2022-10-26T10:08:05.059Z</time>
      </trkpt>
      <trkpt lat="48.70939" lon="2.50153">
        <ele>43</ele>
        <time>2022-10-26T10:08:10.069Z</time>
      </trkpt>
      <trkpt lat="48.70935" lon="2.50147">
        <ele>42</ele>
        <time>2022-10-26T10:08:15.061Z</time>
      </trkpt>
      <trkpt lat="48.70935" lon="2.5014">
        <ele>42</ele>
        <time>2022-10-26T10:08:20.059Z</time>
      </trkpt>
      <trkpt lat="48.70938" lon="2.50136">
        <ele>42</ele>
        <time>2022-10-26T10:08:24.089Z</time>
      </trkpt>
      <trkpt lat="48.70942" lon="2.50128">
        <ele>42</ele>
        <time>2022-10-26T10:08:29.070Z</time>
      </trkpt>
      <trkpt lat="48.70946" lon="2.50123">
        <ele>40</ele>
        <time>2022-10-26T10:08:33.075Z</time>
      </trkpt>
      <trkpt lat="48.70949" lon="2.50116">
        <ele>40</ele>
        <time>2022-10-26T10:08:38.067Z</time>
      </trkpt>
      <trkpt lat="48.70949" lon="2.50106">
        <ele>40</ele>
        <time>2022-10-26T10:08:43.085Z</time>
      </trkpt>
      <trkpt lat="48.70946" lon="2.50099">
        <ele>40</ele>
        <time>2022-10-26T10:08:48.076Z</time>
      </trkpt>
      <trkpt lat="48.70942" lon="2.50092">
        <ele>40</ele>
        <time>2022-10-26T10:08:53.074Z</time>
      </trkpt>
      <trkpt lat="48.70939" lon="2.50086">
        <ele>40</ele>
        <time>2022-10-26T10:08:57.081Z</time>
      </trkpt>
      <trkpt lat="48.70935" lon="2.50079">
        <ele>40</ele>
        <time>2022-10-26T10:09:02.057Z</time>
      </trkpt>
      <trkpt lat="48.70932" lon="2.50071">
        <ele>40</ele>
        <time>2022-10-26T10:09:07.060Z</time>
      </trkpt>
      <trkpt lat="48.70931" lon="2.50062">
        <ele>41</ele>
        <time>2022-10-26T10:09:12.060Z</time>
      </trkpt>
      <trkpt lat="48.70928" lon="2.50054">
        <ele>41</ele>
        <time>2022-10-26T10:09:17.069Z</time>
      </trkpt>
      <trkpt lat="48.70927" lon="2.50044">
        <ele>41</ele>
        <time>2022-10-26T10:09:22.070Z</time>
      </trkpt>
      <trkpt lat="48.70925" lon="2.50038">
        <ele>42</ele>
        <time>2022-10-26T10:09:27.076Z</time>
      </trkpt>
      <trkpt lat="48.70924" lon="2.50032">
        <ele>42</ele>
        <time>2022-10-26T10:09:32.062Z</time>
      </trkpt>
      <trkpt lat="48.70918" lon="2.50028">
        <ele>42</ele>
        <time>2022-10-26T10:09:37.090Z</time>
      </trkpt>
      <trkpt lat="48.70912" lon="2.50021">
        <ele>42</ele>
        <time>2022-10-26T10:09:42.079Z</time>
      </trkpt>
      <trkpt lat="48.70911" lon="2.50014">
        <ele>42</ele>
        <time>2022-10-26T10:09:46.069Z</time>
      </trkpt>
      <trkpt lat="48.7091" lon="2.50006">
        <ele>43</ele>
        <time>2022-10-26T10:09:51.072Z</time>
      </trkpt>
      <trkpt lat="48.70914" lon="2.49997">
        <ele>43</ele>
        <time>2022-10-26T10:09:56.081Z</time>
      </trkpt>
      <trkpt lat="48.70914" lon="2.49989">
        <ele>43</ele>
        <time>2022-10-26T10:10:01.069Z</time>
      </trkpt>
      <trkpt lat="48.70913" lon="2.49982">
        <ele>43</ele>
        <time>2022-10-26T10:10:06.064Z</time>
      </trkpt>
      <trkpt lat="48.70921" lon="2.49975">
        <ele>43</ele>
        <time>2022-10-26T10:10:11.057Z</time>
      </trkpt>
      <trkpt lat="48.70922" lon="2.49969">
        <ele>43</ele>
        <time>2022-10-26T10:10:15.068Z</time>
      </trkpt>
      <trkpt lat="48.70925" lon="2.49958">
        <ele>43</ele>
        <time>2022-10-26T10:10:20.068Z</time>
      </trkpt>
      <trkpt lat="48.70928" lon="2.4995">
        <ele>43</ele>
        <time>2022-10-26T10:10:25.080Z</time>
      </trkpt>
      <trkpt lat="48.70933" lon="2.49945">
        <ele>46</ele>
        <time>2022-10-26T10:10:29.078Z</time>
      </trkpt>
      <trkpt lat="48.70939" lon="2.49936">
        <ele>46</ele>
        <time>2022-10-26T10:10:34.073Z</time>
      </trkpt>
      <trkpt lat="48.70945" lon="2.49936">
        <ele>46</ele>
        <time>2022-10-26T10:10:39.060Z</time>
      </trkpt>
      <trkpt lat="48.7095" lon="2.49937">
        <ele>46</ele>
        <time>2022-10-26T10:10:43.078Z</time>
      </trkpt>
      <trkpt lat="48.70954" lon="2.49933">
        <ele>46</ele>
        <time>2022-10-26T10:10:47.076Z</time>
      </trkpt>
      <trkpt lat="48.70959" lon="2.49931">
        <ele>47</ele>
        <time>2022-10-26T10:10:52.076Z</time>
      </trkpt>
      <trkpt lat="48.70964" lon="2.49927">
        <ele>47</ele>
        <time>2022-10-26T10:10:57.077Z</time>
      </trkpt>
      <trkpt lat="48.70967" lon="2.49918">
        <ele>47</ele>
        <time>2022-10-26T10:11:02.072Z</time>
      </trkpt>
      <trkpt lat="48.70971" lon="2.49913">
        <ele>47</ele>
        <time>2022-10-26T10:11:07.069Z</time>
      </trkpt>
      <trkpt lat="48.70976" lon="2.49909">
        <ele>47</ele>
        <time>2022-10-26T10:11:12.056Z</time>
      </trkpt>
      <trkpt lat="48.7098" lon="2.49902">
        <ele>46</ele>
        <time>2022-10-26T10:11:17.054Z</time>
      </trkpt>
      <trkpt lat="48.70982" lon="2.49899">
        <ele>46</ele>
        <time>2022-10-26T10:11:22.061Z</time>
      </trkpt>
      <trkpt lat="48.70981" lon="2.49891">
        <ele>46</ele>
        <time>2022-10-26T10:11:27.078Z</time>
      </trkpt>
      <trkpt lat="48.70979" lon="2.49884">
        <ele>46</ele>
        <time>2022-10-26T10:11:32.077Z</time>
      </trkpt>
      <trkpt lat="48.70977" lon="2.49881">
        <ele>46</ele>
        <time>2022-10-26T10:11:37.078Z</time>
      </trkpt>
      <trkpt lat="48.70978" lon="2.49874">
        <ele>45</ele>
        <time>2022-10-26T10:11:41.094Z</time>
      </trkpt>
      <trkpt lat="48.70977" lon="2.49867">
        <ele>45</ele>
        <time>2022-10-26T10:11:46.079Z</time>
      </trkpt>
      <trkpt lat="48.70973" lon="2.4986">
        <ele>45</ele>
        <time>2022-10-26T10:11:51.090Z</time>
      </trkpt>
      <trkpt lat="48.70967" lon="2.49854">
        <ele>45</ele>
        <time>2022-10-26T10:11:56.074Z</time>
      </trkpt>
      <trkpt lat="48.70963" lon="2.4985">
        <ele>45</ele>
        <time>2022-10-26T10:12:01.069Z</time>
      </trkpt>
      <trkpt lat="48.70958" lon="2.49845">
        <ele>43</ele>
        <time>2022-10-26T10:12:06.070Z</time>
      </trkpt>
      <trkpt lat="48.70954" lon="2.49838">
        <ele>43</ele>
        <time>2022-10-26T10:12:11.073Z</time>
      </trkpt>
      <trkpt lat="48.70947" lon="2.49832">
        <ele>43</ele>
        <time>2022-10-26T10:12:16.061Z</time>
      </trkpt>
      <trkpt lat="48.70942" lon="2.49828">
        <ele>43</ele>
        <time>2022-10-26T10:12:21.070Z</time>
      </trkpt>
      <trkpt lat="48.70937" lon="2.49824">
        <ele>43</ele>
        <time>2022-10-26T10:12:26.081Z</time>
      </trkpt>
      <trkpt lat="48.7093" lon="2.49821">
        <ele>42</ele>
        <time>2022-10-26T10:12:31.084Z</time>
      </trkpt>
      <trkpt lat="48.70925" lon="2.49814">
        <ele>40</ele>
        <time>2022-10-26T10:12:36.093Z</time>
      </trkpt>
      <trkpt lat="48.7092" lon="2.49809">
        <ele>40</ele>
        <time>2022-10-26T10:12:41.060Z</time>
      </trkpt>
      <trkpt lat="48.70915" lon="2.49804">
        <ele>40</ele>
        <time>2022-10-26T10:12:46.064Z</time>
      </trkpt>
      <trkpt lat="48.7091" lon="2.49797">
        <ele>40</ele>
        <time>2022-10-26T10:12:51.073Z</time>
      </trkpt>
      <trkpt lat="48.70905" lon="2.49791">
        <ele>39</ele>
        <time>2022-10-26T10:12:56.075Z</time>
      </trkpt>
      <trkpt lat="48.70901" lon="2.49787">
        <ele>38</ele>
        <time>2022-10-26T10:13:00.074Z</time>
      </trkpt>
      <trkpt lat="48.70899" lon="2.49782">
        <ele>38</ele>
        <time>2022-10-26T10:13:04.059Z</time>
      </trkpt>
      <trkpt lat="48.70897" lon="2.49774">
        <ele>38</ele>
        <time>2022-10-26T10:13:09.059Z</time>
      </trkpt>
      <trkpt lat="48.70895" lon="2.49766">
        <ele>38</ele>
        <time>2022-10-26T10:13:14.068Z</time>
      </trkpt>
      <trkpt lat="48.70892" lon="2.49758">
        <ele>37</ele>
        <time>2022-10-26T10:13:19.067Z</time>
      </trkpt>
      <trkpt lat="48.7089" lon="2.49751">
        <ele>37</ele>
        <time>2022-10-26T10:13:23.073Z</time>
      </trkpt>
      <trkpt lat="48.70884" lon="2.49749">
        <ele>37</ele>
        <time>2022-10-26T10:13:28.073Z</time>
      </trkpt>
      <trkpt lat="48.70878" lon="2.49749">
        <ele>37</ele>
        <time>2022-10-26T10:13:32.089Z</time>
      </trkpt>
      <trkpt lat="48.70871" lon="2.49751">
        <ele>37</ele>
        <time>2022-10-26T10:13:37.078Z</time>
      </trkpt>
      <trkpt lat="48.70863" lon="2.4975">
        <ele>37</ele>
        <time>2022-10-26T10:13:42.080Z</time>
      </trkpt>
      <trkpt lat="48.70858" lon="2.49752">
        <ele>37</ele>
        <time>2022-10-26T10:13:46.089Z</time>
      </trkpt>
      <trkpt lat="48.70853" lon="2.49752">
        <ele>37</ele>
        <time>2022-10-26T10:13:51.086Z</time>
      </trkpt>
      <trkpt lat="48.70847" lon="2.49754">
        <ele>37</ele>
        <time>2022-10-26T10:13:56.087Z</time>
      </trkpt>
      <trkpt lat="48.70841" lon="2.49754">
        <ele>37</ele>
        <time>2022-10-26T10:14:01.062Z</time>
      </trkpt>
      <trkpt lat="48.70836" lon="2.49755">
        <ele>37</ele>
        <time>2022-10-26T10:14:06.069Z</time>
      </trkpt>
      <trkpt lat="48.70831" lon="2.49753">
        <ele>37</ele>
        <time>2022-10-26T10:14:10.075Z</time>
      </trkpt>
      <trkpt lat="48.70825" lon="2.49755">
        <ele>37</ele>
        <time>2022-10-26T10:14:15.077Z</time>
      </trkpt>
      <trkpt lat="48.70819" lon="2.49758">
        <ele>36</ele>
        <time>2022-10-26T10:14:20.066Z</time>
      </trkpt>
      <trkpt lat="48.70814" lon="2.49758">
        <ele>36</ele>
        <time>2022-10-26T10:14:25.068Z</time>
      </trkpt>
      <trkpt lat="48.70808" lon="2.49758">
        <ele>36</ele>
        <time>2022-10-26T10:14:30.080Z</time>
      </trkpt>
      <trkpt lat="48.70802" lon="2.49759">
        <ele>36</ele>
        <time>2022-10-26T10:14:35.076Z</time>
      </trkpt>
      <trkpt lat="48.70796" lon="2.49762">
        <ele>36</ele>
        <time>2022-10-26T10:14:40.083Z</time>
      </trkpt>
      <trkpt lat="48.70792" lon="2.4977">
        <ele>36</ele>
        <time>2022-10-26T10:14:45.079Z</time>
      </trkpt>
      <trkpt lat="48.70786" lon="2.49779">
        <ele>36</ele>
        <time>2022-10-26T10:14:50.076Z</time>
      </trkpt>
      <trkpt lat="48.70781" lon="2.49785">
        <ele>36</ele>
        <time>2022-10-26T10:14:55.094Z</time>
      </trkpt>
      <trkpt lat="48.70775" lon="2.49786">
        <ele>36</ele>
        <time>2022-10-26T10:15:00.060Z</time>
      </trkpt>
      <trkpt lat="48.70771" lon="2.49786">
        <ele>36</ele>
        <time>2022-10-26T10:15:04.076Z</time>
      </trkpt>
      <trkpt lat="48.70766" lon="2.49783">
        <ele>36</ele>
        <time>2022-10-26T10:15:09.061Z</time>
      </trkpt>
      <trkpt lat="48.70759" lon="2.49779">
        <ele>37</ele>
        <time>2022-10-26T10:15:14.060Z</time>
      </trkpt>
      <trkpt lat="48.70754" lon="2.49774">
        <ele>37</ele>
        <time>2022-10-26T10:15:19.065Z</time>
      </trkpt>
      <trkpt lat="48.7075" lon="2.4977">
        <ele>37</ele>
        <time>2022-10-26T10:15:24.066Z</time>
      </trkpt>
      <trkpt lat="48.7075" lon="2.4977">
        <ele>37</ele>
        <time>2022-10-26T10:15:29.085Z</time>
      </trkpt>
    </trkseg>
  </trk>
</gpx>